[[{"header":{"parameterUnit":"m.s-1","parameterCategory":1,"la1":30.6,"la2":29.2853,"lo1":-89.7004,"lo2":-87.6739,"dy":0.0162,"dx":0.0183,"nx":112,"ny":82,"refTime":"2023-08-15T18:00:00:Z","depth":0,"parameterNumber":2,"parameterNumberName":"U-component_of_WINDS"},"data":[0.0,0.0,0.0,0.0,0.0,0.0,0.0,0.0,0.0,0.0,0.0,0.0,0.0,0.0,0.0,0.0,0.0,0.0,0.0,0.0,0.0,0.0,0.0,0.0,0.0,0.0,0.0,0.0,0.0,0.0,0.0,0.0,0.0,0.0,0.0,0.0,0.0,0.0,0.0,0.0,0.0,0.0,0.0,0.0,0.0,0.0,0.0,0.0,0.0,0.0,0.0,0.0,0.0,0.0,0.0,0.0,0.0,0.0,0.0,0.0,0.0,0.0,0.0,0.0,0.0,0.0,0.0,0.0,0.0,0.0,0.0,0.0,0.0,0.0,0.0,0.0,0.0,0.0,0.0,0.0,0.0,0.0,0.0,0.0,0.0,0.0,0.0,0.0,0.0,0.0,-3.6796,-4.2027,-4.5182,-4.6913,-4.6913,-4.6913,-4.4355,-3.8373,0.0,0.0,0.0,0.0,0.0,0.0,0.0,0.0,0.0,0.0,0.0,0.0,0.0,0.0,0.0,0.0,0.0,0.0,0.0,0.0,0.0,0.0,0.0,0.0,0.0,0.0,0.0,0.0,0.0,0.0,0.0,0.0,0.0,0.0,0.0,0.0,0.0,0.0,0.0,0.0,0.0,0.0,0.0,0.0,0.0,0.0,0.0,0.0,0.0,0.0,0.0,0.0,0.0,0.0,0.0,0.0,0.0,0.0,0.0,0.0,0.0,0.0,0.0,0.0,0.0,0.0,0.0,0.0,0.0,0.0,0.0,0.0,0.0,0.0,0.0,0.0,0.0,0.0,0.0,0.0,0.0,0.0,0.0,0.0,0.0,0.0,0.0,0.0,0.0,0.0,0.0,0.0,0.0,0.0,0.0,0.0,0.0,0.0,0.0,0.0,0.0,0.0,0.0,0.0,-3.9662,-4.5509,-4.6586,-4.6913,-4.6913,-4.6913,-4.4355,-3.8373,0.0,0.0,0.0,0.0,0.0,0.0,0.0,0.0,0.0,0.0,0.0,0.0,0.0,0.0,0.0,0.0,0.0,0.0,0.0,0.0,0.0,0.0,0.0,0.0,0.0,0.0,0.0,0.0,0.0,0.0,0.0,0.0,0.0,0.0,0.0,0.0,0.0,0.0,0.0,0.0,0.0,0.0,0.0,0.0,0.0,0.0,0.0,0.0,0.0,0.0,0.0,0.0,0.0,0.0,0.0,0.0,0.0,0.0,0.0,0.0,0.0,0.0,0.0,0.0,0.0,0.0,0.0,0.0,0.0,0.0,0.0,0.0,0.0,0.0,0.0,0.0,0.0,0.0,0.0,0.0,0.0,0.0,0.0,0.0,0.0,0.0,0.0,0.0,0.0,0.0,0.0,0.0,0.0,0.0,0.0,0.0,0.0,0.0,0.0,0.0,0.0,0.0,0.0,-3.92,-4.3508,-4.7163,-4.7548,-4.7548,-4.7548,-4.7548,-4.4816,-3.8392,-3.6834,0.0,0.0,0.0,0.0,0.0,0.0,0.0,0.0,0.0,0.0,0.0,0.0,0.0,0.0,0.0,0.0,0.0,0.0,0.0,0.0,0.0,0.0,0.0,0.0,0.0,0.0,0.0,0.0,0.0,0.0,0.0,0.0,0.0,0.0,0.0,0.0,0.0,0.0,0.0,0.0,0.0,0.0,0.0,0.0,0.0,0.0,0.0,0.0,0.0,0.0,0.0,0.0,0.0,0.0,0.0,0.0,0.0,0.0,0.0,0.0,0.0,0.0,0.0,0.0,0.0,0.0,0.0,0.0,0.0,0.0,0.0,0.0,0.0,0.0,0.0,0.0,0.0,0.0,0.0,0.0,0.0,0.0,0.0,0.0,0.0,0.0,0.0,0.0,0.0,0.0,0.0,0.0,0.0,0.0,0.0,0.0,0.0,0.0,0.0,0.0,0.0,0.0,-4.2104,-4.5797,-4.7875,-4.8105,-4.8105,-4.8105,-4.8105,-4.522,-3.843,-3.7137,0.0,0.0,0.0,0.0,0.0,0.0,0.0,0.0,0.0,0.0,0.0,0.0,0.0,0.0,0.0,0.0,0.0,0.0,0.0,0.0,0.0,0.0,0.0,0.0,0.0,0.0,0.0,0.0,0.0,0.0,0.0,0.0,0.0,0.0,0.0,0.0,0.0,0.0,0.0,0.0,0.0,0.0,0.0,0.0,0.0,0.0,0.0,0.0,0.0,0.0,0.0,0.0,0.0,0.0,0.0,0.0,0.0,0.0,0.0,0.0,0.0,0.0,0.0,0.0,0.0,0.0,0.0,0.0,0.0,0.0,0.0,0.0,0.0,0.0,0.0,0.0,0.0,0.0,0.0,0.0,0.0,0.0,0.0,0.0,0.0,0.0,0.0,0.0,0.0,0.0,0.0,0.0,0.0,0.0,0.0,0.0,0.0,0.0,0.0,0.0,0.0,0.0,-4.1085,-4.4509,-4.7759,-4.8105,-4.8105,-4.8105,-4.8105,-4.522,-3.843,-3.7009,0.0,0.0,0.0,0.0,0.0,0.0,0.0,0.0,0.0,0.0,0.0,0.0,0.0,0.0,0.0,0.0,0.0,0.0,0.0,0.0,0.0,0.0,0.0,0.0,0.0,0.0,0.0,0.0,0.0,0.0,0.0,0.0,0.0,0.0,0.0,0.0,0.0,0.0,0.0,0.0,0.0,0.0,0.0,0.0,0.0,0.0,0.0,0.0,0.0,0.0,0.0,0.0,0.0,0.0,0.0,0.0,0.0,0.0,0.0,0.0,0.0,0.0,0.0,0.0,0.0,0.0,0.0,0.0,0.0,0.0,0.0,0.0,0.0,0.0,0.0,0.0,0.0,0.0,0.0,0.0,0.0,0.0,0.0,0.0,0.0,0.0,0.0,0.0,0.0,0.0,0.0,0.0,0.0,0.0,0.0,0.0,0.0,0.0,0.0,0.0,0.0,0.0,-4.1893,-4.5547,-4.7855,-4.8105,-4.8105,-4.8105,-4.8105,-4.522,-3.843,0.0,0.0,0.0,0.0,0.0,0.0,0.0,0.0,0.0,0.0,0.0,0.0,0.0,0.0,0.0,0.0,0.0,0.0,0.0,0.0,0.0,0.0,0.0,0.0,0.0,0.0,0.0,0.0,0.0,0.0,0.0,0.0,0.0,0.0,0.0,0.0,0.0,0.0,0.0,0.0,0.0,0.0,0.0,0.0,0.0,0.0,0.0,0.0,0.0,0.0,0.0,0.0,0.0,0.0,0.0,0.0,0.0,0.0,0.0,0.0,0.0,0.0,0.0,0.0,0.0,0.0,0.0,0.0,0.0,0.0,0.0,0.0,0.0,0.0,0.0,0.0,0.0,0.0,0.0,0.0,0.0,0.0,0.0,0.0,0.0,0.0,0.0,0.0,0.0,0.0,0.0,0.0,0.0,0.0,0.0,0.0,0.0,0.0,0.0,0.0,0.0,0.0,-3.8007,-4.245,-4.624,-4.7913,-4.8105,-4.8105,-4.8105,-4.8105,-4.5068,-3.7947,0.0,0.0,0.0,0.0,0.0,0.0,0.0,0.0,0.0,0.0,0.0,0.0,0.0,0.0,0.0,0.0,0.0,0.0,0.0,0.0,0.0,0.0,0.0,0.0,0.0,0.0,0.0,0.0,0.0,0.0,0.0,0.0,0.0,0.0,0.0,0.0,0.0,0.0,0.0,0.0,0.0,0.0,0.0,0.0,0.0,0.0,0.0,0.0,0.0,0.0,0.0,0.0,0.0,0.0,0.0,0.0,0.0,0.0,0.0,0.0,0.0,0.0,0.0,0.0,0.0,0.0,0.0,0.0,0.0,0.0,0.0,0.0,0.0,0.0,0.0,0.0,0.0,0.0,0.0,0.0,0.0,0.0,0.0,0.0,0.0,0.0,0.0,0.0,0.0,0.0,0.0,0.0,0.0,0.0,0.0,0.0,0.0,0.0,0.0,0.0,0.0,0.0,-3.8007,-4.245,-4.624,-4.7913,-4.8105,-4.8105,-4.8105,-4.8105,-4.4746,0.0,0.0,0.0,0.0,0.0,0.0,0.0,0.0,0.0,0.0,0.0,0.0,0.0,0.0,0.0,0.0,0.0,0.0,0.0,0.0,0.0,0.0,0.0,0.0,0.0,0.0,0.0,0.0,0.0,0.0,0.0,0.0,0.0,0.0,0.0,0.0,0.0,0.0,0.0,0.0,0.0,0.0,0.0,0.0,0.0,0.0,0.0,0.0,0.0,0.0,0.0,0.0,0.0,0.0,0.0,0.0,0.0,0.0,0.0,0.0,0.0,0.0,0.0,0.0,0.0,0.0,0.0,0.0,0.0,0.0,0.0,0.0,0.0,0.0,0.0,0.0,0.0,0.0,0.0,0.0,0.0,0.0,0.0,0.0,0.0,0.0,0.0,0.0,0.0,0.0,0.0,0.0,0.0,0.0,0.0,0.0,0.0,0.0,0.0,0.0,0.0,0.0,0.0,-3.8007,-4.2989,-4.6913,-4.799,-4.8644,-4.8779,-4.8144,-4.7873,-4.4517,-3.6886,0.0,0.0,0.0,0.0,0.0,0.0,0.0,0.0,0.0,0.0,0.0,0.0,0.0,0.0,0.0,0.0,0.0,0.0,0.0,0.0,0.0,0.0,0.0,0.0,0.0,0.0,0.0,0.0,0.0,0.0,0.0,0.0,0.0,0.0,0.0,0.0,0.0,0.0,0.0,0.0,0.0,0.0,0.0,0.0,0.0,0.0,0.0,0.0,0.0,0.0,0.0,0.0,0.0,0.0,0.0,0.0,0.0,0.0,0.0,0.0,0.0,0.0,0.0,0.0,0.0,0.0,0.0,0.0,0.0,0.0,0.0,0.0,0.0,0.0,0.0,0.0,0.0,0.0,0.0,0.0,0.0,0.0,0.0,0.0,0.0,0.0,0.0,0.0,0.0,0.0,0.0,0.0,0.0,0.0,0.0,0.0,0.0,0.0,0.0,0.0,0.0,0.0,-3.7488,-4.2989,-4.7221,-4.8009,-4.874,-4.8813,-4.7969,-4.7556,-4.4554,-3.794,0.0,0.0,0.0,0.0,0.0,0.0,0.0,0.0,0.0,0.0,0.0,0.0,0.0,0.0,0.0,0.0,0.0,0.0,0.0,0.0,0.0,0.0,0.0,0.0,0.0,0.0,0.0,0.0,0.0,0.0,0.0,0.0,0.0,0.0,0.0,0.0,0.0,0.0,0.0,0.0,0.0,0.0,0.0,0.0,0.0,0.0,0.0,0.0,0.0,0.0,0.0,0.0,0.0,0.0,0.0,0.0,0.0,0.0,0.0,0.0,0.0,0.0,0.0,0.0,0.0,0.0,0.0,0.0,0.0,0.0,0.0,0.0,0.0,0.0,0.0,0.0,0.0,0.0,0.0,0.0,0.0,0.0,0.0,0.0,0.0,0.0,0.0,0.0,0.0,0.0,0.0,0.0,0.0,0.0,0.0,0.0,0.0,0.0,0.0,0.0,0.0,0.0,-3.6815,-4.272,-4.7183,-4.7953,-4.8515,-4.8448,-4.7609,-4.7174,-4.4739,-3.9541,0.0,0.0,0.0,0.0,0.0,0.0,0.0,0.0,0.0,0.0,0.0,0.0,0.0,0.0,0.0,0.0,0.0,0.0,0.0,0.0,0.0,0.0,0.0,0.0,0.0,0.0,0.0,0.0,0.0,0.0,0.0,0.0,0.0,0.0,0.0,0.0,0.0,0.0,0.0,0.0,0.0,0.0,0.0,0.0,0.0,0.0,0.0,0.0,0.0,0.0,0.0,0.0,0.0,0.0,0.0,0.0,0.0,0.0,0.0,0.0,-4.8144,0.0,0.0,0.0,0.0,0.0,0.0,0.0,0.0,0.0,0.0,0.0,0.0,0.0,0.0,0.0,0.0,0.0,0.0,0.0,0.0,0.0,0.0,0.0,0.0,0.0,0.0,0.0,0.0,0.0,0.0,0.0,0.0,0.0,0.0,0.0,0.0,0.0,0.0,0.0,0.0,0.0,-3.7623,-4.3085,-4.7089,-4.757,-4.8342,-4.8332,-4.7205,-4.6815,-4.4501,-3.9514,-3.8322,0.0,0.0,0.0,0.0,0.0,0.0,0.0,0.0,0.0,0.0,0.0,0.0,0.0,0.0,0.0,0.0,0.0,0.0,0.0,0.0,0.0,0.0,0.0,0.0,0.0,0.0,0.0,0.0,0.0,0.0,0.0,0.0,0.0,0.0,0.0,0.0,0.0,0.0,0.0,0.0,0.0,0.0,0.0,0.0,0.0,0.0,0.0,0.0,0.0,0.0,0.0,0.0,0.0,0.0,0.0,0.0,0.0,0.0,0.0,0.0,-4.8047,0.0,0.0,0.0,0.0,0.0,0.0,0.0,0.0,0.0,0.0,0.0,0.0,0.0,0.0,0.0,0.0,0.0,0.0,0.0,0.0,0.0,0.0,0.0,0.0,0.0,0.0,0.0,0.0,0.0,0.0,0.0,0.0,0.0,0.0,0.0,0.0,0.0,0.0,0.0,0.0,-3.7276,-4.2951,-4.705,-4.7461,-4.8112,-4.8056,-4.6861,-4.6424,-4.479,-4.1477,-3.9639,0.0,0.0,0.0,0.0,0.0,0.0,0.0,0.0,0.0,0.0,0.0,0.0,0.0,0.0,0.0,0.0,0.0,0.0,0.0,0.0,0.0,0.0,0.0,0.0,0.0,0.0,0.0,0.0,0.0,0.0,0.0,0.0,0.0,0.0,0.0,0.0,0.0,0.0,0.0,0.0,0.0,0.0,0.0,0.0,0.0,0.0,0.0,0.0,0.0,0.0,0.0,0.0,0.0,-4.9277,-4.9414,-4.9551,-4.9551,-4.918,-4.8594,-5.0391,-5.0312,-4.8828,-4.7982,0.0,0.0,0.0,0.0,0.0,0.0,0.0,0.0,0.0,0.0,0.0,0.0,0.0,0.0,0.0,0.0,0.0,0.0,0.0,0.0,0.0,0.0,0.0,0.0,-4.0662,-3.9854,-3.9411,0.0,0.0,0.0,0.0,0.0,0.0,0.0,0.0,0.0,0.0,0.0,-3.6815,-4.259,-4.6741,-4.7162,-4.75,-4.7282,-4.6262,-4.5893,-4.5057,-4.3589,-4.1001,-3.9294,0.0,0.0,0.0,0.0,0.0,0.0,0.0,0.0,0.0,0.0,0.0,0.0,0.0,0.0,0.0,0.0,0.0,0.0,0.0,0.0,0.0,0.0,0.0,0.0,0.0,0.0,0.0,0.0,0.0,0.0,0.0,0.0,-4.0158,-4.2514,0.0,0.0,0.0,0.0,0.0,0.0,0.0,0.0,0.0,0.0,0.0,0.0,0.0,-4.8555,-4.8555,-4.9531,-5.0039,-5.0039,-5.0742,-5.1465,-5.2207,-5.2207,-5.2148,-5.1973,-5.084,0.0,-4.8886,-4.8633,0.0,0.0,0.0,0.0,0.0,0.0,0.0,0.0,0.0,0.0,0.0,0.0,0.0,0.0,0.0,0.0,0.0,0.0,0.0,0.0,0.0,0.0,-4.4643,-4.4874,-4.3739,-4.297,0.0,-3.9815,-3.5911,-3.7238,-3.6315,0.0,0.0,0.0,0.0,0.0,0.0,0.0,-3.7719,-4.222,-4.5506,-4.598,-4.5771,-4.543,-4.4978,-4.4891,-4.447,-4.3552,-4.3094,-4.1607,-3.8817,-4.0616,0.0,0.0,0.0,0.0,0.0,0.0,0.0,0.0,0.0,0.0,0.0,0.0,0.0,0.0,0.0,0.0,0.0,0.0,0.0,0.0,0.0,0.0,0.0,0.0,0.0,0.0,0.0,0.0,0.0,-4.1027,-4.2757,-4.4473,-4.4316,-4.3121,0.0,0.0,0.0,0.0,0.0,0.0,0.0,0.0,0.0,-4.6816,-4.8183,-4.8906,-4.8906,-5.0703,-5.1601,-5.1621,-5.2461,-5.3066,-5.3437,-5.3437,-5.3437,-5.3359,-5.2148,-5.1387,-5.0918,-4.9352,-4.8613,-4.834,0.0,0.0,0.0,0.0,-4.3835,-4.4509,-4.4509,-4.5605,-4.7009,-4.7009,0.0,0.0,0.0,0.0,0.0,0.0,0.0,0.0,0.0,0.0,-4.4443,-4.5391,-4.5028,-4.4701,-4.5432,-4.2527,-3.9835,0.0,-3.8777,-3.6892,-3.4603,0.0,0.0,0.0,0.0,-3.9142,-4.0027,-4.3211,-4.5485,-4.5776,-4.5641,-4.5307,-4.4726,-4.4709,-4.436,-4.3534,-4.3497,-4.2451,-4.0157,-4.1075,-3.9386,0.0,0.0,0.0,0.0,0.0,0.0,0.0,0.0,0.0,0.0,0.0,0.0,0.0,0.0,0.0,0.0,0.0,0.0,0.0,0.0,0.0,0.0,0.0,0.0,0.0,0.0,0.0,0.0,-4.3239,-4.4851,-4.629,-4.6337,-4.5321,0.0,0.0,0.0,0.0,0.0,0.0,-4.5937,-4.5996,-4.6484,-4.7578,-4.8867,-4.9648,-4.9863,-5.1758,-5.2812,-5.3047,-5.3691,-5.4121,-5.4336,-5.4336,-5.4336,-5.4297,-5.3652,-5.3105,-5.2539,-5.0266,-4.9263,-4.9109,-4.8528,-4.7461,-4.6182,-4.5759,-4.5855,-4.624,-4.624,-4.7355,-4.874,-4.8509,-4.7587,-4.6491,-4.6067,0.0,0.0,0.0,0.0,-4.2691,-4.3731,-4.3866,-4.4039,-4.5295,-4.5586,-4.5586,-4.5586,-4.4278,-4.3047,0.0,-4.1412,-3.9392,-3.6622,0.0,0.0,0.0,0.0,-4.1066,-4.172,-4.3957,-4.5512,-4.5603,-4.545,-4.511,-4.4549,-4.4448,-4.414,-4.3534,-4.3497,-4.2782,-4.1185,-4.1111,-3.9478,-3.5999,0.0,0.0,0.0,0.0,0.0,0.0,0.0,0.0,0.0,0.0,0.0,0.0,0.0,0.0,0.0,0.0,0.0,0.0,0.0,0.0,0.0,0.0,0.0,0.0,0.0,0.0,0.0,0.0,0.0,-4.7699,-4.964,0.0,0.0,0.0,0.0,-4.4863,-4.4863,-4.6035,-4.8574,-4.8691,-4.9453,-5.1094,-5.123,-5.168,-5.25,-5.2637,-5.3125,-5.3945,-5.3984,-5.4433,-5.5234,-5.5234,-5.5234,-5.5234,-5.5195,-5.4238,-5.2617,-5.1519,-5.1037,-5.0792,-4.8994,-4.8176,-4.7778,-4.6182,-4.6605,-4.7971,-4.7971,-4.9106,-5.0433,-4.9606,-4.7665,-4.536,-4.3761,-4.3201,0.0,0.0,-4.297,-4.402,-4.3339,-4.4309,-4.5507,-4.5566,-4.5586,-4.5586,-4.5586,-4.4278,-4.3566,0.0,-4.4066,-4.2585,-4.1585,0.0,-4.07,-3.818,-4.0046,-4.1758,-4.1797,-4.3752,-4.5115,-4.5132,-4.4511,-4.4072,-4.4042,-4.3734,-4.3534,-4.3497,-4.3497,-4.2782,-4.1185,-4.1111,-4.0286,-3.856,-3.6211,0.0,0.0,0.0,0.0,0.0,0.0,0.0,0.0,0.0,0.0,0.0,0.0,0.0,0.0,0.0,0.0,0.0,0.0,0.0,0.0,0.0,0.0,0.0,0.0,0.0,0.0,0.0,0.0,-4.7983,-4.8941,0.0,-4.7476,-4.7994,-4.7949,-4.6758,-4.8183,-4.9531,-5.0469,-5.0508,-5.1035,-5.2207,-5.2246,-5.2656,-5.3535,-5.4082,-5.4531,-5.4844,-5.541,-5.584,-5.6133,-5.6133,-5.582,-5.5273,-5.4707,-5.3789,-5.2617,-5.1616,-5.1185,-5.1096,-5.0374,-5.0028,-4.9818,-4.9141,-4.926,-4.976,-4.976,-5.0183,-5.0452,-4.9048,-4.7952,-4.6914,-4.522,-4.4701,-4.4643,-4.4335,-4.4682,-4.5064,-4.4773,-4.5141,-4.5586,-4.5586,-4.5586,-4.5586,-4.5586,-4.5124,-4.4893,-4.547,-4.4239,-4.2816,-4.195,-4.3162,-4.3374,-4.0835,-4.2604,-4.4239,-4.4239,-4.4938,-4.5342,-4.5118,-4.4682,-4.4261,-4.3998,-4.3693,-4.3497,-4.3497,-4.3002,-4.2249,-4.1167,-4.0598,-3.9808,-3.8726,-3.7845,-3.5844,0.0,0.0,0.0,0.0,0.0,0.0,0.0,0.0,0.0,0.0,0.0,0.0,0.0,0.0,0.0,0.0,0.0,0.0,0.0,0.0,0.0,0.0,0.0,0.0,0.0,-4.5028,-4.6906,-4.8095,-4.8902,-4.9186,-4.8691,-4.9302,-4.9492,-4.8926,-5.0449,-5.1406,-5.1406,-5.1406,-5.166,-5.2246,-5.2266,-5.2676,-5.3555,-5.4121,-5.457,-5.4863,-5.5449,-5.5723,-5.5723,-5.5723,-5.5098,-5.3984,-5.4004,-5.3183,-5.1855,-5.1748,-5.1522,-5.1261,-5.1137,-5.1027,-5.0894,-5.0789,-5.074,-5.0702,-5.0702,-5.051,-5.0029,-4.8567,-4.7932,-4.7431,-4.6028,-4.5586,-4.5586,-4.5586,-4.5586,-4.5586,-4.5586,-4.5586,-4.5586,-4.5586,-4.5586,-4.5586,-4.5586,-4.4913,-4.4566,-4.5432,-4.4701,-4.3489,-4.2047,-4.3201,-4.3451,-4.0912,-4.195,-4.3028,-4.3028,-4.3778,-4.4245,-4.4,-4.436,-4.4501,-4.4252,-4.2791,-4.2231,-4.3039,-4.157,-4.0671,-4.0689,-3.9405,-3.8303,-3.7477,-3.6927,-3.5459,-3.3036,0.0,0.0,0.0,0.0,0.0,0.0,0.0,0.0,0.0,0.0,0.0,0.0,0.0,0.0,0.0,0.0,0.0,0.0,0.0,0.0,0.0,0.0,0.0,-4.3104,-4.6047,-4.8125,-4.8182,-4.9918,-5.1094,-5.1094,-5.1277,-5.1406,-5.1406,-5.1406,-5.1406,-5.1406,-5.1328,-5.1289,-5.1328,-5.1328,-5.1738,-5.2617,-5.2695,-5.3164,-5.4004,-5.4004,-5.4004,-5.4004,-5.4004,-5.3066,-5.1523,-5.3223,-5.2539,-5.0351,-5.1992,-5.2168,-5.1386,-5.1186,-5.1008,-5.0903,-5.0889,-5.0822,-5.0683,-5.0644,-5.0067,-4.926,-4.8395,-4.7568,-4.6737,-4.5853,-4.5586,-4.5586,-4.5586,-4.5586,-4.5586,-4.5586,-4.5586,-4.5586,-4.5586,-4.5586,-4.5586,-4.5586,-4.3662,-4.2643,-4.5086,-4.5547,-4.4778,-4.2335,-4.1931,-4.1066,-3.8565,-3.82,0.0,-3.8161,-4.03,-4.1819,-4.1819,-4.3368,-4.4429,-4.4504,-4.0903,-3.9698,-4.2103,-3.9294,-3.8248,-3.9827,-3.7624,-3.5991,-3.5119,-3.3505,-3.3862,-3.6248,0.0,0.0,0.0,0.0,0.0,0.0,0.0,0.0,0.0,0.0,0.0,0.0,0.0,0.0,0.0,0.0,0.0,0.0,0.0,0.0,0.0,-4.2931,-4.4855,-4.574,-4.7163,-4.8567,-4.9817,-5.0635,-5.1094,-5.1094,-5.1277,-5.1406,-5.1406,-5.1406,-5.1406,-5.1406,-4.9648,-4.8926,-4.957,-4.959,-5.0019,-5.0879,-5.2715,-5.3769,-5.4004,-5.4004,-5.4004,-5.4004,-5.4004,-5.3398,-5.2363,-5.2851,-5.2305,-5.1113,-5.1562,-5.1621,-5.1386,-5.1225,-5.1121,-5.1035,-5.0933,-5.0816,-5.051,-4.924,-4.9067,-4.926,-4.8395,-4.7568,-4.6737,-4.5853,-4.5586,-4.5586,-4.5586,-4.5586,-4.5586,-4.5586,-4.5586,-4.5586,-4.5586,-4.5586,-4.5586,-4.5586,-4.5047,-4.4586,-4.4643,-4.4662,-4.4643,-4.4566,-4.4547,-4.4105,-4.2777,-4.2566,0.0,-4.1777,-4.2103,-4.2374,-4.2374,-4.0844,-4.0525,-4.2277,-3.9589,-3.8854,-4.1295,-4.0047,-3.9423,-3.9863,-3.8707,-3.7936,-3.7698,-3.5467,-3.466,0.0,0.0,0.0,0.0,0.0,0.0,0.0,0.0,0.0,0.0,0.0,0.0,0.0,0.0,0.0,0.0,0.0,0.0,0.0,0.0,0.0,0.0,-4.3297,-4.549,-4.674,-4.7913,-4.9163,-5.0529,-5.0894,-5.105,-5.1084,-5.1235,-5.1343,-5.1406,-5.1406,-5.1406,-5.1406,-5.0,-4.8926,-4.8379,-4.9394,-4.9687,-4.9121,-5.1641,-5.291,-5.291,-5.291,-5.291,-5.291,-5.291,-5.2246,-5.1152,-5.1855,-5.1465,-5.041,-5.1113,-5.1406,0.0,0.0,0.0,0.0,0.0,-5.0771,-5.0491,-4.9125,-4.8991,-4.9202,-4.7991,-4.7278,-4.6737,-4.5853,-4.4857,-4.4013,-4.4013,-4.3229,-4.2654,-4.3726,-4.4013,-4.4282,-4.5355,-4.5586,-4.549,-4.5143,-4.4222,-4.3532,-4.3742,-4.2931,0.0,-4.4278,-4.3662,-4.2431,-4.0854,-4.0604,-4.045,-3.9988,-4.0682,-4.1225,-4.1225,-4.0321,-4.0296,-4.1694,-3.884,0.0,0.0,0.0,-3.7863,-3.7863,-3.7404,0.0,0.0,0.0,-3.4523,-3.555,0.0,0.0,0.0,-3.5257,-3.5238,0.0,0.0,0.0,0.0,0.0,0.0,0.0,0.0,0.0,0.0,0.0,0.0,0.0,0.0,0.0,0.0,-4.3355,-4.5028,-4.6682,-4.8182,-4.9471,-5.0433,-5.0668,-5.0843,-5.1074,-5.1154,-5.1265,-5.1386,-5.1406,-5.1406,-5.1406,0.0,0.0,0.0,0.0,-4.9883,-4.7617,-5.0137,-5.1406,-5.1406,-5.1406,-5.1406,-5.1406,-5.1406,-5.0586,-4.9258,-5.0742,-5.0566,-4.9297,-5.0781,-5.1406,-5.1406,-5.1387,-5.1257,-5.1057,-5.0604,-5.0471,-5.0414,-4.9452,0.0,0.0,-4.7391,-4.6814,-4.6602,-4.5834,-4.4032,-4.2232,-4.2228,-4.0603,-3.9382,-4.1635,-4.223,-4.2769,-4.4934,-4.5451,-4.522,-4.4339,-4.2401,-4.1212,-4.2667,-4.1143,-4.0258,-4.2431,-4.1104,-3.8931,-3.6584,-3.6219,-3.618,-3.6084,-3.8012,-3.94,-3.94,0.0,0.0,-4.1738,-3.8348,-3.7243,-3.9606,-3.7037,-3.5412,-3.5412,-3.5412,-3.4761,-3.333,-3.3293,-3.4376,-3.656,-3.656,-3.7753,-3.9937,-3.6303,-3.6615,0.0,0.0,0.0,0.0,0.0,0.0,0.0,0.0,0.0,0.0,0.0,0.0,0.0,0.0,0.0,-4.2777,-4.4259,-4.5701,-4.6759,-4.7182,-4.7952,-4.9471,-4.9779,-5.0183,-5.1015,-5.1154,-5.1265,-5.1386,-5.1406,-5.1406,-5.1406,-4.9453,-4.8105,-4.7617,-4.8086,-4.8105,-4.7598,-5.0137,-5.1406,-5.1406,0.0,0.0,-5.1406,-5.1406,-5.1211,-5.0937,-5.1269,-5.1211,-5.0937,-5.1269,-5.1406,-5.1387,-5.1289,-5.1171,-5.0903,-4.9335,-4.9144,-4.9433,-4.7914,-4.7376,-4.7334,-4.7006,-4.6429,-4.5815,-4.5643,-4.5259,0.0,-4.4871,-4.4518,-4.4234,-4.475,-4.4882,-4.4818,-4.4607,-4.4549,-4.432,-4.3515,-4.2951,-4.2483,-4.2126,-4.1646,-4.1258,-4.1027,-4.1758,-4.197,-4.0758,-4.0585,-4.0335,-3.9623,-3.9785,-3.9947,-3.9947,-3.8287,-3.7857,-3.953,-3.7199,-3.6581,-3.8793,-3.834,-3.7991,-3.7991,-3.7991,-3.7845,-3.7533,-3.7533,-3.7771,-3.8248,-3.8248,-3.9148,-4.0855,-4.0065,-4.0469,0.0,0.0,0.0,0.0,0.0,0.0,0.0,0.0,0.0,0.0,0.0,-4.0008,-4.0431,0.0,-4.2085,-4.2951,-4.3797,-4.4778,-4.6067,-4.624,-4.6874,-4.8548,-4.9195,-4.9756,-5.0403,-5.0875,-5.121,-5.1386,-5.1406,-5.1406,-5.1406,-5.0195,-4.8926,-4.7637,-4.8848,-4.8887,-4.7617,-5.0137,-5.1406,-5.1406,-5.1406,-5.1406,-5.1406,-5.1406,-5.1406,-5.1406,-5.1406,-5.1406,-5.1406,-5.1406,-5.1406,-5.1387,-5.125,-5.1152,-5.0931,-4.9466,-4.9144,-4.9163,-4.7472,-4.6894,-4.6814,-4.639,-4.595,-4.5586,-4.5586,-4.4722,-4.3703,-4.3713,-4.2782,-4.1981,-4.284,-4.3057,-4.3152,-4.3611,-4.3703,-4.3467,-4.2643,-4.2444,-4.219,-4.1316,-4.1162,-4.1008,-4.0566,-4.1219,-4.1643,-4.12,-4.1143,-4.0989,-4.0546,-4.0269,-4.0101,-4.0101,-3.8572,-3.7959,-3.9014,-3.7858,-3.7552,-3.8615,-3.8707,-3.8707,-3.8707,-3.8707,-3.8707,-3.8707,-3.8707,-3.8707,-3.8707,-3.8707,-3.9331,-4.0506,-4.0506,-4.1368,0.0,0.0,0.0,0.0,0.0,0.0,0.0,0.0,-3.8854,-3.9219,-3.9815,-4.0469,-4.1123,-4.1373,-4.195,-4.3355,-4.3585,-4.4066,-4.5413,-4.5586,-4.6086,-4.7451,-4.8375,-4.9148,-4.972,-5.0422,-5.0984,-5.1343,-5.1386,-5.1406,-5.1406,-5.1406,-5.0469,-4.8398,-5.0332,-5.041,-4.8359,-5.0371,-5.1406,-5.1406,-5.1406,-5.1406,-5.1406,-5.1406,-5.1406,-5.1406,-5.1406,-5.1406,-5.1406,-5.1406,-5.1308,-5.1152,-5.1016,-5.0816,-5.0513,-4.9846,-4.9317,-4.8721,-4.7372,-4.6775,-4.6525,-4.5834,-4.5586,-4.5586,-4.5586,-4.4166,-4.2501,-4.233,-4.0801,-3.9484,-4.0705,-4.1008,-4.1313,-4.2554,-4.2852,-4.2611,-4.1748,-4.154,-4.1347,-4.0639,-4.0489,-4.0489,-4.0489,-4.0489,-4.0489,-4.0489,-4.0489,-4.0489,-4.0489,-4.0321,-4.0177,-4.0177,-3.9645,-3.9238,-3.9125,-3.8855,-3.8707,-3.8707,-3.8707,-3.8707,-3.8707,-3.8707,-3.8707,-3.8707,-3.8707,-3.8707,-3.8707,-3.8707,-3.9111,-3.99,-3.99,-4.102,-3.375,-3.1774,-3.0977,-3.2489,-3.4085,-3.5334,0.0,0.0,-4.0989,-3.9585,-4.1662,-4.3758,-4.3855,-4.4509,-4.5086,-4.5278,-4.5316,-4.5374,-4.5566,-4.5586,-4.5663,-4.5855,-4.6644,-4.7827,-4.9451,-4.9826,-5.0299,-5.1167,-5.1322,-5.1406,-5.1406,-5.1406,-5.1269,-5.0976,-5.125,-5.1269,-5.0976,-5.1269,-5.1406,-5.1406,-5.1406,-5.1406,-5.1406,-5.1406,-5.1406,-5.1406,-5.1406,-5.1406,-5.1406,-5.1406,-5.0976,-5.0312,-5.0195,-4.9581,-4.8868,-4.9413,-4.8567,-4.7141,-4.6968,-4.639,-4.5738,-4.5624,-4.5586,-4.5586,-4.5586,-4.5393,-4.501,-4.4243,-4.3822,-4.3476,-4.296,-4.2799,-4.2653,-4.2079,-4.1959,-4.1709,-4.0831,-4.0658,-4.062,-4.0508,-4.0489,-4.0489,-4.0489,-4.0489,-4.0489,-4.0489,-4.0489,-4.0489,-4.0489,-4.0473,-4.0457,-4.0457,-4.0195,-3.9754,-3.9133,-3.8855,-3.8707,-3.8707,-3.8707,-3.8707,-3.8707,-3.8707,-3.8707,-3.8707,-3.8707,-3.8707,-3.8707,-3.8707,-3.9111,-3.99,-3.99,-4.0432,-3.3786,-3.3734,-3.4207,-3.4279,-3.6001,-3.7713,-3.761,-3.9121,-4.05,-4.048,-4.1456,-4.2656,-4.3809,-4.3522,-4.358,0.0,-4.465,-4.4487,-4.5451,-4.5586,-4.5586,-4.5586,-4.4608,-4.4636,-4.6455,-4.847,-4.9479,-4.902,-5.0406,-5.132,-5.1406,-5.1406,-5.1406,-5.1406,-5.1406,-5.1406,-5.1406,-5.1406,-5.1406,-5.1406,-5.1406,-5.1152,-5.0703,-5.0703,-5.043,-4.9941,-4.9941,-4.9941,-4.9941,-4.9941,-4.9746,-4.9433,-4.9297,-4.869,-4.7893,-4.8066,-4.7622,-4.6814,-4.6333,-4.5911,-4.5586,-4.5586,-4.5586,-4.5509,-4.4991,-4.4837,-4.4664,-4.3841,-4.3588,-4.3407,-4.2547,-4.2348,-4.2113,-4.1251,-4.1024,-4.0927,-4.0581,-4.0489,-4.0489,-4.0489,-4.0489,-4.0489,-4.0489,-4.0489,-4.0489,-4.0489,-4.0489,-4.0489,-4.0489,-4.0354,-4.0194,-4.0004,-3.9702,-3.9389,-3.9107,-3.8855,-3.8707,-3.8707,-3.8707,-3.8707,-3.8707,-3.8707,-3.8707,-3.8707,-3.8707,-3.8707,-3.8707,-3.8707,-3.8872,-3.9203,-3.9203,-3.9386,-3.3847,-3.4734,-3.5738,-3.5805,-3.7328,-3.8869,-3.917,-3.9432,-3.9838,-4.0663,-4.0877,-4.1316,-4.2734,-4.246,-4.2616,-4.4465,-4.4231,-4.4198,-4.543,-4.5586,-4.5336,-4.4645,-4.2921,-4.1857,-4.2015,-4.5756,-4.8244,-4.8366,-5.0118,-5.1238,-5.1347,-5.1387,-5.1406,-5.1406,-5.1406,-5.1289,-5.1074,-5.1074,-5.0957,-5.0703,-5.0703,-5.041,-4.9844,-4.9844,-4.9492,-4.8906,-4.8906,-4.8906,-4.8906,-4.8906,-4.8769,-4.8535,-4.8398,-4.7811,-4.703,-4.6816,-4.668,-4.6506,-4.5834,-4.5586,-4.5586,-4.5586,-4.5432,-4.5124,-4.4474,-4.4145,-4.3797,-4.2975,-4.2736,-4.2533,-4.1671,-4.1443,-4.1289,-4.0658,-4.0489,-4.0489,-4.0489,-4.0489,-4.0489,-4.0489,-4.0489,-4.0489,-4.0489,-4.0489,-4.0489,-4.0489,-4.0489,-4.0489,-4.0489,-4.0277,-3.9953,-3.9524,-3.9251,-3.9081,-3.898,-3.8833,-3.8707,-3.8707,-3.8707,-3.8707,-3.8707,-3.8707,-3.8707,-3.8707,-3.8707,-3.8707,-3.8707,-3.8707,-3.8707,-3.8707,-3.8707,-3.8707,-3.391,-3.3148,-3.2709,-3.5882,-3.6721,-3.7287,-3.9171,-3.9599,-3.9599,-3.9641,-4.0321,-4.0929,-4.0967,-4.2534,-4.3847,-4.3904,-4.4825,-4.5528,-4.5586,-4.5586,-4.4684,-4.2215,-4.1852,-4.0219,0.0,-4.1166,-4.6362,-5.049,-5.1043,-5.1191,-5.1211,-5.1328,-5.1406,-5.1406,-5.1406,-5.1035,-5.0234,-5.0234,-4.9805,-4.8984,-4.8984,-4.8965,-4.8945,-4.8945,-4.8926,-4.8906,-4.8906,-4.8906,-4.8906,-4.8906,-4.8398,-4.7637,-4.748,-4.6914,-4.6113,-4.5917,-4.5842,-4.5815,-4.5643,-4.5586,-4.5586,-4.5586,-4.503,-4.432,-4.4301,-4.3756,-4.2973,-4.2075,-4.1844,-4.1651,-4.0773,-4.0543,-4.0543,-4.0508,-4.0489,-4.0489,-4.0489,-4.0489,-4.0489,-4.0489,-4.0489,-4.0489,-4.0489,-4.0489,-4.0489,-4.0489,-4.0489,-4.0489,-4.0489,-4.0277,-3.984,-3.92,-3.91,-3.8978,-3.8725,-3.8707,-3.8707,-3.8707,-3.8707,-3.8707,-3.8707,-3.8707,-3.8707,-3.8707,-3.8707,-3.8707,-3.8707,-3.8707,-3.8707,-3.8707,-3.8707,-3.8707,-3.1893,-3.3151,-3.4905,-3.5449,-3.6814,-3.8208,-3.884,-3.8998,-3.9045,-3.9231,-3.8063,-3.7206,-3.797,-3.7384,-3.7487,-3.9645,-3.9713,-4.0666,-4.4013,-4.2215,-4.1487,-4.4032,-4.1343,0.0,0.0,0.0,0.0,-4.4953,-4.8735,-5.1044,-5.1132,-5.1172,-5.0976,-5.0488,-5.0469,-5.0117,-4.9336,-4.9336,-4.9199,-4.8887,-4.8301,-4.8047,-4.8027,-4.7441,-4.7168,-4.7168,-4.7168,-4.7168,-4.7168,-4.7168,-4.6992,-4.6738,-4.6699,-4.6484,-4.6211,-4.6055,-4.5597,-4.5124,-4.547,-4.522,-4.4741,-4.4741,-4.4186,-4.34,-4.2816,-4.2444,-4.2056,-4.1193,-4.0927,-4.087,-4.0581,-4.0489,-4.0489,-4.0489,-4.0489,-4.0489,-4.0489,-4.0489,-4.0489,-4.0489,-4.0489,-4.0489,-4.0489,-4.0065,-3.9512,-3.8923,-3.9781,-4.0489,-4.0489,-4.0257,-4.0012,-3.9796,-3.9357,-3.9062,-3.8957,-3.8802,-3.8707,-3.8707,-3.8707,-3.8707,-3.8707,-3.8707,-3.8707,-3.8707,-3.8707,-3.8707,-3.8707,-3.8707,-3.8707,-3.8707,-3.8707,-3.8707,-3.2446,-3.4022,-3.5805,-3.6216,-3.7375,-3.8465,-3.8676,-3.8707,-3.8732,-3.8923,-3.7542,-3.6285,-3.6111,-3.5192,-3.5144,-3.7248,-3.7573,-3.9064,-4.3307,-4.1956,-4.1464,-4.3952,-4.1345,-4.0505,0.0,0.0,0.0,-4.3325,-4.6589,-4.879,-4.9184,-4.8957,-4.9016,-4.9452,-4.9461,-4.9082,-4.8301,-4.8281,-4.8164,-4.7891,-4.7383,-4.7148,-4.7129,-4.6562,-4.5781,-4.4961,-4.5898,-4.5762,-4.498,-4.5918,-4.6308,-4.6269,-4.5957,-4.584,-4.5781,-4.5351,-4.4831,-4.4393,-4.4993,-4.4626,-4.3878,-4.3874,-4.3316,-4.253,-4.1963,-4.1578,-4.1232,-4.0658,-4.0489,-4.0489,-4.0489,-4.0489,-4.0489,-4.0489,-4.0489,-4.0489,-4.0489,-4.0489,-4.0412,-4.0142,-4.0085,-3.9954,-3.9665,-3.9181,-3.8642,-3.8089,-3.8926,-3.9561,-3.9454,-3.9288,-3.9125,-3.9038,-3.8563,-3.8238,-3.8238,-3.7985,-3.7827,-3.7851,-3.7851,-3.7833,-3.7845,-3.7845,-3.7845,-3.7845,-3.7845,-3.7973,-3.8267,-3.8267,-3.8414,-3.8707,-3.8707,-3.8707,-3.5162,-3.5495,-3.5456,-3.8,-3.8267,-3.8032,-3.8496,-3.8658,-3.867,-3.8511,-3.8383,-3.7589,0.0,0.0,-3.6233,-3.6472,-3.8053,-4.0259,-4.3188,-4.4238,-4.3978,0.0,0.0,0.0,0.0,0.0,0.0,-4.5362,0.0,-4.5055,-4.588,-4.5247,-4.5956,-4.8356,-4.8417,-4.8006,-4.7147,-4.7147,-4.6796,-4.6094,-4.623,-4.6308,-4.6308,-4.6308,-4.4941,-4.2734,-4.5176,-4.4824,-4.2715,-4.5156,-4.6172,-4.6074,-4.5254,-4.4922,-4.4824,-4.3926,-4.3574,-4.3626,-4.4189,-4.3797,-4.3035,-4.3038,-4.2437,-4.1728,-4.1728,-4.1174,-4.0489,-4.0489,-4.0489,-4.0489,-4.0489,-4.0489,-4.0489,-4.0489,-4.0489,-4.0489,-4.045,-4.0431,-4.02,-3.9381,-3.9227,-3.8958,-3.8082,-3.7945,-3.7924,-3.7872,-3.7872,-3.7786,-3.7563,-3.751,-3.7376,-3.7124,-3.6856,-3.6668,-3.6681,-3.645,-3.6298,-3.6289,-3.6289,-3.63,-3.6285,-3.6285,-3.6285,-3.6303,-3.6303,-3.667,-3.7452,-3.7452,-3.7826,-3.8579,-3.8579,-3.8579,-3.3496,-3.4994,-3.6751,-3.7417,-3.7738,-3.7825,-3.7632,-3.8168,-3.8083,-3.5864,-3.4262,-3.2529,0.0,0.0,0.0,-3.2191,-3.2866,0.0,-3.8894,-3.9463,0.0,-4.1338,-4.1673,-4.2291,-4.3553,-4.4435,0.0,0.0,-4.588,-4.7274,-4.7486,-4.7339,-4.7277,-4.7373,-4.7371,-4.7004,-4.6235,-4.6332,-4.6297,-4.6094,-4.623,-4.6308,-4.6308,-4.6308,-4.5937,-4.5312,-4.5312,-4.4941,-4.4336,-4.4355,-4.4355,-4.4336,-4.4121,-4.4023,-4.4004,-4.3769,-4.3223,-4.2656,-4.2802,-4.2607,-4.2271,-4.2152,-4.154,-4.0831,-4.0831,-4.0677,-4.0489,-4.0489,-4.0489,-4.0489,-4.0489,-4.0489,-4.0489,-4.0489,-4.0489,-4.0335,-3.9742,-3.9608,-3.9342,-3.8485,-3.8334,-3.8036,-3.7194,-3.7035,-3.6824,-3.6232,-3.6136,-3.6559,-3.7728,-3.7483,-3.7183,-3.7106,-3.6671,-3.6398,-3.6399,-3.6334,-3.6307,-3.6316,-3.6305,-3.6285,-3.6315,-3.6315,-3.6305,-3.6303,-3.6303,-3.6395,-3.6597,-3.6597,-3.6707,-3.6909,-3.6909,-3.6909,-3.4535,-3.551,-3.6603,-3.7058,-3.721,-3.7053,-3.6361,-3.6494,-3.6072,-3.362,-3.2192,-3.0604,-2.8058,-2.6585,-2.7004,0.0,0.0,0.0,-3.7374,-3.8156,-3.9033,0.0,-4.1526,0.0,-4.5336,-4.5586,-4.522,0.0,-4.49,-4.5495,-4.5882,-4.5536,-4.5643,-4.6371,-4.639,-4.618,-4.5776,-4.5911,-4.598,-4.6016,-4.5762,-4.5664,-4.5723,-4.5332,-4.4551,-4.3535,0.0,-4.3808,-4.2812,-4.3437,-4.3691,-4.3652,-4.3281,-4.3125,-4.3086,-4.2734,-4.2266,-4.1816,-4.1753,-4.1661,-4.1529,-4.1374,-4.0947,-4.0489,-4.0489,-4.0489,-4.0489,-4.0489,-4.0489,-4.0489,-4.0489,-4.0489,-4.0412,-4.0065,-3.9954,-3.9742,-3.8904,-3.8723,-3.8469,-3.7608,-3.7156,-3.6747,-3.6252,-3.6175,-3.6021,-3.5584,-3.5493,-3.5834,-3.6785,-3.6496,-3.6232,-3.6217,-3.5723,-3.5383,-3.5391,-3.5256,-3.52,-3.52,-3.5202,-3.5211,-3.5202,-3.5202,-3.5193,-3.5202,-3.5202,-3.5385,-3.5734,-3.5734,-3.5936,-3.6303,-3.6303,-3.6303,-3.625,-3.6177,-3.581,-3.6764,-3.6684,-3.6134,-3.5201,-3.4617,-3.3683,-3.1702,-3.1046,-3.007,-2.7729,-2.7549,-2.8549,-3.0995,0.0,-3.3629,-3.6548,-3.8257,-3.9602,-4.0654,-4.1128,-4.2482,-4.5259,-4.5278,-4.524,-4.5566,-4.3553,-4.2635,-4.3382,-4.2712,-4.3305,-4.5528,-4.5507,-4.543,-4.543,-4.5449,-4.5479,-4.5536,-4.4921,-4.4707,-4.4785,-4.4043,-4.248,-4.0527,-4.2617,-4.2266,-4.0391,-4.25,-4.3379,-4.3281,-4.2539,-4.2246,-4.2168,-4.1465,-4.1191,-4.1171,-4.1077,-4.1004,-4.0965,-4.0773,-4.0622,-4.0515,-4.0523,-4.0508,-4.0489,-4.0489,-4.0489,-4.0469,-4.0369,-4.035,-4.0142,-3.9319,-3.9127,-3.8881,-3.802,-3.7738,-3.7448,-3.6689,-3.5982,-3.5493,-3.5493,-3.5493,-3.5493,-3.5493,-3.5493,-3.5493,-3.5493,-3.5262,-3.5088,-3.511,-3.4586,-3.4265,-3.4265,-3.4054,-3.388,-3.3844,-3.3844,-3.3844,-3.3807,-3.3807,-3.3807,-3.3807,-3.3807,-3.4137,-3.4825,-3.4825,-3.5238,-3.5973,-3.5973,-3.5973,-3.4269,-3.4788,-3.565,-3.581,-3.6139,-3.6222,-3.5643,-3.4638,0.0,-3.0366,-2.8623,-2.7543,-2.7349,-2.735,-2.8253,-3.0959,-3.2093,-3.2353,-3.1667,-3.5972,-3.8803,0.0,-3.9795,-4.233,-4.4934,-4.3534,0.0,0.0,-4.5201,-4.501,-4.5163,-4.501,-4.5143,-4.5586,-4.4891,-4.4542,-4.4542,-4.3948,-4.3667,-4.3678,-4.3763,-4.3828,-4.3848,-4.373,-4.3457,-4.3027,-4.2754,0.0,-4.1953,-4.1738,-4.1621,-4.1621,-4.1465,-4.1406,-4.1387,-4.125,-4.1191,-4.1191,-4.1171,-4.1086,-4.0976,-4.084,-4.0732,-4.0672,-4.066,-4.06,-4.0489,-4.0489,-4.0489,-4.035,-3.9677,-3.9518,-3.9287,-3.843,-3.8229,-3.7993,-3.7098,-3.6406,-3.5892,-3.5738,-3.5603,-3.5493,-3.5493,-3.5493,-3.5493,-3.5493,-3.5493,-3.5493,-3.5493,-3.5262,-3.5088,-3.511,-3.4797,-3.4604,-3.4604,-3.4567,-3.4439,-3.4154,-3.4109,-3.4036,-3.3807,-3.3807,-3.3807,-3.3807,-3.3807,-3.3862,-3.4009,-3.4009,-3.4082,-3.4229,-3.4229,-3.4229,-3.3812,-3.4489,-3.5622,-3.5622,-3.5766,-3.5531,-3.3702,0.0,0.0,-2.7497,-2.583,-2.4935,-2.4913,-2.519,-2.668,-3.0509,-3.1621,-3.2299,-3.3229,-3.6227,-3.8265,-3.8061,-3.9686,-4.1377,-4.2776,-4.2069,-4.2061,-4.3305,-4.3113,-4.3726,-4.549,-4.5163,-4.472,-4.4316,-4.3891,-4.3679,-4.3679,-4.3316,-4.3169,-4.3197,-4.2905,-4.2817,-4.2912,-4.2498,-4.2324,-4.2383,-4.1953,-4.0996,-3.9824,-4.0801,-4.0391,-3.9316,-4.0664,-4.1191,-4.1191,-4.1191,-4.1191,-4.1191,-4.1191,-4.1151,-4.1082,-4.1026,-4.0896,-4.0752,-4.07,-4.0654,-4.0505,-4.0,-3.9873,-3.9681,-3.8849,-3.8618,-3.8407,-3.7546,-3.7002,-3.6573,-3.6175,-3.5776,-3.5493,-3.5493,-3.5493,-3.5493,-3.5493,-3.5493,-3.5493,-3.5493,-3.5109,-3.4826,-3.4826,-3.4332,-3.4205,-3.4812,-3.462,-3.4204,-3.3654,-3.3617,-3.3352,-3.2785,-3.2754,-3.2684,-3.2547,-3.2547,-3.2547,-3.2547,-3.2554,-3.2543,-3.2543,-3.2559,-3.254,-3.254,-3.254,-3.2779,-3.4117,-3.4742,-3.5622,-3.5622,-3.5622,-3.4928,-3.2273,-3.0571,0.0,-2.5588,-2.404,-2.329,-2.345,-2.3925,-2.5739,0.0,-3.0688,-3.1688,-3.5036,-3.6199,-3.7285,-3.8909,-3.9835,0.0,-4.149,-4.1338,0.0,-4.1876,-4.1385,-4.223,-4.4913,-4.4412,-4.3758,-4.3124,-4.2912,-4.2816,-4.2816,-4.2643,-4.2583,-4.2621,-4.2005,-4.1791,-4.1941,-4.1294,-4.1055,-4.1152,-4.1191,-3.9726,0.0,-4.0117,-3.9668,-3.7559,-4.0176,-4.1191,-4.1191,-4.1191,-4.1074,-4.0918,-4.0918,-4.0801,-4.0644,-4.0644,-4.062,-4.0556,-4.048,-4.0319,-3.999,-3.9239,-3.9008,-3.8815,-3.795,-3.7719,-3.7507,-3.6647,-3.5955,-3.5493,-3.5493,-3.5493,-3.5493,-3.5493,-3.5493,-3.5435,-3.5243,-3.5224,-3.5166,-3.496,-3.437,-3.3915,-3.3922,-3.3313,-3.3237,-3.4128,-3.4033,-3.3584,-3.2752,-3.2651,-3.2362,-3.1683,-3.16,-3.1542,-3.1488,-3.1433,-3.1389,-3.1389,-3.1419,-3.1407,-3.14,-3.1396,-3.1384,-3.1384,-3.1384,-3.1733,-3.5081,-3.552,-3.5622,-3.5622,-3.5622,-3.5199,-3.3575,0.0,-2.9367,-2.6979,-2.4842,-2.3944,-2.5721,-2.61,-2.7181,-3.0387,0.0,-2.89,-3.2439,-3.3635,-3.5294,-3.8393,0.0,0.0,-4.3504,-4.1972,-4.1609,-4.3428,-4.3125,-4.2983,-4.3299,-4.3258,-4.3181,-4.3104,-4.2335,-4.1931,-4.1931,-4.1123,-4.0735,-4.0746,-4.0796,-4.0827,-4.0844,-4.0944,-4.1016,-4.1035,-4.1152,-3.9726,0.0,-4.0117,-3.9668,-3.7559,-4.0176,-4.1191,-4.1191,-4.1191,-4.0703,-4.0019,-4.0019,-3.9492,-3.8848,-3.8848,-3.9287,-3.9784,-3.9714,-3.9063,-3.8315,-3.8161,-3.8123,-3.7911,-3.7046,-3.6815,-3.6622,-3.5801,-3.5551,-3.5493,-3.5493,-3.5493,-3.5493,-3.5493,-3.5493,-3.5243,-3.4466,-3.4332,-3.4049,-3.3254,-3.3081,-3.3012,-3.3017,-3.294,-3.2844,-3.2728,-3.2878,-3.2985,-3.2893,-3.285,-3.2754,-3.2411,-3.2224,-3.2019,-3.1755,-3.1528,-3.1399,-3.1399,-3.1396,-3.1397,-3.1403,-3.1403,-3.1384,-3.1384,-3.1384,-3.1439,-3.3034,-3.4269,-3.5622,-3.5622,-3.5622,-3.4996,-3.2611,0.0,-2.8653,-2.593,-2.3968,-2.2977,-2.3767,-2.4053,-2.5094,-2.7957,0.0,0.0,-3.3406,-3.477,-3.6336,-3.9077,-4.063,0.0,0.0,0.0,-3.9802,-3.9995,-3.9903,-4.0338,-4.147,-4.2027,-4.2085,-4.1546,-4.12,-4.1008,-4.1008,-4.0662,-4.0489,-4.0504,-4.0535,-4.0612,-4.0712,-4.0776,-4.0889,-4.0996,-4.1055,-3.875,0.0,-3.9473,-3.873,-3.5312,-3.8984,-4.043,-4.0351,-3.9824,-3.9414,-3.9121,-3.9121,-3.8887,-3.8594,-3.8594,-3.8436,-3.8327,-3.8708,-3.8541,-3.8093,-3.7417,-3.7219,-3.7026,-3.6199,-3.5988,-3.5911,-3.5584,-3.5493,-3.5493,-3.5493,-3.5089,-3.473,-3.473,-3.4293,-3.3819,-3.3478,-3.3417,-3.3301,-3.2961,-3.2487,-3.2179,-3.2177,-3.1715,-3.1357,-3.1261,-3.2088,-3.2351,-3.1578,-3.1531,-3.1184,-3.0449,-3.0319,-3.0245,-3.0111,-3.001,-2.9955,-2.9955,-2.9945,-2.9958,-2.9971,-2.9971,-2.9971,-2.9971,-2.9971,-3.021,-3.2002,-3.3694,-3.5622,-3.5622,-3.5284,-3.4303,0.0,0.0,-2.7841,-2.5082,-2.3494,-2.2564,-2.2344,-2.2436,-2.3476,0.0,0.0,-2.8714,-3.3156,-3.461,-3.61,-3.8561,0.0,-4.0261,-3.8737,-3.9073,-3.909,-3.8378,-3.83,-3.8846,-4.0162,-4.0912,-4.1046,-4.0508,-4.0489,-4.0489,-4.0489,-4.0489,-4.0489,-4.0489,-4.0489,-4.0162,-3.955,-4.0335,-4.0355,-3.9833,-4.0659,-3.8398,0.0,-3.8964,-3.8047,-3.418,-3.8008,-3.9512,-3.9434,-3.8828,-3.8437,-3.8223,-3.8223,-3.8047,-3.7832,-3.7832,-3.7422,-3.6991,-3.7454,-3.7553,-3.7366,-3.6586,-3.6356,-3.6219,-3.5661,-3.5493,-3.5435,-3.5185,-3.5128,-3.5037,-3.4787,-3.4255,-3.3819,-3.382,-3.3327,-3.2833,-3.2589,-3.2557,-3.2459,-3.2208,-3.1677,-3.1318,-3.1318,-3.0775,-3.0398,-3.0398,-3.1299,-3.1511,-3.0621,-3.0538,-3.0236,-2.9467,-2.9353,-2.9303,-2.9301,-2.9242,-2.9218,-2.9206,-2.9206,-2.9206,-2.9206,-2.9206,-2.9206,-2.9206,-2.9206,-2.9502,-3.2983,-3.4489,-3.5622,-3.5622,-3.4506,-3.3034,-3.1529,-2.9448,-2.7199,-2.4949,-2.39,-2.3173,-2.2446,-2.231,-2.3204,-2.5958,-2.664,0.0,-3.0554,-3.1929,-3.3574,0.0,-3.7064,-3.8465,-4.0844,-4.0598,-4.0281,-4.0272,-3.984,0.0,-3.9608,-3.9935,-4.0239,-4.0489,-4.0489,-4.0489,-4.0489,-4.0489,-4.0489,-4.0489,-4.0489,-3.9189,-3.6826,-3.9477,-3.9323,-3.7079,-3.9809,-3.9056,0.0,-3.8805,-3.7851,-3.4941,-3.7598,-3.8613,-3.8613,-3.8594,-3.8047,-3.7305,-3.7305,-3.6758,-3.6035,-3.6035,-3.6016,-3.5995,-3.5935,-3.5821,-3.5702,-3.5631,-3.5558,-3.5512,-3.5493,-3.5493,-3.5282,-3.4428,-3.4216,-3.3972,-3.3119,-3.2914,-3.2916,-3.2921,-3.2914,-3.2644,-3.185,-3.1715,-3.1415,-3.0564,-3.0417,-3.0398,-3.0398,-3.0398,-3.0398,-3.0398,-3.0398,-3.0417,-3.0398,-3.0396,-3.0411,-3.0392,-3.0148,-2.9996,-2.9991,-2.9784,-2.9697,-2.9678,-2.9696,-2.9696,-2.9696,-2.9696,-2.9696,-2.9696,-2.9696,-2.9696,-3.026,-3.1461,-3.2594,-3.2594,-3.2239,-3.1512,-3.0023,-2.8315,-2.6556,-2.4862,-2.3511,-2.2581,-2.2344,-2.231,-2.3164,-2.5754,-2.626,0.0,0.0,0.0,0.0,-3.7615,-3.8169,-3.8841,0.0,0.0,-3.7459,-3.9351,-3.7798,-3.7627,-3.95,-3.9713,-3.9894,-4.0223,-4.0392,-4.0489,-4.0489,-4.0489,-4.0489,-4.0489,-4.0489,-3.9169,-3.6788,-3.9387,-3.8897,-3.6159,-3.8767,0.0,0.0,-3.7734,-3.7168,-3.4824,-3.6855,-3.7676,-3.7637,-3.7031,-3.6641,-3.6406,-3.6406,-3.623,-3.5996,-3.5996,-3.5996,-3.5996,-3.5974,-3.5916,-3.5797,-3.5646,-3.5543,-3.5359,-3.4768,-3.4601,-3.4389,-3.3517,-3.332,-3.3243,-3.2954,-3.248,-3.2083,-3.2081,-3.1588,-3.1114,-3.0864,-3.0814,-3.0717,-3.0448,-3.0398,-3.0398,-3.0398,-3.0398,-3.0398,-3.0398,-3.0398,-3.0321,-3.0148,-3.0128,-3.0057,-2.9924,-2.9848,-2.9791,-2.9791,-2.9718,-2.9637,-2.9507,-2.9631,-2.9627,-2.9494,-2.9625,-2.9696,-2.9696,-2.9696,-2.9696,0.0,-3.0074,-3.119,-3.119,-3.0768,0.0,-2.9231,-2.7588,-2.5947,-2.476,-2.4205,-2.363,-2.2513,-2.2987,-2.3791,-2.4555,-2.623,-2.8416,0.0,0.0,-3.3691,-3.5715,-3.6762,0.0,0.0,-3.7613,-3.7131,-3.8817,-3.7546,-3.7454,-3.9173,-3.9357,-3.9519,-3.9724,-4.0132,-4.0392,-4.0489,-4.0489,-4.0489,-4.0489,-4.0489,-3.9,-3.6332,-3.8899,-3.8226,-3.5212,0.0,0.0,0.0,-3.7136,-3.6719,-3.514,-3.6268,-3.6738,-3.6719,-3.6191,-3.5996,-3.5996,-3.5996,-3.5996,-3.5996,-3.5996,-3.5781,-3.5508,-3.5508,-3.5458,-3.5378,-3.5234,-3.4885,-3.4428,-3.3895,-3.3728,-3.3511,-3.2647,-3.2461,-3.2362,-3.2023,-3.1549,-3.121,-3.121,-3.0775,-3.0398,-3.0398,-3.0398,-3.0398,-3.0398,-3.0398,-3.0398,-3.0398,-3.0398,-3.0398,-3.0398,-3.0398,-3.0321,-3.0167,-3.0148,-3.011,-2.9963,-2.9963,-2.9963,-2.9963,-2.9963,-2.9915,-2.9772,-2.9899,-2.9912,-2.9786,-2.9899,-2.9958,-2.9958,-2.9958,-2.9958,0.0,-2.982,-3.0869,-3.0869,-2.9837,-2.8822,-2.8822,-2.7148,0.0,-2.4831,-2.5778,-2.5862,-2.3122,-2.4391,-2.5135,-2.297,-2.6564,-2.9019,-2.7262,-2.9296,-3.1046,-3.1267,-3.364,0.0,-3.8132,-3.8548,-3.8707,-3.8707,-3.8707,-3.8707,-3.8707,-3.894,-3.9068,-3.9087,-3.9702,-4.0175,-4.0469,-4.0489,-4.0354,-4.0065,-4.0296,-3.8524,-3.5136,-3.7916,-3.7351,0.0,0.0,0.0,0.0,-3.6861,-3.6409,-3.5703,-3.584,-3.5898,-3.5918,-3.5976,-3.5996,-3.5996,-3.5996,-3.5957,-3.5898,-3.584,-3.5273,-3.4609,-3.4609,-3.4558,-3.45,-3.4422,-3.373,-3.3004,-3.2947,-3.287,-3.2615,-3.1807,-3.1607,-3.1395,-3.0583,-3.0398,-3.0398,-3.0398,-3.0398,-3.0398,-3.0398,-3.0398,-3.0398,-3.0398,-3.0398,-3.0398,-3.0398,-3.0398,-3.0398,-3.0398,-3.0398,-3.0398,-3.0398,-3.0398,-3.0398,-3.0398,-3.0398,-3.0398,-3.0398,-3.0398,-3.0398,-3.0367,-3.0377,-3.0358,-3.0302,-3.0302,-3.0283,-3.0206,-3.0206,-3.0206,-2.7233,0.0,-2.7757,-2.7757,-2.7486,-2.7232,0.0,-2.6387,-2.5879,-2.6843,0.0,-2.6488,-2.5795,-2.7046,-2.7638,-2.593,-2.7641,-2.911,-2.9036,-3.1709,-3.2827,-3.0464,-3.472,-3.7009,-3.4914,-3.715,-3.8707,-3.8707,-3.8707,-3.8707,-3.8707,-3.8762,-3.8903,-3.9087,-3.9239,-3.9614,-4.0185,-4.0392,-3.8885,-3.5707,-3.8331,-3.6427,-3.0773,-3.5944,-3.6446,0.0,0.0,0.0,-3.5834,-3.5849,-3.5758,-3.5635,-3.5704,-3.5807,-3.5918,-3.5976,-3.5996,-3.5996,-3.5996,-3.5566,-3.4902,-3.4238,-3.3867,-3.3711,-3.3711,-3.3652,-3.3607,-3.3587,-3.3378,-3.2999,-3.2333,-3.2153,-3.1922,-3.1056,-3.0864,-3.0794,-3.0525,-3.0487,-3.0467,-3.0398,-3.0398,-3.0398,-3.0398,-3.0398,-3.0398,-3.0398,-3.0398,-3.0398,-3.0398,-3.0398,-3.0398,-3.0398,-3.0398,-3.0398,-3.0398,-3.0398,-3.0398,-3.0398,-3.0398,-3.0398,-3.0398,-3.0398,-3.0305,-3.0109,-3.0102,-2.9865,-2.941,-2.941,-2.9083,-2.8486,-2.8486,-2.8486,-2.6758,-2.6454,-2.6454,-2.7486,-2.6962,-2.6471,-2.7503,0.0,0.0,0.0,0.0,0.0,-2.6319,-2.7148,-2.7554,-2.6387,-2.6894,-2.793,-2.935,-3.131,-3.1881,-2.9896,-3.2903,-3.472,0.0,-3.6705,-3.8707,-3.8707,-3.8707,-3.8707,-3.8707,-3.8707,-3.8762,-3.8921,-3.8689,-3.8794,-3.9323,-3.9458,-3.7475,-3.3452,-3.6877,-3.563,-3.0452,-3.5235,-3.6194,0.0,0.0,0.0,-3.5397,-3.4255,-3.4466,-3.5565,-3.5641,-3.5721,-3.5762,-3.5469,-3.5371,-3.5351,-3.4941,-3.4492,-3.4023,-3.3555,-3.3144,-3.2851,-3.2851,-3.2539,-3.2285,-3.2676,-3.244,-3.1933,-3.1475,-3.1326,-3.1171,-3.0704,-3.0601,-3.0581,-3.0542,-3.053,-3.0487,-3.0448,-3.0417,-3.0398,-3.0398,-3.0398,-3.0398,-3.0398,-3.0398,-3.0398,-3.0398,-3.0052,-2.9809,-2.9809,-2.9478,-2.925,-2.925,-2.9248,-2.9402,-2.9781,-2.98,-2.9635,-2.9275,-2.9256,-2.9178,-2.9046,-2.9053,-2.8874,-2.8544,-2.8544,-2.8332,-2.789,-2.789,-2.789,-2.6725,-2.6082,-2.6015,-2.8383,-2.7368,-2.6336,-2.8501,0.0,0.0,0.0,0.0,0.0,0.0,-2.7266,0.0,0.0,-2.5981,-2.6893,-2.9093,-3.0117,-3.0322,-2.9423,-3.0805,0.0,-3.3414,-3.6581,-3.8578,-3.8578,-3.8658,-3.8707,-3.8707,-3.8579,-3.8536,-3.8536,-3.7949,-3.7731,-3.7882,-3.8091,-3.6226,-3.2364,-3.5766,-3.5327,-3.1626,-3.4979,-3.6136,-3.5378,0.0,0.0,-3.5329,-3.3171,-3.3555,-3.5474,-3.5416,-3.5445,-3.54,-3.4667,-3.4434,-3.4355,-3.3516,-3.3223,-3.3184,-3.3066,-3.2559,-3.1992,-3.1992,-3.1484,-3.1055,-3.1797,-3.1387,-3.0723,-3.0723,-3.0684,-3.0644,-3.0644,-3.0625,-3.0605,-3.0605,-3.055,-3.049,-3.0479,-3.0448,-3.0398,-3.0398,-3.0283,-3.0206,-3.0206,-3.011,-3.0013,-3.0025,-2.9379,-2.8914,-2.8914,-2.8307,-2.7904,-2.7904,-2.7902,-2.8133,-2.8666,-2.885,-2.8607,-2.7939,-2.789,-2.7901,-2.7911,-2.7901,-2.7832,-2.7698,-2.7698,-2.7621,-2.7505,-2.7505,-2.7505,-2.6774,-2.5693,-2.5387,-2.8283,-2.774,-2.6962,-2.8602,0.0,0.0,0.0,0.0,0.0,0.0,-3.207,-3.256,-2.7368,-2.7621,-2.8694,-2.9317,0.0,-3.162,-2.8824,0.0,-3.519,-3.2442,-3.5719,-3.8013,-3.8013,-3.8446,-3.8707,-3.8707,-3.8033,-3.7687,-3.7687,-3.6938,-3.6224,-3.5516,-3.6758,-3.5404,-3.1538,-3.4897,-3.4417,-3.0724,-3.4126,-3.5622,-3.5474,0.0,-3.5152,-3.5465,-3.5078,-3.5147,-3.5416,-3.4768,-3.4514,-3.4436,-3.3743,-3.3516,-3.3418,-3.2656,-3.2383,-3.2266,-3.1523,-3.1191,-3.1094,-3.1094,-3.1016,-3.0937,-3.1055,-3.0996,-3.0879,-3.0879,-3.0859,-3.0859,-3.0859,-3.0762,-3.0664,-3.0605,-3.0543,-3.0478,-3.0422,-3.0398,-3.0398,-3.0398,-2.979,-2.9286,-2.9286,-2.8718,-2.8269,-2.8279,-2.8173,-2.8077,-2.8077,-2.7971,-2.7904,-2.7904,-2.7894,-2.7634,-2.7026,-2.7681,-2.8027,-2.7909,-2.789,-2.789,-2.7901,-2.789,-2.7544,-2.6794,-2.6794,-2.6428,-2.5687,-2.5687,-2.5687,-2.5545,-2.5023,-2.5309,-2.8755,-2.7537,-2.6522,-3.048,0.0,0.0,0.0,0.0,0.0,0.0,0.0,-3.0176,-2.8247,-3.0531,-3.2178,-3.1117,-3.1948,-3.2008,0.0,0.0,-3.4247,-3.2302,-3.5631,-3.7893,-3.7893,-3.8382,-3.8505,-3.8065,-3.7702,-3.7279,-3.6857,-3.6028,-3.5422,-3.4991,-3.5247,-3.3597,-3.0224,-3.3754,-3.3577,-3.0308,-3.3876,-3.5493,-3.5416,0.0,-3.4238,-3.5353,-3.3513,-3.3555,-3.471,-3.3876,-3.3596,-3.3566,-3.2859,-3.2305,-3.1855,-3.1582,-3.1504,-3.1426,-3.1035,-3.0898,-3.0898,-3.0898,-3.0898,-3.0898,-3.0898,-3.0898,-3.0898,-3.0898,-3.0898,-3.0898,-3.0898,-3.0859,-3.0796,-3.0778,-3.0685,-3.0474,-3.0001,-2.9867,-2.9678,-2.924,-2.8821,-2.8559,-2.8567,-2.8241,-2.8016,-2.8008,-2.76,-2.7284,-2.7258,-2.6831,-2.653,-2.6506,-2.6497,-2.6535,-2.6593,-2.6525,-2.6505,-2.6505,-2.6505,-2.6505,-2.6505,-2.6505,-2.6294,-2.5909,-2.5909,-2.5687,-2.5303,-2.5303,-2.5322,-2.4506,-2.437,-2.5041,-2.8455,0.0,-2.6048,-3.2053,0.0,0.0,0.0,0.0,0.0,0.0,-2.8366,-2.7774,-2.9482,-3.2611,-3.4421,-3.3237,-3.3068,-3.293,-3.2593,-3.3201,-3.3519,-3.3099,-3.5793,-3.7488,-3.731,-3.776,-3.7794,-3.7083,-3.6881,-3.6527,-3.6009,-3.5174,-3.4734,-3.4734,-3.4119,-3.2647,-3.0387,-3.3219,-3.3353,-3.12,-3.4084,-3.5397,-3.5282,-3.319,-3.3396,-3.4988,-3.2146,-3.2127,-3.3807,-3.2954,-3.2571,-3.242,-3.1851,-3.1241,-3.0703,-3.082,-3.0859,-3.0859,-3.0898,-3.0879,-3.0859,-3.0898,-3.0898,-3.0898,-3.0898,-3.0898,-3.0898,-3.0898,-3.0898,-3.0898,-3.0898,-3.0879,-3.0792,-3.0614,-3.0461,-3.0123,-2.934,-2.908,-2.8817,-2.8218,-2.793,-2.7791,-2.7791,-2.7624,-2.7484,-2.7487,-2.6913,-2.6479,-2.6423,-2.5827,-2.5395,-2.5346,-2.5357,-2.5636,-2.6301,-2.5697,-2.5303,-2.5303,-2.5303,-2.5303,-2.5303,-2.5303,-2.5303,-2.5312,-2.5312,-2.533,-2.5357,-2.5357,-2.536,-2.4509,-2.4005,-2.4032,-2.6346,-2.5716,0.0,-3.2053,-2.9364,0.0,-3.2324,0.0,0.0,0.0,-3.0277,-2.9553,-3.1721,-3.2307,-3.3186,-3.5115,0.0,-3.5351,-3.5301,-3.5396,-3.5396,-3.5389,-3.6044,-3.6226,-3.5553,-3.5927,-3.6041,-3.5738,-3.5015,-3.4752,-3.5082,-3.4321,-3.3899,-3.3899,-3.3825,-3.3807,-3.3844,-3.4123,-3.4288,-3.4375,-3.4894,-3.5128,-3.5089,-3.4347,-3.4109,-3.4218,-3.316,-3.2827,-3.2914,-3.21,-3.1345,-3.0691,-3.0629,-3.0646,-3.0703,-3.0703,-3.0703,-3.0723,-3.0859,-3.082,-3.0742,-3.0859,-3.0898,-3.0898,-3.0898,-3.0898,-3.0898,-3.0898,-3.0898,-3.0898,-3.0898,-3.0801,-3.0508,-2.9764,-2.9509,-2.9158,-2.8357,-2.8181,-2.8162,-2.8105,-2.7422,-2.6894,-2.6894,-2.621,-2.5698,-2.5684,-2.5636,-2.5586,-2.56,-2.5522,-2.5484,-2.5498,-2.5498,-2.5517,-2.5576,-2.5398,-2.5303,-2.5303,-2.5303,-2.5303,-2.5303,-2.5303,-2.5321,-2.5391,-2.5398,-2.5428,-2.5498,-2.5498,-2.5498,-2.3122,-2.2924,-2.357,-2.723,-2.5617,0.0,0.0,-2.9736,-2.8467,-3.3711,-3.1376,0.0,0.0,0.0,-3.1348,-3.2178,-3.344,-3.4641,-3.5504,-3.5622,-3.5622,-3.5622,-3.5622,-3.5622,-3.5622,-3.5668,-3.5584,-3.533,-3.5307,-3.5186,-3.4862,-3.4586,-3.434,-3.4257,-3.3972,-3.3807,-3.3807,-3.3807,-3.3844,-3.3962,-3.4109,-3.4268,-3.4364,-3.4164,-3.4036,-3.4001,-3.3277,-3.3053,-3.3133,-3.2261,-3.1992,-3.2073,-3.121,-3.0698,-3.0448,-3.0487,-3.052,-3.0574,-3.0613,-3.0638,-3.0646,-3.0691,-3.0708,-3.0703,-3.0762,-3.082,-3.0898,-3.0898,-3.0508,-3.0215,-3.0762,-3.0508,-3.0098,-3.0098,-2.9648,-2.9121,-2.8828,-2.8711,-2.8437,-2.7578,-2.7422,-2.7246,-2.6699,-2.6328,-2.6113,-2.6113,-2.584,-2.5625,-2.562,-2.5619,-2.5611,-2.5564,-2.5511,-2.5493,-2.5493,-2.5493,-2.5493,-2.5493,-2.5459,-2.5421,-2.5421,-2.5421,-2.5421,-2.5421,-2.5421,-2.5434,-2.5465,-2.5451,-2.5488,-2.5493,-2.5493,-2.5511,-2.257,-2.2474,-2.3209,0.0,0.0,0.0,-3.0785,-2.9805,-2.8822,-3.3592,-3.1867,0.0,-2.7943,0.0,0.0,0.0,-3.3558,-3.481,-3.552,-3.5622,-3.5622,-3.5622,-3.5402,-3.5267,-3.5267,-3.4899,-3.4582,-3.4381,-3.4178,-3.3935,-3.3583,-3.358,-3.3521,-3.339,-3.355,-3.3606,-3.3606,-3.3734,-3.3678,-3.3421,-3.3613,-3.3687,-3.3687,-3.3395,-3.3146,-3.2845,-3.2147,-3.1922,-3.2037,-3.122,-3.1059,-3.1241,-3.0621,-3.0398,-3.0398,-3.0448,-3.0487,-3.051,-3.0546,-3.0576,-3.0571,-3.0593,-3.0618,-3.0641,-3.0667,-3.0556,-3.0424,-3.0449,-2.9824,-2.9297,-2.9922,-2.9648,-2.9199,-2.9199,-2.873,-2.8223,-2.7949,-2.7891,-2.7637,-2.6758,-2.6582,-2.6406,-2.5801,-2.5703,-2.5703,-2.5703,-2.5703,-2.5703,-2.5703,-2.5703,-2.5683,-2.5636,-2.5595,-2.5561,-2.5561,-2.5561,-2.5561,-2.5561,-2.5561,-2.5547,-2.5493,-2.5493,-2.5493,-2.5493,-2.5493,-2.5503,-2.5539,-2.5539,-2.5547,-2.5561,-2.5561,-2.5595,-2.3232,-2.2892,-2.283,0.0,0.0,0.0,-3.073,0.0,0.0,-3.1512,0.0,-3.4895,-3.2662,-3.2313,0.0,-3.2313,-3.2347,-3.3085,-3.5301,-3.5622,-3.5622,-3.5605,-3.4945,-3.4489,-3.4472,-3.3829,-3.3085,-3.2364,-3.2273,-3.2156,-3.1823,-3.1789,-3.2039,-3.2484,-3.2952,-3.3214,-3.3184,-3.3578,-3.3385,-3.2588,-3.2588,-3.2596,-3.2596,-3.2868,-3.2545,-3.1747,-3.1205,-3.0977,-3.0919,-3.0266,-3.015,-3.0398,-3.0398,-3.0398,-3.0398,-3.0398,-3.0448,-3.0506,-3.0506,-3.0506,-3.0506,-3.0564,-3.0544,-3.0505,-3.0567,-3.0014,-2.939,-2.9469,-2.8867,-2.8203,-2.8262,-2.8281,-2.8281,-2.8281,-2.8281,-2.8047,-2.7168,-2.6992,-2.6738,-2.5879,-2.5703,-2.5703,-2.5703,-2.5703,-2.5703,-2.5703,-2.5703,-2.5703,-2.5703,-2.5703,-2.5703,-2.5703,-2.5703,-2.5703,-2.5703,-2.5703,-2.5703,-2.5703,-2.5703,-2.5636,-2.5517,-2.5493,-2.5493,-2.5493,-2.5493,-2.552,-2.5603,-2.5603,-2.5634,-2.5703,-2.5703,-2.5703,-2.4752,-2.4018,-2.3493,-2.5188,0.0,0.0,0.0,0.0,0.0,0.0,-3.2488,-3.2594,-3.0417,-3.251,0.0,-3.2527,-3.3609,-3.4861,-3.552,-3.5622,-3.5419,-3.4895,-3.4624,-3.4303,-3.3778,-3.3051,-3.2527,-3.2347,-3.1799,-3.1611,-3.1806,-3.1789,-3.2039,-3.2484,-3.2952,-3.3045,-3.2713,-3.2624,-3.2464,-3.2154,-3.1637,-3.1545,-3.1733,-3.1243,-3.0886,-3.0632,-2.9906,-2.9706,-2.9869,-2.9808,-2.9848,-2.9912,-3.0061,-3.0122,-3.0136,-3.0323,-3.0398,-3.0417,-3.0417,-3.0417,-3.0333,-2.9737,-2.9562,-2.9476,-2.8943,-2.8631,-2.8496,-2.8505,-2.7888,-2.7222,-2.7241,-2.681,-2.6574,-2.7226,-2.6914,-2.6406,-2.6133,-2.6094,-2.6016,-2.5742,-2.5703,-2.5703,-2.5703,-2.5703,-2.5703,-2.5703,-2.5703,-2.5703,-2.5703,-2.5703,-2.5703,-2.5703,-2.5703,-2.5703,-2.5703,-2.5703,-2.5703,-2.5703,-2.5703,-2.5683,-2.5637,-2.5636,-2.5636,-2.5636,-2.5636,-2.5658,-2.5662,-2.5662,-2.5683,-2.5703,-2.5703,-2.5703,-2.5898,-2.5162,0.0,-2.7596,-2.6927,-2.577,-2.6366,0.0,0.0,0.0,-3.3319,-3.3203,-3.1867,-3.3812,0.0,-3.3829,-3.4742,-3.5622,-3.5622,-3.5368,-3.5013,-3.4539,-3.3964,-3.344,-3.3,-3.229,-3.185,-3.185,-3.1444,-3.1329,-3.1545,-3.1565,-3.1677,-3.1986,-3.24,-3.2391,-3.1774,-3.1818,-3.1552,-3.1037,-3.0456,-3.0288,-3.0448,-3.0283,-3.0026,-2.9714,-2.9195,-2.9156,-2.9412,-2.9532,-2.9644,-2.9731,-2.9924,-2.9999,-3.0028,-3.0299,-3.0398,-3.034,-3.0006,-2.989,-2.9737,-2.889,-2.8646,-2.8598,-2.8115,-2.7749,-2.7517,-2.755,-2.6915,-2.624,-2.6286,-2.5929,-2.5707,-2.6301,-2.6054,-2.5703,-2.5703,-2.5703,-2.5703,-2.5703,-2.5703,-2.5703,-2.5703,-2.5703,-2.5703,-2.5703,-2.5703,-2.5703,-2.5703,-2.5703,-2.5703,-2.5703,-2.5682,-2.566,-2.566,-2.5634,-2.5629,-2.5629,-2.5629,-2.5629,-2.5629,-2.5657,-2.566,-2.566,-2.5634,-2.5629,-2.5629,-2.5629,-2.5629,-2.5629,-2.5629,-2.5629,-2.6951,-2.637,-2.6656,-3.0695,-2.8563,0.0,-2.8071,-2.8798,-3.0311,-3.4621,0.0,-3.5385,-3.5588,-3.5622,-3.5622,-3.5622,-3.5554,-3.552,-3.552,-3.4861,-3.437,-3.4303,-3.3102,-3.2256,-3.2188,-3.1579,-3.119,-3.119,-3.119,-3.119,-3.119,-3.119,-3.119,-3.119,-3.1534,-3.1339,-3.0647,-3.0981,-3.0564,-2.9494,-2.9116,-2.8909,-2.8923,-2.9679,-2.9672,-2.8994,-2.8994,-2.9134,-2.9372,-2.9372,-2.9474,-2.9661,-2.9861,-2.9954,-2.9969,-3.0164,-3.0227,-3.0112,-2.9252,-2.8956,-2.8821,-2.8044,-2.7775,-2.7775,-2.7678,-2.7101,-2.6487,-2.6558,-2.601,-2.5401,-2.5477,-2.5498,-2.5517,-2.5564,-2.5634,-2.5683,-2.5683,-2.5683,-2.5683,-2.5683,-2.5683,-2.5683,-2.5683,-2.5683,-2.5683,-2.5683,-2.5683,-2.5683,-2.5683,-2.5683,-2.5683,-2.5683,-2.5633,-2.5598,-2.5598,-2.5539,-2.5493,-2.5493,-2.5493,-2.5493,-2.5493,-2.5558,-2.5598,-2.5598,-2.5539,-2.5493,-2.5493,-2.5493,-2.5493,-2.5493,-2.5493,-2.5489,-2.9191,-2.7936,0.0,-2.6937,-2.5929,-2.6281,-3.1873,-3.1482,-3.0874,-3.4154,-3.3857,-3.3541,-3.5301,-3.5622,-3.5622,-3.5622,-3.5115,-3.4742,-3.4742,-3.41,-3.3423,-3.2814,-3.2517,-3.2053,-3.1478,-3.1275,-3.119,-3.119,-3.119,-3.119,-3.119,-3.119,-3.119,-3.119,-3.1018,-3.0695,-3.0207,-2.9504,-2.8984,0.0,-2.801,-2.7836,-2.8147,-2.8575,-2.887,-2.8994,-2.8994,-2.9021,-2.9089,-2.9089,-2.9093,-2.9181,-2.9435,-2.9532,-2.9476,-2.9061,-2.8913,-2.881,-2.8153,-2.7918,-2.7809,-2.7108,-2.689,-2.6755,-2.6082,-2.5726,-2.5582,-2.5611,-2.5466,-2.5321,-2.5339,-2.5376,-2.5441,-2.5441,-2.5484,-2.5547,-2.5547,-2.5547,-2.5547,-2.5547,-2.5547,-2.5558,-2.5607,-2.5611,-2.5611,-2.5611,-2.5611,-2.5603,-2.5551,-2.5547,-2.5547,-2.5547,-2.5539,-2.5511,-2.5511,-2.5517,-2.5493,-2.5493,-2.5493,-2.5493,-2.5493,-2.5503,-2.5511,-2.5511,-2.5517,-2.5493,-2.5493,-2.5493,-2.5493,-2.5493,-2.5493,-2.5424,-2.8578,0.0,0.0,-2.8723,0.0,-3.0398,-3.2546,-3.266,-3.2675,-3.3841,-3.3502,-3.3259,-3.4409,-3.4894,-3.4998,-3.4647,-3.4549,-3.4267,-3.3634,-3.2904,-3.2302,-3.1901,-3.155,-3.1297,-3.1224,-3.119,-3.119,-3.119,-3.119,-3.119,-3.119,-3.119,-3.1038,-3.0683,-3.0506,-2.9943,-2.9025,-2.8442,-2.8078,-2.7861,-2.7272,-2.7224,-2.7636,-2.7992,-2.8342,-2.8707,-2.8707,-2.8815,-2.8994,-2.8994,-2.8994,-2.9003,-2.8845,-2.8779,-2.8706,-2.8135,-2.7932,-2.7834,-2.7091,-2.6835,-2.6711,-2.6056,-2.5788,-2.5664,-2.5275,-2.5107,-2.5061,-2.5141,-2.5152,-2.5173,-2.5274,-2.5331,-2.5346,-2.5346,-2.5428,-2.5493,-2.5493,-2.5493,-2.5493,-2.5493,-2.5493,-2.5503,-2.5551,-2.5554,-2.5554,-2.5554,-2.5554,-2.5543,-2.5493,-2.5493,-2.5493,-2.5493,-2.5477,-2.5453,-2.5459,-2.5321,-2.5266,-2.5266,-2.5195,-2.5159,-2.5159,-2.5159,-2.5258,-2.5453,-2.5415,-2.5352,-2.5266,-2.5266,-2.5241,-2.5159,-2.5159,-2.5101,-2.7381,0.0,-3.0285,-3.1912,-3.3269,0.0,-3.2245,-3.2874,-3.3741,-3.3337,-3.3455,-3.3562,-3.3441,-3.3892,-3.4021,-3.3315,-3.3516,-3.3412,-3.229,-3.1539,-3.1035,-3.1035,-3.0527,-3.0335,-3.0838,-3.0878,-3.0918,-3.1015,-3.1055,-3.1095,-3.119,-3.1072,-3.0734,-3.0125,-2.9854,-2.911,-2.7806,-2.7654,-2.747,-2.7178,-2.6873,-2.6873,-2.721,-2.753,-2.7936,-2.8316,-2.8376,-2.859,-2.8905,-2.8952,-2.892,-2.8746,-2.8248,-2.7957,-2.7773,-2.7187,-2.697,-2.6839,-2.6026,-2.574,-2.5657,-2.5139,-2.4891,-2.4814,-2.4924,-2.4891,-2.4814,-2.4924,-2.4962,-2.4998,-2.5203,-2.5233,-2.5222,-2.5253,-2.5324,-2.5396,-2.5414,-2.5446,-2.5451,-2.542,-2.5457,-2.5468,-2.5438,-2.5473,-2.5479,-2.5382,-2.5407,-2.5426,-2.5376,-2.5376,-2.5376,-2.5376,-2.5337,-2.5299,-2.5288,-2.5094,-2.4962,-2.4962,-2.4869,-2.4804,-2.4804,-2.4804,-2.4968,-2.529,-2.5235,-2.513,-2.4962,-2.4962,-2.4917,-2.4804,-2.4804,-2.4741,-2.8401,0.0,-2.9642,0.0,-3.0603,-2.9865,0.0,0.0,-3.101,0.0,-3.2795,-3.3419,-3.283,-3.2835,-3.2643,-3.1935,-3.1401,-3.0949,-3.0806,-3.0119,-2.9685,-2.9685,-2.9589,-2.954,-2.9629,-2.9629,-2.9848,-3.0393,-3.0435,-3.0658,-3.119,-3.0598,-3.0209,-3.0108,-2.8786,-2.7992,-2.7789,-2.7182,-2.6826,-2.6791,-2.6725,-2.6725,-2.6791,-2.6858,-2.7272,-2.7964,-2.8272,-2.842,-2.8515,-2.8863,-2.8594,-2.7934,-2.7868,-2.7411,-2.6712,-2.5944,-2.565,-2.5558,-2.4925,-2.4694,-2.4708,-2.4794,-2.4799,-2.4804,-2.4814,-2.4799,-2.4804,-2.4814,-2.4832,-2.4855,-2.4998,-2.4956,-2.4896,-2.4998,-2.4962,-2.4937,-2.5031,-2.5206,-2.5274,-2.5105,-2.5252,-2.5367,-2.5174,-2.5344,-2.5369,-2.4954,-2.5043,-2.5091,-2.4924,-2.4885,-2.4885,-2.4885,-2.4891,-2.4877,-2.4877,-2.4842,-2.4832,-2.4832,-2.4818,-2.4804,-2.4804,-2.4804,-2.4832,-2.4883,-2.4869,-2.4842,-2.4832,-2.4832,-2.4832,-2.4804,-2.4804,-2.4551,-2.9729,-2.8854,-2.8743,0.0,-3.1302,-2.9405,-3.2728,-3.1517,-2.9832,-3.0359,-3.0974,-3.1296,-3.0951,-3.1243,-3.1234,-3.0557,-3.045,-3.0256,-2.9501,-2.9108,-2.8919,-2.8919,-2.8919,-2.9012,-2.9361,-2.9406,-2.9496,-2.9761,-2.9805,-2.9892,-3.0166,-2.9518,-2.8944,-2.8533,-2.7798,-2.7214,-2.6797,-2.6707,-2.6691,-2.6691,-2.6691,-2.6691,-2.6691,-2.6691,-2.7036,-2.756,-2.7718,-2.7918,-2.8094,-2.7867,-2.7565,-2.7168,-2.6431,-2.5846,-2.5316,-2.4897,-2.4606,-2.4431,-2.4358,-2.4321,-2.4357,-2.4578,-2.4561,-2.4478,-2.4591,-2.4543,-2.4495,-2.4591,-2.4623,-2.467,-2.4836,-2.4842,-2.4799,-2.4864,-2.4842,-2.479,-2.4737,-2.4883,-2.4987,-2.4923,-2.4986,-2.5038,-2.4948,-2.5034,-2.5037,-2.4841,-2.4867,-2.4905,-2.4799,-2.4804,-2.4804,-2.4804,-2.4804,-2.4804,-2.4804,-2.4516,-2.4349,-2.4349,-2.4063,-2.3911,-2.3911,-2.3911,-2.3911,-2.3911,-2.4312,-2.4463,-2.4349,-2.4172,-2.4008,-2.3911,-2.3911,-2.3771,0.0,0.0,-2.7859,-3.2717,-3.0858,-2.8464,0.0,0.0,-2.8466,0.0,-2.9244,-2.9485,-2.9167,-2.9622,-2.9858,-2.9147,-2.9434,-2.9438,-2.8396,-2.8271,-2.8271,-2.8271,-2.8271,-2.8463,-2.8904,-2.895,-2.8996,-2.9134,-2.918,-2.9146,-2.915,-2.849,-2.7785,-2.7096,-2.6763,-2.6356,-2.5815,-2.6297,-2.6505,-2.6505,-2.6657,-2.6691,-2.6691,-2.6691,-2.6873,-2.7147,-2.7272,-2.7365,-2.7448,-2.6994,-2.6543,-2.6091,-2.5147,-2.451,-2.4076,-2.3991,-2.3795,-2.361,-2.3976,-2.4074,-2.4095,-2.4248,-2.4266,-2.4209,-2.4284,-2.4247,-2.4228,-2.4375,-2.4409,-2.4461,-2.467,-2.4685,-2.4654,-2.4716,-2.4685,-2.4639,-2.4594,-2.4654,-2.4746,-2.479,-2.4804,-2.479,-2.4731,-2.4775,-2.4727,-2.4554,-2.4551,-2.4551,-2.44,-2.4383,-2.4383,-2.4383,-2.4383,-2.4383,-2.4383,-2.4026,-2.3792,-2.3792,-2.3406,-2.3189,-2.3189,-2.31,-2.31,-2.3189,-2.3458,-2.3646,-2.3792,-2.3548,-2.3285,-2.3034,-2.3034,-2.2961,0.0,-2.7638,0.0,-2.8905,-2.7012,0.0,0.0,0.0,-2.6103,-2.6648,-2.8288,-2.92,-2.7916,-2.8269,-2.8464,-2.784,-2.772,-2.7755,-2.7675,-2.7675,-2.7675,-2.7675,-2.7675,-2.766,-2.771,-2.771,-2.7944,-2.8511,-2.8559,-2.8498,-2.8446,-2.7785,-2.7064,-2.6359,-2.5654,-2.5291,-2.5259,-2.5762,-2.6049,-2.6033,-2.647,-2.6691,-2.6691,-2.6691,-2.6725,-2.6758,-2.7147,-2.6935,-2.6335,-2.6654,-2.5888,-2.4506,-2.446,-2.3939,-2.3242,-2.3253,-2.3236,-2.3259,-2.361,-2.3714,-2.3714,-2.3735,-2.3937,-2.4133,-2.3837,-2.3958,-2.419,-2.4209,-2.4209,-2.4247,-2.4461,-2.4375,-2.4266,-2.4461,-2.4375,-2.4321,-2.47,-2.4639,-2.4559,-2.476,-2.4804,-2.4746,-2.4561,-2.467,-2.457,-2.3862,-2.3908,-2.3852,-2.3356,-2.3264,-2.3264,-2.3264,-2.3264,-2.3264,-2.3264,-2.3259,-2.3236,-2.3236,-2.3212,-2.3189,-2.3189,-2.2835,-2.281,-2.3189,-2.2194,-2.2177,-2.3236,-2.3236,-2.3017,-2.2625,-2.2625,-2.2258,0.0,0.0,0.0,-2.7749,-2.5268,-2.2903,-2.4865,-2.492,-2.4288,-2.3615,-2.6031,-2.778,-2.6002,-2.6923,-2.7859,-2.767,-2.7625,-2.7625,-2.7625,-2.7625,-2.7625,-2.7625,-2.7625,-2.7625,-2.7625,-2.7625,-2.766,-2.791,-2.635,-2.591,-2.7195,-2.4967,-2.4153,-2.5155,-2.4869,-2.4855,-2.5221,-2.5373,-2.5503,-2.5486,-2.5672,-2.5908,-2.6262,-2.6262,-2.6401,-2.6657,-2.6347,-2.6053,-2.5794,-2.545,-2.4701,-2.3746,-2.3424,-2.3024,-2.266,-2.3063,-2.3069,-2.2923,-2.3259,-2.3392,-2.3392,-2.3392,-2.3459,-2.3566,-2.3671,-2.3631,-2.3588,-2.3816,-2.3714,-2.357,-2.366,-2.3613,-2.3631,-2.3903,-2.3759,-2.3674,-2.4023,-2.4041,-2.4002,-2.408,-2.3928,-2.3751,-2.3684,-2.3728,-2.3668,-2.3437,-2.3446,-2.3424,-2.3212,-2.2968,-2.281,-2.281,-2.2556,-2.2366,-2.2366,-2.2204,-2.2112,-2.2112,-2.1893,-2.1795,-2.1795,-2.1648,-2.1632,-2.1795,-2.1411,-2.1619,-2.2487,-2.2023,-2.1707,-2.1573,-2.1573,-2.1439,-2.7572,0.0,0.0,0.0,0.0,-2.1113,-2.2348,-2.3206,-2.3395,-2.2147,-2.5086,-2.7418,-2.5888,-2.6701,-2.7625,-2.7625,-2.7625,-2.7625,-2.7625,-2.7625,-2.7625,-2.7625,-2.7625,-2.7625,-2.7625,-2.7625,-2.7625,-2.7625,-2.5719,0.0,-2.6198,-2.3984,-2.3176,-2.4253,-2.4192,-2.4307,-2.4657,-2.4816,-2.4934,-2.4934,-2.5105,-2.5373,-2.5726,-2.5726,-2.5908,-2.616,-2.5445,-2.5179,-2.5169,-2.4425,-2.3697,-2.2999,-2.2689,-2.2463,-2.2349,-2.2747,-2.2755,-2.2599,-2.2923,-2.3021,-2.3021,-2.3021,-2.3117,-2.3212,-2.3346,-2.33,-2.3253,-2.3459,-2.3369,-2.3189,-2.3189,-2.3189,-2.3277,-2.3477,-2.3369,-2.3259,-2.3482,-2.3522,-2.3522,-2.3522,-2.3346,-2.3165,-2.3034,-2.301,-2.2919,-2.2651,-2.2626,-2.26,-2.2487,-2.2238,-2.2057,-2.2057,-2.1797,-2.1608,-2.1608,-2.142,-2.1318,-2.1318,-2.1118,-2.0991,-2.0991,-2.0862,-2.0829,-2.0991,-2.0698,-2.0782,-2.1269,-2.1086,-2.0926,-2.0764,-2.0764,-2.0583,0.0,0.0,0.0,0.0,0.0,0.0,-1.9544,0.0,-2.323,-2.2317,-2.5486,-2.8202,-2.7653,-2.756,-2.7625,-2.7625,-2.7625,-2.7625,-2.7625,-2.7625,-2.7625,-2.7625,-2.7625,-2.7625,-2.7625,-2.7625,-2.7625,-2.7625,-2.6886,-2.6228,-2.5644,-2.4971,-2.4298,-2.3625,-2.3595,-2.3595,-2.3595,-2.4116,-2.4389,-2.4389,-2.4894,-2.5182,-2.5182,-2.5182,-2.5182,-2.5173,-2.4452,-2.4292,-2.4394,-2.365,-2.2924,-2.2282,-2.2282,-2.2282,-2.231,-2.2282,-2.2282,-2.2321,-2.2573,-2.2669,-2.2669,-2.2669,-2.2898,-2.3117,-2.2797,-2.2923,-2.3183,-2.3165,-2.3165,-2.3141,-2.3141,-2.3141,-2.3141,-2.3165,-2.3141,-2.3141,-2.3165,-2.3141,-2.3141,-2.3165,-2.3141,-2.301,-2.2617,-2.2548,-2.2312,-2.1586,-2.1483,-2.1379,-2.1055,-2.1007,-2.0959,-2.0959,-2.0959,-2.0959,-2.0959,-2.0959,-2.0959,-2.0959,-2.0959,-2.0926,-2.0926,-2.0483,-2.0449,-2.0926,-2.007,-1.9609,-1.9549,-2.0501,-2.0698,-2.0246,-2.0246,-1.9743,-2.6231,0.0,0.0,0.0,0.0,0.0,0.0,0.0,-2.1128,-2.0761,-2.3542,-2.6062,-2.607,-2.692,-2.7625,-2.7625,-2.7625,-2.7625,-2.7625,-2.7625,-2.7625,-2.7625,-2.7625,-2.7625,-2.7625,-2.7625,-2.7625,0.0,-2.5257,-2.4298,-2.554,-2.4507,-2.3789,-2.361,-2.3595,-2.3595,-2.3595,-2.3767,-2.3837,-2.3837,-2.3948,-2.4225,-2.4632,-2.4632,-2.4816,-2.5141,-2.3919,-2.342,-2.3435,-2.2736,-2.2209,-2.1764,-2.1477,-2.1751,-2.2254,-2.1928,-2.1794,-2.1807,-2.1878,-2.1919,-2.1919,-2.1919,-2.2209,-2.2571,-2.266,-2.2625,-2.2598,-2.2772,-2.2468,-2.1972,-2.1694,-2.1606,-2.1736,-2.2272,-2.1995,-2.1736,-2.23,-2.1995,-2.1782,-2.23,-2.1967,-2.1559,-2.1439,-2.1439,-2.1364,-2.118,-2.1149,-2.1102,-2.0991,-2.0682,-2.0483,-2.0483,-2.0227,-2.005,-2.005,-2.005,-2.005,-2.005,-1.9687,-1.9492,-1.9492,-1.8985,-1.876,-1.8896,-1.8674,-1.8521,-1.8507,-1.9185,-1.9222,-1.8698,-1.8698,-1.8584,0.0,0.0,0.0,0.0,0.0,0.0,-1.9241,-2.0616,-2.1972,0.0,-2.462,-2.6917,-2.571,-2.6191,-2.6657,-2.6373,-2.6344,-2.6657,-2.75,-2.7625,-2.7625,-2.7625,-2.7625,-2.7625,-2.7625,-2.7625,-2.7455,-2.7186,-2.5136,-2.4148,-2.4732,-2.4029,-2.3595,-2.3595,-2.3595,-2.3595,-2.3595,-2.3595,-2.3595,-2.3595,-2.3595,-2.3752,-2.4074,-2.4074,-2.4225,-2.4474,-2.3094,-2.2518,-2.2425,-2.1499,-2.1178,-2.1337,-2.1086,-2.1323,-2.1721,-2.1446,-2.1337,-2.1337,-2.1337,-2.1337,-2.1337,-2.1337,-2.1538,-2.1794,-2.1943,-2.1861,-2.1794,-2.196,-2.1698,-2.1306,-2.1055,-2.0991,-2.1118,-2.1532,-2.1305,-2.1118,-2.1562,-2.1133,-2.0894,-2.1532,-2.1305,-2.0926,-2.0748,-2.0731,-2.0665,-2.0465,-2.0481,-2.0481,-2.0481,-2.0243,-2.007,-2.007,-1.9645,-1.9369,-1.9369,-1.9169,-1.9043,-1.9043,-1.8727,-1.8444,-1.8221,-1.7906,-1.7612,-1.737,-1.737,-1.7247,-1.7014,-1.8064,-1.8419,-1.8106,-1.7867,-1.7612,0.0,0.0,0.0,0.0,-2.1714,0.0,-2.0137,-2.2036,-2.3777,0.0,-2.6531,-2.8477,-2.5816,-2.5267,-2.5066,-2.4428,-2.4283,-2.4984,-2.6965,-2.7434,-2.753,-2.7294,-2.7434,-2.7625,-2.7625,-2.7625,-2.729,-2.6549,-2.5756,-2.4743,-2.3568,-2.3508,-2.3508,-2.3595,-2.3551,-2.3508,-2.3595,-2.3551,-2.3551,-2.3595,-2.3595,-2.3595,-2.3595,-2.3595,-2.3595,-2.3535,-2.2248,-2.1695,-2.159,-2.0243,-2.0174,-2.0926,-2.0862,-2.0894,-2.0991,-2.0926,-2.0926,-2.0926,-2.0926,-2.0926,-2.0926,-2.0926,-2.0959,-2.0991,-2.0991,-2.0991,-2.0991,-2.0926,-2.0926,-2.0894,-2.0862,-2.0878,-2.0862,-2.0894,-2.0894,-2.0862,-2.0926,-2.055,-2.0348,-2.0764,-2.0878,-2.0731,-2.033,-2.0212,-2.0124,-1.9747,-1.9639,-1.9603,-1.9603,-1.9566,-1.953,-1.953,-1.9095,-1.8817,-1.8817,-1.838,-1.8106,-1.8106,-1.8027,-1.776,-1.7137,-1.7055,-1.6738,-1.6126,-1.6138,-1.5893,-1.5416,-1.6972,-1.772,-1.772,-1.7244,-1.6744,0.0,0.0,0.0,0.0,-2.2436,0.0,-2.0539,-2.0194,-2.0297,0.0,-2.2446,-2.3302,-2.3856,-2.3861,-2.3506,-2.2769,-2.2451,-2.2972,-2.4891,-2.6577,-2.7015,-2.5402,-2.6592,-2.7625,-2.7625,-2.7625,-2.714,-2.5973,-2.4269,-2.3141,-2.2873,-2.2875,-2.3113,-2.3595,-2.3143,-2.3113,-2.361,-2.3113,-2.3098,-2.3595,-2.3595,-2.3595,-2.3595,-2.3595,-2.3595,-2.3535,-2.2248,-2.1695,-2.159,-2.0243,-1.998,-2.0416,-2.007,-2.0379,-2.0959,-2.0583,-2.0449,-2.0449,-2.0449,-2.0449,-2.0449,-2.0449,-2.0682,-2.0991,-2.0991,-2.0991,-2.0926,-2.055,-2.0449,-2.0348,-2.005,-1.9945,-2.005,-2.0348,-2.0208,-2.005,-2.0348,-2.0104,-1.9839,-1.9945,-1.9945,-1.9909,-1.9839,-1.9818,-1.9782,-1.9711,-1.9332,-1.9043,-1.9043,-1.8688,-1.8419,-1.8419,-1.8341,-1.8263,-1.8263,-1.8185,-1.8106,-1.8106,-1.7706,-1.7203,-1.6579,-1.612,-1.5652,-1.5028,-1.5028,-1.4937,-1.4858,-1.5219,-1.5342,-1.5342,-1.5264,-1.5141,0.0,0.0,0.0,-2.3729,-2.2898,0.0,0.0,-2.1346,-2.1614,-2.2378,-2.3343,-2.3892,-2.3341,-2.3161,-2.2694,-2.1456,-2.1116,-2.1169,-2.162,-2.4217,-2.6099,-2.6105,-2.7015,-2.7625,-2.7625,-2.728,-2.6455,-2.4829,-2.316,-2.2186,-2.2207,-2.2193,-2.2331,-2.2651,-2.2377,-2.2331,-2.2651,-2.2331,-2.2529,-2.3143,-2.3143,-2.3334,-2.3595,-2.329,-2.3334,-2.3477,-2.1609,-2.1152,-2.159,-1.9952,-1.9413,-1.9615,-1.966,-1.998,-2.0311,-2.0104,-2.0,-2.0,-2.0,-2.0,-2.0,-2.0,-2.0174,-2.0296,-2.0024,-1.9939,-1.9954,-1.9984,-1.9808,-1.9579,-1.9354,-1.9095,-1.8954,-1.9133,-1.9051,-1.8954,-1.917,-1.9051,-1.8893,-1.8893,-1.8893,-1.9006,-1.9244,-1.908,-1.8893,-1.8893,-1.865,-1.8496,-1.8496,-1.8263,-1.8106,-1.8106,-1.7867,-1.7572,-1.7272,-1.7011,-1.6705,-1.6396,-1.6164,-1.5728,-1.5151,-1.4846,-1.4411,-1.3789,-1.3416,-1.3253,-1.3253,-1.2908,-1.3243,-1.4204,-1.4204,-1.3856,0.0,0.0,0.0,0.0,0.0,-2.2431,0.0,0.0,0.0,-2.3035,-2.4415,-2.4913,-2.2562,0.0,0.0,0.0,0.0,0.0,0.0,-2.1342,0.0,-2.5463,-2.6126,-2.6332,-2.6108,-2.5625,-2.4805,-2.3579,-2.2152,-2.1376,-2.152,-2.152,-2.1568,-2.1697,-2.1568,-2.1568,-2.1697,-2.1568,-2.1866,-2.2498,-2.2498,-2.277,-2.3216,-2.2725,-2.277,-2.3098,-2.0867,-2.0444,-2.1226,-1.9464,-1.8727,-1.8817,-1.9442,-1.9566,-1.9406,-1.953,-1.9566,-1.953,-1.9442,-1.9442,-1.9566,-1.9566,-1.9566,-1.9479,-1.9043,-1.8817,-1.8855,-1.9281,-1.908,-1.8727,-1.8727,-1.8419,-1.8106,-1.8106,-1.8106,-1.8106,-1.8106,-1.8106,-1.8106,-1.8106,-1.8027,-1.8145,-1.865,-1.838,-1.8106,-1.8106,-1.8027,-1.7894,-1.7814,-1.7679,-1.7558,-1.7464,-1.7066,-1.6617,-1.6133,-1.5664,-1.5231,-1.4744,-1.4595,-1.4226,-1.3616,-1.3369,-1.3006,-1.252,-1.1931,-1.1616,-1.1616,-1.0906,-1.1472,-1.3127,-1.3127,-1.2541,0.0,0.0,0.0,0.0,-2.2264,-2.2154,-2.0735,0.0,-2.0601,-1.9953,0.0,-2.1317,-1.9649,0.0,0.0,0.0,0.0,0.0,-1.928,-1.8646,-1.817,-1.8731,-2.0908,-2.1913,-2.0727,-2.0582,-2.1199,-2.2686,-2.1099,-2.0295,-2.0881,-2.0894,-2.1161,-2.1697,-2.1161,-2.1161,-2.1697,-2.1161,-2.121,-2.1805,-2.1805,-2.1852,-2.1885,-2.1838,-2.1852,-2.1829,-2.047,-1.9988,-1.9977,-1.8724,-1.8185,-1.8302,-1.9281,-1.9132,-1.8341,-1.8817,-1.9006,-1.893,-1.8458,-1.8574,-1.9006,-1.9006,-1.9006,-1.8968,-1.893,-1.8574,-1.8224,-1.8263,-1.8263,-1.8185,-1.8185,-1.8145,-1.8106,-1.8106,-1.8106,-1.8106,-1.8106,-1.8106,-1.8106,-1.8106,-1.7706,-1.7544,-1.8106,-1.8145,-1.8106,-1.8106,-1.7706,-1.7216,-1.6634,-1.6176,-1.5664,-1.5129,-1.505,-1.496,-1.4926,-1.4835,-1.4789,-1.4698,-1.4147,-1.3517,-1.2918,-1.1796,-1.1116,-1.1023,-1.0965,-1.0914,-1.0914,-1.0163,-1.0257,-1.1157,-1.1157,-1.1057,0.0,0.0,0.0,0.0,0.0,0.0,-2.3355,0.0,-2.0822,0.0,0.0,0.0,0.0,0.0,0.0,0.0,-1.6278,0.0,0.0,0.0,-1.6666,0.0,0.0,0.0,-2.0845,-1.9336,0.0,-2.0631,-1.9297,-1.8535,-1.8819,-1.9731,-2.0333,-2.0607,-2.0333,-2.0333,-2.062,-2.0333,-2.0534,-2.1161,-2.1161,-2.1342,-2.1697,-2.1342,-2.139,-2.1594,-1.9727,-1.9311,-1.9761,-1.8275,-1.7626,-1.7706,-1.8458,-1.8496,-1.8145,-1.8341,-1.8458,-1.8419,-1.8185,-1.8263,-1.8458,-1.8458,-1.8224,-1.8027,-1.8341,-1.8066,-1.7706,-1.8027,-1.7867,-1.7626,-1.7626,-1.7149,-1.6634,-1.6634,-1.6366,-1.6151,-1.6151,-1.6151,-1.6151,-1.6151,-1.5947,-1.5872,-1.6108,-1.6421,-1.6549,-1.6194,-1.5947,-1.5696,-1.5443,-1.5231,-1.4971,-1.4744,-1.4698,-1.4411,-1.3643,-1.3595,-1.3253,-1.2464,-1.2171,-1.1877,-1.1648,-1.1107,-1.0594,-1.0163,-0.9769,-0.9349,-0.8919,-0.8246,-0.8041,-0.8364,-0.92,-0.9585,-2.4616,0.0,0.0,0.0,0.0,0.0,0.0,0.0,0.0,0.0,0.0,0.0,0.0,0.0,0.0,0.0,0.0,-1.5603,0.0,-1.446,0.0,0.0,0.0,0.0,0.0,-1.823,-1.743,-1.8414,-1.7817,-1.7388,-1.7388,-1.892,-1.9798,-1.9798,-1.9798,-1.9798,-1.9798,-1.9798,-2.0055,-2.056,-2.056,-2.0782,-2.1183,-2.0733,-2.0769,-2.1067,-1.8907,-1.8516,-1.9306,-1.7561,-1.6828,-1.687,-1.745,-1.7572,-1.7464,-1.7773,-1.7867,-1.7827,-1.7518,-1.7518,-1.7599,-1.745,-1.7218,-1.7079,-1.7328,-1.7136,-1.687,-1.7094,-1.7024,-1.6786,-1.6617,-1.5971,-1.5365,-1.5365,-1.5017,-1.4698,-1.4698,-1.4698,-1.4698,-1.4698,-1.4698,-1.4663,-1.4468,-1.496,-1.5186,-1.4744,-1.4698,-1.456,-1.4215,-1.4168,-1.4029,-1.3679,-1.3632,-1.3243,-1.2327,-1.2229,-1.1747,-1.0618,-1.0517,-1.0356,-0.9938,-0.9938,-0.9614,-0.886,-0.8357,-0.7835,-0.7298,-0.6622,-0.6421,-0.6642,-0.7635,-0.8125,0.0,0.0,0.0,-2.3859,0.0,0.0,0.0,0.0,-2.0136,0.0,0.0,0.0,0.0,0.0,0.0,0.0,0.0,0.0,0.0,0.0,0.0,0.0,0.0,0.0,0.0,-1.6208,-1.6346,-1.6395,-1.7011,-1.7388,-1.7388,-1.892,-1.9798,-1.9798,-1.9798,-1.9798,-1.9798,-1.9798,-1.9798,-1.985,-1.985,-1.985,-1.985,-1.985,-1.985,-1.9787,-1.8093,-1.769,-1.8103,-1.6357,-1.5632,-1.572,-1.6324,-1.6182,-1.5796,-1.6925,-1.7353,-1.7175,-1.6058,-1.6003,-1.6378,-1.5768,-1.5966,-1.6336,-1.578,-1.5628,-1.5543,-1.496,-1.5231,-1.5543,-1.4915,-1.4744,-1.4744,-1.4744,-1.4698,-1.4698,-1.4698,-1.4698,-1.4698,-1.4698,-1.4698,-1.4514,-1.3909,-1.4329,-1.4698,-1.4698,-1.4698,-1.4261,-1.3014,-1.286,-1.2376,-1.1057,-1.0914,-1.0914,-1.0864,-1.0864,-1.0559,-0.9865,-0.9814,-0.9242,-0.7877,-0.7771,-0.745,-0.6691,-0.6696,-0.6642,-0.6637,-0.5873,-0.5928,-0.6588,-0.6642,-0.6642,0.0,0.0,-2.9127,-2.8044,0.0,0.0,0.0,0.0,0.0,0.0,0.0,0.0,0.0,0.0,0.0,0.0,0.0,0.0,0.0,0.0,0.0,0.0,0.0,0.0,0.0,0.0,0.0,-1.4561,-1.4297,-1.4099,-1.4099,-1.6697,-1.8204,-1.8204,-1.9246,-1.9798,-1.9798,-1.9798,-1.9798,-1.9798,-1.9798,-1.9798,-1.9798,-1.9798,-1.9798,-1.9684,-1.8031,-1.7436,-1.746,-1.5707,-1.5005,-1.5017,-1.5242,-1.5197,-1.5096,-1.5884,-1.6188,-1.6058,-1.5276,-1.5141,-1.5219,-1.5039,-1.5129,-1.5219,-1.5028,-1.5005,-1.4971,-1.4755,-1.4835,-1.4971,-1.4744,-1.4075,-1.3443,-1.3443,-1.2764,-1.2132,-1.2132,-1.2132,-1.2132,-1.2132,-1.2132,-1.2033,-1.1846,-1.1984,-1.2278,-1.2725,-1.2425,-1.1984,-1.1548,-1.1499,-1.1299,-1.0864,-1.0813,-1.0618,-1.0167,-0.928,-0.8442,-0.7753,-0.77,-0.7492,-0.6966,-0.6966,-0.6637,-0.5873,-0.5869,-0.5655,-0.5226,-0.4952,-0.4952,-0.5226,-0.5226,-0.5714,-3.106,-3.1476,0.0,-3.0411,-2.9035,0.0,-2.6814,0.0,-2.1894,0.0,0.0,0.0,0.0,0.0,0.0,0.0,0.0,0.0,0.0,-1.3346,0.0,0.0,-1.3154,-1.3443,0.0,-1.2696,-1.217,-1.2718,-1.2546,-1.2416,0.0,0.0,-1.7388,-1.7388,-1.8957,-1.9798,-1.9798,-1.9798,-1.9798,-1.9798,-1.9798,-1.9798,-1.9798,-1.9798,-1.9643,-1.9322,-1.7823,-1.71,-1.6816,-1.5244,-1.4529,-1.4376,-1.4617,-1.456,-1.4468,-1.505,-1.5141,-1.4903,-1.4514,-1.4376,-1.4329,-1.4107,-1.4201,-1.4329,-1.4107,-1.4201,-1.434,-1.4118,-1.405,-1.3971,-1.3737,-1.286,-1.2083,-1.2083,-1.1449,-1.0813,-1.0813,-1.0813,-1.0813,-1.0813,-1.0813,-1.0813,-1.0813,-1.0618,-1.0661,-1.1366,-1.1065,-1.0712,-1.0466,-1.0415,-1.0254,-0.9732,-0.9681,-0.9429,-0.8705,-0.7818,-0.7128,-0.6642,-0.6588,-0.6475,-0.6204,-0.6199,-0.5873,-0.5164,-0.5164,-0.4948,-0.4519,-0.4519,-0.4519,-0.4519,-0.4519,-0.5007]},{"header":{"parameterUnit":"m.s-1","parameterCategory":1,"la1":30.6,"la2":29.2853,"lo1":-89.7004,"lo2":-87.6739,"dy":0.0162,"dx":0.0183,"nx":112,"ny":82,"refTime":"2023-08-15T18:00:00:Z","depth":0,"parameterNumber":3,"parameterNumberName":"V-component_of_WINDS"},"data":[0.0,0.0,0.0,0.0,0.0,0.0,0.0,0.0,0.0,0.0,0.0,0.0,0.0,0.0,0.0,0.0,0.0,0.0,0.0,0.0,0.0,0.0,0.0,0.0,0.0,0.0,0.0,0.0,0.0,0.0,0.0,0.0,0.0,0.0,0.0,0.0,0.0,0.0,0.0,0.0,0.0,0.0,0.0,0.0,0.0,0.0,0.0,0.0,0.0,0.0,0.0,0.0,0.0,0.0,0.0,0.0,0.0,0.0,0.0,0.0,0.0,0.0,0.0,0.0,0.0,0.0,0.0,0.0,0.0,0.0,0.0,0.0,0.0,0.0,0.0,0.0,0.0,0.0,0.0,0.0,0.0,0.0,0.0,0.0,0.0,0.0,0.0,0.0,0.0,0.0,-0.6488,-0.7411,-0.7967,-0.8272,-0.8272,-0.8272,-0.7821,-0.6766,0.0,0.0,0.0,0.0,0.0,0.0,0.0,0.0,0.0,0.0,0.0,0.0,0.0,0.0,0.0,0.0,0.0,0.0,0.0,0.0,0.0,0.0,0.0,0.0,0.0,0.0,0.0,0.0,0.0,0.0,0.0,0.0,0.0,0.0,0.0,0.0,0.0,0.0,0.0,0.0,0.0,0.0,0.0,0.0,0.0,0.0,0.0,0.0,0.0,0.0,0.0,0.0,0.0,0.0,0.0,0.0,0.0,0.0,0.0,0.0,0.0,0.0,0.0,0.0,0.0,0.0,0.0,0.0,0.0,0.0,0.0,0.0,0.0,0.0,0.0,0.0,0.0,0.0,0.0,0.0,0.0,0.0,0.0,0.0,0.0,0.0,0.0,0.0,0.0,0.0,0.0,0.0,0.0,0.0,0.0,0.0,0.0,0.0,0.0,0.0,0.0,0.0,0.0,0.0,-0.6993,-0.8024,-0.8214,-0.8272,-0.8272,-0.8272,-0.7821,-0.6766,0.0,0.0,0.0,0.0,0.0,0.0,0.0,0.0,0.0,0.0,0.0,0.0,0.0,0.0,0.0,0.0,0.0,0.0,0.0,0.0,0.0,0.0,0.0,0.0,0.0,0.0,0.0,0.0,0.0,0.0,0.0,0.0,0.0,0.0,0.0,0.0,0.0,0.0,0.0,0.0,0.0,0.0,0.0,0.0,0.0,0.0,0.0,0.0,0.0,0.0,0.0,0.0,0.0,0.0,0.0,0.0,0.0,0.0,0.0,0.0,0.0,0.0,0.0,0.0,0.0,0.0,0.0,0.0,0.0,0.0,0.0,0.0,0.0,0.0,0.0,0.0,0.0,0.0,0.0,0.0,0.0,0.0,0.0,0.0,0.0,0.0,0.0,0.0,0.0,0.0,0.0,0.0,0.0,0.0,0.0,0.0,0.0,0.0,0.0,0.0,0.0,0.0,0.0,-0.6912,-0.7672,-0.8316,-0.8384,-0.8384,-0.8384,-0.8384,-0.7902,-0.677,-0.6495,0.0,0.0,0.0,0.0,0.0,0.0,0.0,0.0,0.0,0.0,0.0,0.0,0.0,0.0,0.0,0.0,0.0,0.0,0.0,0.0,0.0,0.0,0.0,0.0,0.0,0.0,0.0,0.0,0.0,0.0,0.0,0.0,0.0,0.0,0.0,0.0,0.0,0.0,0.0,0.0,0.0,0.0,0.0,0.0,0.0,0.0,0.0,0.0,0.0,0.0,0.0,0.0,0.0,0.0,0.0,0.0,0.0,0.0,0.0,0.0,0.0,0.0,0.0,0.0,0.0,0.0,0.0,0.0,0.0,0.0,0.0,0.0,0.0,0.0,0.0,0.0,0.0,0.0,0.0,0.0,0.0,0.0,0.0,0.0,0.0,0.0,0.0,0.0,0.0,0.0,0.0,0.0,0.0,0.0,0.0,0.0,0.0,0.0,0.0,0.0,0.0,0.0,-0.7424,-0.8075,-0.8442,-0.8482,-0.8482,-0.8482,-0.8482,-0.7974,-0.6776,-0.6799,0.0,0.0,0.0,0.0,0.0,0.0,0.0,0.0,0.0,0.0,0.0,0.0,0.0,0.0,0.0,0.0,0.0,0.0,0.0,0.0,0.0,0.0,0.0,0.0,0.0,0.0,0.0,0.0,0.0,0.0,0.0,0.0,0.0,0.0,0.0,0.0,0.0,0.0,0.0,0.0,0.0,0.0,0.0,0.0,0.0,0.0,0.0,0.0,0.0,0.0,0.0,0.0,0.0,0.0,0.0,0.0,0.0,0.0,0.0,0.0,0.0,0.0,0.0,0.0,0.0,0.0,0.0,0.0,0.0,0.0,0.0,0.0,0.0,0.0,0.0,0.0,0.0,0.0,0.0,0.0,0.0,0.0,0.0,0.0,0.0,0.0,0.0,0.0,0.0,0.0,0.0,0.0,0.0,0.0,0.0,0.0,0.0,0.0,0.0,0.0,0.0,0.0,-0.7244,-0.7848,-0.8421,-0.8482,-0.8482,-0.8482,-0.8482,-0.7974,-0.6776,-0.7362,0.0,0.0,0.0,0.0,0.0,0.0,0.0,0.0,0.0,0.0,0.0,0.0,0.0,0.0,0.0,0.0,0.0,0.0,0.0,0.0,0.0,0.0,0.0,0.0,0.0,0.0,0.0,0.0,0.0,0.0,0.0,0.0,0.0,0.0,0.0,0.0,0.0,0.0,0.0,0.0,0.0,0.0,0.0,0.0,0.0,0.0,0.0,0.0,0.0,0.0,0.0,0.0,0.0,0.0,0.0,0.0,0.0,0.0,0.0,0.0,0.0,0.0,0.0,0.0,0.0,0.0,0.0,0.0,0.0,0.0,0.0,0.0,0.0,0.0,0.0,0.0,0.0,0.0,0.0,0.0,0.0,0.0,0.0,0.0,0.0,0.0,0.0,0.0,0.0,0.0,0.0,0.0,0.0,0.0,0.0,0.0,0.0,0.0,0.0,0.0,0.0,0.0,-0.7387,-0.8031,-0.8438,-0.8482,-0.8482,-0.8482,-0.8482,-0.7974,-0.6776,0.0,0.0,0.0,0.0,0.0,0.0,0.0,0.0,0.0,0.0,0.0,0.0,0.0,0.0,0.0,0.0,0.0,0.0,0.0,0.0,0.0,0.0,0.0,0.0,0.0,0.0,0.0,0.0,0.0,0.0,0.0,0.0,0.0,0.0,0.0,0.0,0.0,0.0,0.0,0.0,0.0,0.0,0.0,0.0,0.0,0.0,0.0,0.0,0.0,0.0,0.0,0.0,0.0,0.0,0.0,0.0,0.0,0.0,0.0,0.0,0.0,0.0,0.0,0.0,0.0,0.0,0.0,0.0,0.0,0.0,0.0,0.0,0.0,0.0,0.0,0.0,0.0,0.0,0.0,0.0,0.0,0.0,0.0,0.0,0.0,0.0,0.0,0.0,0.0,0.0,0.0,0.0,0.0,0.0,0.0,0.0,0.0,0.0,0.0,0.0,0.0,0.0,-0.6702,-0.7485,-0.8153,-0.8448,-0.8482,-0.8482,-0.8482,-0.8482,-0.8048,-0.7033,0.0,0.0,0.0,0.0,0.0,0.0,0.0,0.0,0.0,0.0,0.0,0.0,0.0,0.0,0.0,0.0,0.0,0.0,0.0,0.0,0.0,0.0,0.0,0.0,0.0,0.0,0.0,0.0,0.0,0.0,0.0,0.0,0.0,0.0,0.0,0.0,0.0,0.0,0.0,0.0,0.0,0.0,0.0,0.0,0.0,0.0,0.0,0.0,0.0,0.0,0.0,0.0,0.0,0.0,0.0,0.0,0.0,0.0,0.0,0.0,0.0,0.0,0.0,0.0,0.0,0.0,0.0,0.0,0.0,0.0,0.0,0.0,0.0,0.0,0.0,0.0,0.0,0.0,0.0,0.0,0.0,0.0,0.0,0.0,0.0,0.0,0.0,0.0,0.0,0.0,0.0,0.0,0.0,0.0,0.0,0.0,0.0,0.0,0.0,0.0,0.0,0.0,-0.6702,-0.7485,-0.8153,-0.8448,-0.8482,-0.8482,-0.8482,-0.8482,-0.8293,0.0,0.0,0.0,0.0,0.0,0.0,0.0,0.0,0.0,0.0,0.0,0.0,0.0,0.0,0.0,0.0,0.0,0.0,0.0,0.0,0.0,0.0,0.0,0.0,0.0,0.0,0.0,0.0,0.0,0.0,0.0,0.0,0.0,0.0,0.0,0.0,0.0,0.0,0.0,0.0,0.0,0.0,0.0,0.0,0.0,0.0,0.0,0.0,0.0,0.0,0.0,0.0,0.0,0.0,0.0,0.0,0.0,0.0,0.0,0.0,0.0,0.0,0.0,0.0,0.0,0.0,0.0,0.0,0.0,0.0,0.0,0.0,0.0,0.0,0.0,0.0,0.0,0.0,0.0,0.0,0.0,0.0,0.0,0.0,0.0,0.0,0.0,0.0,0.0,0.0,0.0,0.0,0.0,0.0,0.0,0.0,0.0,0.0,0.0,0.0,0.0,0.0,0.0,-0.6702,-0.758,-0.8272,-0.8462,-0.8577,-0.8601,-0.8489,-0.9306,-0.9158,-0.7672,0.0,0.0,0.0,0.0,0.0,0.0,0.0,0.0,0.0,0.0,0.0,0.0,0.0,0.0,0.0,0.0,0.0,0.0,0.0,0.0,0.0,0.0,0.0,0.0,0.0,0.0,0.0,0.0,0.0,0.0,0.0,0.0,0.0,0.0,0.0,0.0,0.0,0.0,0.0,0.0,0.0,0.0,0.0,0.0,0.0,0.0,0.0,0.0,0.0,0.0,0.0,0.0,0.0,0.0,0.0,0.0,0.0,0.0,0.0,0.0,0.0,0.0,0.0,0.0,0.0,0.0,0.0,0.0,0.0,0.0,0.0,0.0,0.0,0.0,0.0,0.0,0.0,0.0,0.0,0.0,0.0,0.0,0.0,0.0,0.0,0.0,0.0,0.0,0.0,0.0,0.0,0.0,0.0,0.0,0.0,0.0,0.0,0.0,0.0,0.0,0.0,0.0,-0.661,-0.758,-0.8326,-0.8465,-0.9143,-0.9488,-0.9324,-1.0543,-1.0697,-0.946,0.0,0.0,0.0,0.0,0.0,0.0,0.0,0.0,0.0,0.0,0.0,0.0,0.0,0.0,0.0,0.0,0.0,0.0,0.0,0.0,0.0,0.0,0.0,0.0,0.0,0.0,0.0,0.0,0.0,0.0,0.0,0.0,0.0,0.0,0.0,0.0,0.0,0.0,0.0,0.0,0.0,0.0,0.0,0.0,0.0,0.0,0.0,0.0,0.0,0.0,0.0,0.0,0.0,0.0,0.0,0.0,0.0,0.0,0.0,0.0,0.0,0.0,0.0,0.0,0.0,0.0,0.0,0.0,0.0,0.0,0.0,0.0,0.0,0.0,0.0,0.0,0.0,0.0,0.0,0.0,0.0,0.0,0.0,0.0,0.0,0.0,0.0,0.0,0.0,0.0,0.0,0.0,0.0,0.0,0.0,0.0,0.0,0.0,0.0,0.0,0.0,0.0,-0.6491,-0.7533,-0.8426,-0.8671,-0.9981,-1.0852,-1.0664,-1.1981,-1.2618,-1.2089,0.0,0.0,0.0,0.0,0.0,0.0,0.0,0.0,0.0,0.0,0.0,0.0,0.0,0.0,0.0,0.0,0.0,0.0,0.0,0.0,0.0,0.0,0.0,0.0,0.0,0.0,0.0,0.0,0.0,0.0,0.0,0.0,0.0,0.0,0.0,0.0,0.0,0.0,0.0,0.0,0.0,0.0,0.0,0.0,0.0,0.0,0.0,0.0,0.0,0.0,0.0,0.0,0.0,0.0,0.0,0.0,0.0,0.0,0.0,0.0,0.0,0.0,0.0,0.0,0.0,0.0,0.0,0.0,0.0,0.0,0.0,0.0,0.0,0.0,0.0,0.0,0.0,0.0,0.0,0.0,0.0,0.0,0.0,0.0,0.0,0.0,0.0,0.0,0.0,0.0,0.0,0.0,0.0,0.0,0.0,0.0,0.0,0.0,0.0,0.0,0.0,0.0,-0.6634,-0.7597,-0.8834,-1.0111,-1.0607,-1.127,-1.2098,-1.3314,-1.3499,-1.2175,-1.2822,0.0,0.0,0.0,0.0,0.0,0.0,0.0,0.0,0.0,0.0,0.0,0.0,0.0,0.0,0.0,0.0,0.0,0.0,0.0,0.0,0.0,0.0,0.0,0.0,0.0,0.0,0.0,0.0,0.0,0.0,0.0,0.0,0.0,0.0,0.0,0.0,0.0,0.0,0.0,0.0,0.0,0.0,0.0,0.0,0.0,0.0,0.0,0.0,0.0,0.0,0.0,0.0,0.0,0.0,0.0,0.0,0.0,0.0,0.0,0.0,0.0,0.0,0.0,0.0,0.0,0.0,0.0,0.0,0.0,0.0,0.0,0.0,0.0,0.0,0.0,0.0,0.0,0.0,0.0,0.0,0.0,0.0,0.0,0.0,0.0,0.0,0.0,0.0,0.0,0.0,0.0,0.0,0.0,0.0,0.0,0.0,0.0,0.0,0.0,0.0,0.0,-0.6573,-0.7573,-0.8933,-1.0522,-1.144,-1.2316,-1.3437,-1.4749,-1.5095,-1.3979,-1.4037,0.0,0.0,0.0,0.0,0.0,0.0,0.0,0.0,0.0,0.0,0.0,0.0,0.0,0.0,0.0,0.0,0.0,0.0,0.0,0.0,0.0,0.0,0.0,0.0,0.0,0.0,0.0,0.0,0.0,0.0,0.0,0.0,0.0,0.0,0.0,0.0,0.0,0.0,0.0,0.0,0.0,0.0,0.0,0.0,0.0,0.0,0.0,0.0,0.0,0.0,0.0,0.0,0.0,0.0,0.0,0.0,0.0,0.0,0.0,0.0,0.0,-0.0107,-0.1571,0.0,0.0,0.0,0.0,0.0,0.0,0.0,0.0,0.0,0.0,0.0,0.0,0.0,0.0,0.0,0.0,0.0,0.0,0.0,0.0,0.0,0.0,0.0,0.0,-0.717,-0.7027,-0.6949,0.0,0.0,0.0,0.0,0.0,0.0,0.0,0.0,0.0,0.0,0.0,-0.6491,-0.7702,-0.9191,-1.078,-1.2284,-1.367,-1.4809,-1.5914,-1.64,-1.5865,-1.4923,-1.4302,0.0,0.0,0.0,0.0,0.0,0.0,0.0,0.0,0.0,0.0,0.0,0.0,0.0,0.0,0.0,0.0,0.0,0.0,0.0,0.0,0.0,0.0,0.0,0.0,0.0,0.0,0.0,0.0,0.0,0.0,0.0,0.0,0.6991,0.7114,0.0,0.0,0.0,0.0,0.0,0.0,0.0,0.0,0.0,0.0,0.0,0.0,0.0,0.0,0.0,0.0,0.0,0.0,0.0,0.0,0.0,0.0,0.0,0.0,0.0,0.0,-0.0107,-0.138,0.0,0.0,0.0,0.0,0.0,0.0,0.0,0.0,0.0,0.0,0.0,0.0,0.0,0.0,0.0,0.0,0.0,0.0,0.0,0.0,0.0,0.0,-0.7872,-0.7913,-0.7712,-0.7577,0.0,-0.7021,-0.6332,-0.6566,-0.6403,0.0,0.0,0.0,0.0,0.0,0.0,0.0,-0.6651,-0.8494,-1.0401,-1.1998,-1.3341,-1.4652,-1.5928,-1.6228,-1.6186,-1.5852,-1.5685,-1.5144,-1.4128,-1.4783,0.0,0.0,0.0,0.0,0.0,0.0,0.0,0.0,0.0,0.0,0.0,0.0,0.0,0.0,0.0,0.0,0.0,0.0,0.0,0.0,0.0,0.0,0.0,0.0,0.0,0.0,0.0,0.0,0.0,0.7234,0.6963,0.5756,0.4756,0.3488,0.0,0.0,0.0,0.0,0.0,0.0,0.0,0.0,0.0,0.0,0.0,0.0,0.0,0.0,0.0,0.0,0.0,0.0,0.0,0.0,0.0,0.0,0.0,0.0,-0.0111,-0.1508,-0.276,-0.4123,0.0,0.0,0.0,0.0,-0.7729,-0.7848,-0.7848,-0.8041,-0.8289,-0.8289,0.0,0.0,0.0,0.0,0.0,0.0,0.0,0.0,0.0,0.0,-0.7537,-0.7902,-0.794,-0.7882,-0.8011,-0.7499,-0.7024,0.0,-0.6837,-0.6505,-0.6101,0.0,0.0,0.0,0.0,-0.6902,-0.7058,-0.8106,-0.9772,-1.2159,-1.2872,-1.4068,-1.6168,-1.6273,-1.6146,-1.5845,-1.5832,-1.5451,-1.4616,-1.495,-1.4335,0.0,0.0,0.0,0.0,0.0,0.0,0.0,0.0,0.0,0.0,0.0,0.0,0.0,0.0,0.0,0.0,0.0,0.0,0.0,0.0,0.0,0.0,0.0,0.0,0.0,0.0,0.0,0.0,0.7624,0.7104,0.5376,0.4768,0.3666,0.0,0.0,0.0,0.0,0.0,0.0,0.0,0.0,0.0,0.0,0.0,0.0,0.0,0.0,0.0,0.0,0.0,0.0,0.0,0.0,0.0,0.0,0.0,0.0,-0.0115,-0.1646,-0.3013,-0.4296,-0.5744,-0.7093,-0.8143,-0.8069,-0.8085,-0.8153,-0.8153,-0.835,-0.8594,-0.8554,-0.8498,-0.8302,-0.8123,0.0,0.0,0.0,0.0,-0.724,-0.7416,-0.7439,-0.7468,-0.7885,-0.8038,-0.8038,-0.8038,-0.7807,-0.759,0.0,-0.7302,-0.6946,-0.6458,0.0,0.0,0.0,0.0,-0.7241,-0.7356,-0.8048,-0.9363,-1.1582,-1.2391,-1.3577,-1.5557,-1.5959,-1.6066,-1.5845,-1.5832,-1.5571,-1.499,-1.4963,-1.4369,-1.3192,0.0,0.0,0.0,0.0,0.0,0.0,0.0,0.0,0.0,0.0,0.0,0.0,0.0,0.0,0.0,0.0,0.0,0.0,0.0,0.0,0.0,0.0,0.0,0.0,0.0,0.0,0.0,0.0,0.0,0.8196,0.5985,0.0,0.0,0.0,0.0,0.0,0.0,0.0,0.0,0.0,0.0,0.0,0.0,0.0,0.0,0.0,0.0,0.0,0.0,0.0,0.0,0.0,0.0,0.0,0.0,0.0,-0.0115,-0.1574,-0.3122,-0.4555,-0.5799,-0.72,-0.8425,-0.8143,-0.8218,-0.8459,-0.8459,-0.8659,-0.8893,-0.8858,-0.8727,-0.8407,-0.7815,-0.7617,0.0,0.0,-0.7577,-0.7465,-0.7155,-0.7514,-0.7922,-0.8035,-0.8038,-0.8038,-0.8038,-0.7807,-0.7682,0.0,-0.777,-0.7509,-0.7333,0.0,-0.7177,-0.6732,-0.7061,-0.7363,-0.737,-0.8901,-1.0002,-1.0109,-1.2344,-1.3896,-1.3992,-1.5166,-1.5845,-1.5832,-1.5832,-1.5571,-1.499,-1.4963,-1.4663,-1.4035,-1.318,0.0,0.0,0.0,0.0,0.0,0.0,0.0,0.0,0.0,0.0,0.0,0.0,0.0,0.0,0.0,0.0,0.0,0.0,0.0,0.0,0.0,0.0,0.0,0.0,0.0,0.0,0.0,0.0,0.7171,0.5576,0.0,0.3112,0.1152,0.0,0.0,0.0,0.0,0.0,0.0,0.0,0.0,0.0,0.0,0.0,0.0,0.0,0.0,0.0,0.0,0.0,0.0,0.0,0.0,0.0,0.0,-0.0115,-0.1577,-0.2571,-0.3125,-0.4629,-0.6032,-0.7445,-0.8223,-0.8686,-0.8774,-0.8774,-0.8849,-0.8896,-0.8648,-0.8563,-0.8378,-0.7974,-0.7882,-0.7872,-0.7818,-0.7879,-0.7845,-0.7693,-0.7858,-0.8038,-0.8038,-0.8038,-0.8038,-0.8038,-0.7957,-0.7916,-0.8018,-0.7801,-0.755,-0.7397,-0.7611,-0.7648,-0.72,-0.7512,-0.7801,-0.7801,-0.8329,-0.9019,-0.9899,-1.1556,-1.3006,-1.3872,-1.5045,-1.5832,-1.5832,-1.5651,-1.5378,-1.4983,-1.4776,-1.4489,-1.4095,-1.3774,-1.3046,0.0,0.0,0.0,0.0,0.0,0.0,0.0,0.0,0.0,0.0,0.0,0.0,0.0,0.0,0.0,0.0,0.0,0.0,0.0,0.0,0.0,0.0,0.0,0.0,0.0,0.794,0.7849,0.7081,0.5572,0.4087,0.3085,0.1183,0.0,0.0,0.0,0.0,0.0,0.0,0.0,0.0,0.0,0.0,0.0,0.0,0.0,0.0,0.0,0.0,0.0,0.0,0.0,0.0,0.0,0.0,-0.0113,-0.1016,-0.1462,-0.1678,-0.3688,-0.5363,-0.6813,-0.7817,-0.8491,-0.894,-0.894,-0.8906,-0.8821,-0.8673,-0.8452,-0.8257,-0.8116,-0.8038,-0.8038,-0.8038,-0.8038,-0.8038,-0.8038,-0.8038,-0.8038,-0.8038,-0.8038,-0.8038,-0.8038,-0.7919,-0.7858,-0.8011,-0.7882,-0.7668,-0.7414,-0.7617,-0.7662,-0.7214,-0.7397,-0.7587,-0.7587,-0.7719,-0.8101,-0.9052,-1.0752,-1.2237,-1.3108,-1.4422,-1.5371,-1.5665,-1.513,-1.4803,-1.481,-1.4342,-1.3941,-1.3641,-1.344,-1.2906,-1.2024,0.0,0.0,0.0,0.0,0.0,0.0,0.0,0.0,0.0,0.0,0.0,0.0,0.0,0.0,0.0,0.0,0.0,0.0,0.0,0.0,0.0,0.0,0.0,0.76,0.8119,0.8486,0.8496,0.6129,0.447,0.447,0.1791,0.0,0.0,0.0,0.0,0.0,0.0,0.0,0.0,0.0,0.0,0.0,0.0,0.0,0.0,0.0,0.0,0.0,0.0,0.0,0.0,0.0,0.0,0.0,0.0,0.0,-0.0336,-0.3243,-0.5361,-0.6589,-0.67,-0.7595,-0.8937,-0.893,-0.8941,-0.8908,-0.886,-0.8495,-0.8031,-0.7982,-0.8038,-0.8038,-0.8038,-0.8038,-0.8038,-0.8038,-0.8038,-0.8038,-0.8038,-0.8038,-0.8038,-0.8038,-0.7699,-0.7519,-0.795,-0.8031,-0.7896,-0.7465,-0.7394,-0.7241,-0.68,-0.6736,0.0,-0.6729,-0.7197,-0.7468,-0.7468,-1.0112,-1.1905,-1.1925,-1.329,-1.4449,-1.5324,-1.4302,-1.3921,-1.4496,-1.3694,-1.31,-1.2869,-1.2278,-1.2325,-1.3193,0.0,0.0,0.0,0.0,0.0,0.0,0.0,0.0,0.0,0.0,0.0,0.0,0.0,0.0,0.0,0.0,0.0,0.0,0.0,0.0,0.0,0.757,0.7909,0.8065,0.8316,0.8564,0.8784,0.6217,0.447,0.447,0.1791,0.0,0.0,0.0,0.0,0.0,0.0,0.0,0.0,0.0,0.0,0.0,0.0,0.0,0.0,0.0,0.0,0.0,0.0,0.0,0.0,0.0,0.0,0.0,0.0,0.0,-0.0224,-0.2125,-0.3351,-0.4241,-0.5691,-0.7368,-0.8906,-0.8904,-0.8873,-0.8908,-0.886,-0.8495,-0.8031,-0.7982,-0.8038,-0.8038,-0.8038,-0.8038,-0.8038,-0.8038,-0.8038,-0.8038,-0.8038,-0.8038,-0.8038,-0.8038,-0.7943,-0.7862,-0.7872,-0.7875,-0.7872,-0.7858,-0.7855,-0.7777,-0.7543,-0.7506,0.0,-0.7366,-0.8184,-0.8814,-0.8814,-1.0563,-1.2004,-1.2623,-1.3343,-1.4142,-1.503,-1.4576,-1.4349,-1.4509,-1.4088,-1.3808,-1.3721,-1.2997,-1.2701,0.0,0.0,0.0,0.0,0.0,0.0,0.0,0.0,0.0,0.0,0.0,0.0,0.0,0.0,0.0,0.0,0.0,0.0,0.0,0.0,0.0,0.0,0.7634,0.8021,0.8241,0.8448,0.8669,0.891,0.6813,0.514,0.4582,0.2349,0.0672,0.0,0.0,0.0,0.0,0.0,0.0,0.0,0.0,0.0,0.0,0.0,0.0,0.0,0.0,0.0,0.0,0.0,0.0,0.0,0.0,0.0,0.0,0.0,0.0,0.0,0.0,0.0,0.0,0.0,-0.7928,-0.8903,-0.8883,-0.8859,-0.8897,-0.857,-0.8336,-0.8031,-0.7982,-0.801,-0.7959,-0.7959,-0.8012,-0.8002,-0.8006,-0.7959,-0.8007,-0.7997,-0.8038,-0.8021,-0.796,-0.7897,-0.7872,-0.7811,-0.757,0.0,-0.7807,-0.7699,-0.7482,-0.7204,-0.716,-0.7132,-0.7051,-0.7816,-0.8294,-0.8294,-1.024,-1.1745,-1.2252,-1.2996,0.0,0.0,0.0,-1.3781,-1.3781,-1.3614,0.0,0.0,0.0,-1.2565,-1.2939,0.0,0.0,0.0,-1.2832,-1.2826,0.0,0.0,0.0,0.0,0.0,0.0,0.0,0.0,0.0,0.0,0.0,0.0,0.0,0.0,0.0,0.0,0.7645,0.794,0.8231,0.8496,0.8723,0.8893,0.7572,0.613,0.4693,0.3129,0.1566,0.0112,0.0,0.0,0.0,0.0,0.0,0.0,0.0,0.0,0.0,0.0,0.0,0.0,0.0,0.0,0.0,0.0,0.0,0.0,0.0,0.0,0.0,0.0,0.0,0.0,0.0,-0.1118,-0.3123,-0.7337,-0.8899,-0.8889,-0.8942,0.0,0.0,-0.8143,-0.8044,-0.8008,-0.7979,-0.7962,-0.7923,-0.7731,-0.7709,-0.7744,-0.7717,-0.7827,-0.8023,-0.8024,-0.8014,-0.7974,-0.8018,-0.7763,-0.7638,-0.7716,-0.7255,-0.7099,-0.7482,-0.7248,-0.6865,-0.6451,-0.6386,-0.638,-0.6363,-0.6788,-0.7125,-0.7125,0.0,0.0,-1.1379,-1.2368,-1.3371,-1.4416,-1.348,-1.2976,-1.2976,-1.2976,-1.2652,-1.2131,-1.2118,-1.2512,-1.3307,-1.3307,-1.3741,-1.4536,-1.3213,-1.3327,0.0,0.0,0.0,0.0,0.0,0.0,0.0,0.0,0.0,0.0,0.0,0.0,0.0,0.0,0.0,0.7543,0.7804,0.8058,0.8245,0.8319,0.8455,0.8723,0.744,0.6051,0.4688,0.3129,0.1566,0.0112,0.0,0.0,0.0,0.0,0.0,0.0,0.0,0.0,0.0,0.0,0.0,0.0,0.0,0.0,0.0,0.0,0.0,0.0,0.0,0.0,0.0,0.0,0.0,0.0,0.0,-0.0223,-0.1222,-0.6824,-0.8887,-0.8939,-0.888,-0.8567,-0.8133,-0.8077,-0.7978,-0.7975,-0.8048,-0.798,0.0,-0.6306,-0.5861,-0.5922,-0.5892,-0.6908,-0.8004,-0.7966,-0.7955,-0.8014,-0.7967,-0.7573,-0.73,-0.7523,-0.7437,-0.7275,-0.7234,-0.7363,-0.74,-0.7187,-0.7156,-0.7112,-0.6987,-0.7824,-0.8491,-0.8491,-0.9192,-1.0321,-1.1991,-1.1729,-1.224,-1.4024,-1.3955,-1.3828,-1.3828,-1.3828,-1.3774,-1.3661,-1.3661,-1.3748,-1.3921,-1.3921,-1.4249,-1.487,-1.4583,-1.473,0.0,0.0,0.0,0.0,0.0,0.0,0.0,0.0,0.0,0.0,0.0,0.7054,0.7129,0.0,0.7421,0.7573,0.7723,0.7896,0.8123,0.8153,0.8265,0.856,0.8012,0.6772,0.4521,0.3781,0.246,0.0224,0.0,0.0,0.0,0.0,0.0,0.0,0.0,0.0,0.0,0.0,0.0,0.0,0.0,0.0,0.0,0.0,0.0,0.0,0.0,0.0,0.0,0.0,0.0,0.0,0.0,0.0,-0.0778,-0.6732,-0.8887,-0.889,-0.8584,-0.8269,-0.8044,-0.7971,-0.7999,-0.8038,-0.8038,-0.7986,-0.7804,-0.6923,-0.668,-0.6743,-0.6689,-0.7302,-0.7998,-0.7984,-0.7804,-0.7567,-0.7519,-0.7293,-0.7155,-0.7285,-0.7258,-0.7231,-0.7153,-0.7268,-0.7343,-0.7265,-0.7255,-0.7227,-0.7149,-0.8193,-0.889,-0.889,-1.0065,-1.1244,-1.2207,-1.2484,-1.3022,-1.4055,-1.4088,-1.4088,-1.4088,-1.4088,-1.4088,-1.4088,-1.4088,-1.4088,-1.4088,-1.4088,-1.4315,-1.4743,-1.4743,-1.5057,0.0,0.0,0.0,0.0,0.0,0.0,0.0,0.0,0.6851,0.6915,0.7021,0.7136,0.7251,0.7295,0.7397,0.7645,0.7685,0.777,0.8007,0.8038,0.8126,0.8367,0.853,0.7565,0.4897,0.4522,0.3342,0.0672,0.0112,0.0,0.0,0.0,0.0,0.0,0.0,0.0,0.0,0.0,0.0,0.0,0.0,0.0,0.0,0.0,0.0,0.0,0.0,0.0,0.0,0.0,0.0,0.0,0.0,-0.0665,-0.2316,-0.7116,-0.8807,-0.8701,-0.814,-0.8037,-0.7994,-0.7979,-0.8038,-0.8038,-0.8038,-0.7987,-0.7973,-0.8037,-0.8023,-0.8033,-0.8004,-0.7878,-0.7843,-0.7791,-0.746,-0.7131,-0.708,-0.7138,-0.7105,-0.7074,-0.7139,-0.7139,-0.7139,-0.7139,-0.7139,-0.7139,-0.7139,-0.7139,-0.7139,-0.7929,-0.854,-0.854,-1.0438,-1.1809,-1.2242,-1.3379,-1.4088,-1.4088,-1.4088,-1.4088,-1.4088,-1.4088,-1.4088,-1.4088,-1.4088,-1.4088,-1.4088,-1.4088,-1.4235,-1.4522,-1.4522,-1.493,0.5875,0.6248,0.6726,0.7128,0.7323,0.7269,0.0,0.0,0.7227,0.698,0.7346,0.7716,0.7733,0.7848,0.795,0.7984,0.7991,0.8001,0.8035,0.8038,0.8052,0.8085,0.8225,0.7789,0.6401,0.5017,0.3628,0.2122,0.0784,0.0,0.0,0.0,0.0,0.0,0.0,0.0,0.0,0.0,0.0,0.0,0.0,0.0,0.0,0.0,0.0,0.0,0.0,0.0,0.0,0.0,0.0,0.0,0.0,-0.325,-0.7959,-0.8602,-0.8564,-0.81,-0.8071,-0.7971,-0.7962,-0.8045,-0.8038,-0.8038,-0.8038,-0.8004,-0.8038,-0.8,-0.8023,-0.796,-0.7962,-0.7643,-0.7233,-0.723,-0.7116,-0.7073,-0.7108,-0.7078,-0.7071,-0.7143,-0.7139,-0.7139,-0.7139,-0.7139,-0.7139,-0.7139,-0.7139,-0.7139,-0.7139,-0.7228,-0.7316,-0.7316,-0.8452,-1.0096,-1.2151,-1.3379,-1.4088,-1.4088,-1.4088,-1.4088,-1.4088,-1.4088,-1.4088,-1.4088,-1.4088,-1.4088,-1.4088,-1.4088,-1.4235,-1.4522,-1.4522,-1.4716,0.6644,0.7556,0.8608,0.9185,0.9394,0.9403,0.9727,0.9482,0.9071,0.8328,0.8906,0.9457,0.9013,0.8756,0.8767,0.0,0.8275,0.7744,0.8014,0.8038,0.8038,0.8038,0.8067,0.757,0.6116,0.5737,0.4546,0.2033,0.154,0.0896,0.0,0.0,0.0,0.0,0.0,0.0,0.0,0.0,0.0,0.0,0.0,0.0,0.0,0.0,0.0,0.0,0.0,0.0,0.0,0.0,0.0,0.0,0.0,-0.3405,-0.8337,-0.8367,-0.8183,-0.8044,-0.7961,-0.7992,-0.8038,-0.8038,-0.8038,-0.8024,-0.8034,-0.8007,-0.7976,-0.8027,-0.7784,-0.7459,-0.7502,-0.7277,-0.7142,-0.7088,-0.7141,-0.7125,-0.7064,-0.7139,-0.7139,-0.7139,-0.7139,-0.7139,-0.7139,-0.7139,-0.7139,-0.7139,-0.7139,-0.7139,-0.7139,-0.7115,-0.745,-0.8412,-0.9899,-1.1295,-1.2237,-1.3379,-1.4088,-1.4088,-1.4088,-1.4088,-1.4088,-1.4088,-1.4088,-1.4088,-1.4088,-1.4088,-1.4088,-1.4088,-1.4148,-1.4269,-1.4269,-1.4335,0.8439,0.9145,0.9995,1.0947,1.0969,1.1054,1.1696,1.1214,1.0396,0.9669,1.0192,1.0685,1.0161,0.9705,0.9545,0.9959,0.8598,0.7694,0.7908,0.8038,0.7994,0.7973,0.7955,0.7475,0.5998,0.6329,0.5817,0.3806,0.2407,0.1118,0.0112,0.0,0.0,0.0,0.0,0.0,0.0,0.0,0.0,0.0,0.0,0.0,0.0,0.0,0.0,0.0,0.0,0.0,0.0,0.0,0.0,0.0,0.0,-0.2401,-0.5774,-0.5748,-0.6768,-0.7991,-0.7979,-0.8038,-0.8038,-0.8038,-0.8011,-0.7957,-0.8042,-0.7883,-0.7723,-0.7771,-0.7439,-0.7118,-0.7067,-0.7121,-0.7095,-0.7078,-0.7139,-0.7139,-0.7139,-0.7139,-0.7139,-0.7139,-0.7139,-0.7139,-0.7139,-0.7139,-0.7139,-0.7139,-0.7139,-0.7139,-0.7139,-0.7102,-0.7676,-0.9307,-1.0701,-1.1855,-1.276,-1.3561,-1.4088,-1.4088,-1.4088,-1.4088,-1.4088,-1.4088,-1.4088,-1.4088,-1.4088,-1.4088,-1.4088,-1.4088,-1.4088,-1.4088,-1.4088,-1.4088,1.1842,1.1172,1.0313,1.1228,1.149,1.1311,1.0771,1.0611,1.0611,1.0529,1.071,1.0776,1.0786,1.0408,1.0123,1.0136,0.8916,0.8028,0.8038,0.8038,0.7979,0.8015,0.804,0.7636,0.0,0.6889,0.755,0.8562,0.3346,0.0,0.0,0.0,0.0,0.0,0.0,0.0,0.0,0.0,0.0,0.0,0.0,0.0,0.0,0.0,0.0,0.0,0.0,0.0,0.0,0.0,0.0,0.0,0.0,-0.0102,-0.0201,-0.02,-0.3507,-0.7975,-0.8048,-0.8038,-0.8038,-0.8038,-0.8041,-0.8014,-0.8011,-0.7617,-0.7095,-0.7135,-0.7096,-0.7063,-0.7098,-0.7058,-0.7058,-0.7143,-0.7139,-0.7139,-0.7139,-0.7139,-0.7139,-0.7139,-0.7139,-0.7139,-0.7139,-0.7139,-0.7139,-0.7139,-0.7139,-0.7139,-0.7139,-0.7102,-0.7744,-0.9321,-0.9568,-1.081,-1.3808,-1.4088,-1.4088,-1.4088,-1.4088,-1.4088,-1.4088,-1.4088,-1.4088,-1.4088,-1.4088,-1.4088,-1.4088,-1.4088,-1.4088,-1.4088,-1.4088,-1.4088,1.1451,1.1821,1.219,1.2293,1.2766,1.3156,1.2996,1.2954,1.2687,1.1901,1.191,1.2089,1.1881,1.0985,1.0484,1.1181,0.9443,0.7997,0.7959,0.8015,0.797,0.7962,0.7011,0.0,0.0,0.0,0.0,0.8028,0.6741,0.4129,0.0223,0.0,0.0,0.0,0.0,0.0,0.0,0.0,0.0,0.0,0.0,0.0,0.0,0.0,0.0,0.0,0.0,0.0,0.0,0.0,0.0,0.0,0.0,0.0,0.0,0.0,-0.3388,-0.7957,-0.8018,-0.7974,-0.799,-0.799,-0.799,-0.7946,-0.755,-0.7293,-0.7132,-0.7078,-0.7125,-0.7115,-0.7064,-0.7139,-0.7139,-0.7139,-0.7139,-0.7139,-0.7139,-0.7139,-0.7139,-0.7139,-0.7139,-0.7139,-0.7139,-0.7065,-0.7056,-0.7126,-0.7104,-0.7139,-0.7139,-0.9851,-1.1947,-1.2452,-1.1193,-1.065,-1.1725,-1.3171,-1.4088,-1.4088,-1.4088,-1.4088,-1.4088,-1.4088,-1.4088,-1.4088,-1.4088,-1.4088,-1.4088,-1.4088,-1.4088,-1.4088,-1.4088,-1.4088,1.2212,1.323,1.4194,1.345,1.3974,1.4573,1.4173,1.4088,1.3906,1.3118,1.311,1.3206,1.3054,1.1775,1.1165,1.2463,1.1308,0.9469,0.7344,0.7587,0.7779,0.7158,0.6641,0.6325,0.0,0.0,0.0,0.803,0.8635,0.7183,0.3331,0.3209,0.3213,0.3133,0.1079,0.0,0.0,0.0,0.0,0.0,0.0,0.0,0.0,0.0,0.0,0.0,0.0,0.0,0.0,0.0,0.0,0.0,0.0,0.0,0.0,0.0,-0.2153,-0.5451,-0.7328,-0.7969,-0.7934,-0.7736,-0.7638,-0.7595,-0.7211,-0.7144,-0.7085,-0.7078,-0.7139,-0.7139,-0.7139,-0.7139,-0.7139,-0.7139,-0.7139,-0.7139,-0.7139,-0.7139,-0.7126,-0.7078,-0.7068,-0.7135,-0.7083,-0.6909,-0.6814,-0.6802,-0.6776,-0.6887,-0.7046,-0.9705,-1.2242,-1.392,-1.2716,-1.1873,-1.1873,-1.3265,-1.4049,-1.387,-1.387,-1.3864,-1.3774,-1.3774,-1.3774,-1.3774,-1.3774,-1.3821,-1.3928,-1.3928,-1.3981,-1.4088,-1.4088,-1.4088,1.4117,1.525,1.6065,1.4587,1.4977,1.5462,1.4489,1.4166,1.4075,1.4112,1.4065,1.396,0.0,0.0,1.186,1.3546,1.3944,1.2212,0.6744,0.7106,0.7359,0.0,0.0,0.0,0.0,0.0,0.0,0.8817,0.0,0.8758,0.8711,0.8795,0.8829,0.8853,0.3386,0.0419,0.0411,0.0411,0.0306,0.0,0.0,0.0,0.0,0.0,0.0,0.0,0.0,0.0,0.0,0.0,0.0,0.0,0.0,0.0,0.0,0.0,0.0,-0.0761,-0.5818,-0.7723,-0.7879,-0.7299,-0.7102,-0.7077,-0.7077,-0.7075,-0.7139,-0.7139,-0.7139,-0.7139,-0.7139,-0.7139,-0.7139,-0.7139,-0.7139,-0.7139,-0.7132,-0.7129,-0.7088,-0.7121,-0.7093,-0.7045,-0.7058,-0.6605,-0.6261,-0.6338,-0.6338,-0.6493,-0.6962,-0.7037,-0.8801,-1.3238,-1.3688,-1.3801,-1.3989,-1.3992,-1.3843,-1.3478,-1.3478,-1.3392,-1.3206,-1.3206,-1.3206,-1.3213,-1.3213,-1.3347,-1.3539,-1.3539,-1.3768,-1.4041,-1.4041,-1.4041,1.5089,1.5948,1.6943,1.6561,1.6116,1.5861,1.6363,1.5228,1.4144,1.4308,1.3152,1.2487,0.0,0.0,0.0,1.0073,1.237,0.0,1.3203,1.0206,0.0,0.7382,0.7724,0.8029,0.7974,0.8035,0.0,0.0,0.7472,0.6749,0.6357,0.7498,0.823,0.8247,0.6763,0.598,0.5984,0.5997,0.3949,0.0,0.0,0.0,0.0,0.0,0.0,0.0,0.0,0.0,0.0,0.0,0.0,0.0,0.0,0.0,0.0,0.0,0.0,-0.0186,-0.1588,-0.4384,-0.7263,-0.7148,-0.7138,-0.7108,-0.7108,-0.7081,-0.7139,-0.7139,-0.7139,-0.7139,-0.7139,-0.7139,-0.7139,-0.7139,-0.7139,-0.7112,-0.7097,-0.7073,-0.7114,-0.7133,-0.6759,-0.6536,-0.6475,-0.6364,-0.6327,-0.6307,-0.6291,-0.6364,-0.6483,-0.6525,-0.6975,-0.8141,-0.8298,-0.9498,-1.2533,-1.2778,-1.2679,-1.2593,-1.3035,-1.3206,-1.2949,-1.2949,-1.3035,-1.3213,-1.3213,-1.3247,-1.332,-1.332,-1.336,-1.3434,-1.3434,-1.3434,1.6288,1.7415,1.855,1.7577,1.7253,1.7082,1.6763,1.5397,1.4209,1.4271,1.2762,1.1671,1.2419,1.1148,0.9695,0.0,0.0,0.0,1.5672,1.1939,0.8832,0.0,0.7978,0.0,0.7994,0.8038,0.7974,0.0,0.7413,0.6901,0.655,0.7518,0.8048,0.7968,0.7971,0.8039,0.7969,0.7992,0.534,0.0,0.0,0.0,0.0,0.0,0.0,0.0,0.0,0.0,0.0,0.0,0.0,0.0,0.0,0.0,0.0,0.0,0.0,-0.0091,-0.0638,-0.2183,-0.4365,-0.646,-0.7128,-0.7139,-0.7139,-0.7139,-0.7139,-0.7139,-0.7139,-0.7139,-0.7139,-0.7139,-0.7126,-0.7065,-0.7135,-0.7097,-0.7123,-0.6915,-0.6783,-0.6716,-0.6468,-0.6314,-0.6311,-0.6297,-0.627,-0.6274,-0.6338,-0.6318,-0.6321,-0.6271,-0.6961,-0.8779,-0.8907,-0.9813,-1.21,-1.2312,-1.2293,-1.2293,-1.2639,-1.2729,-1.2639,-1.2639,-1.2722,-1.2812,-1.2812,-1.2879,-1.3006,-1.3006,-1.308,-1.3213,-1.3213,-1.3213,1.768,1.9034,2.0157,1.823,1.839,1.861,1.6979,1.5503,1.4471,1.4364,1.2781,1.1317,1.0714,1.0852,1.0532,0.9034,0.0,1.4448,1.542,1.2708,1.0058,0.8549,0.8181,0.7969,0.798,0.7984,0.7977,0.8035,0.7974,0.7998,0.804,0.8013,0.8026,0.8028,0.7922,0.7908,0.7908,0.7912,0.5584,0.0994,0.0294,0.0,0.0,0.0,0.0,0.0,0.0,0.0,0.0,0.0,0.0,0.0,0.0,0.0,0.0,0.0,0.0,-0.018,-0.1165,-0.0984,-0.0983,-0.5277,-0.6707,-0.6871,-0.7054,-0.7143,-0.7139,-0.7139,-0.7139,-0.7136,-0.7027,-0.7024,-0.7078,-0.7022,-0.6987,-0.7031,-0.6961,-0.6654,-0.6267,-0.6304,-0.6264,-0.6338,-0.6338,-0.6338,-0.6338,-0.6338,-0.6338,-0.6338,-0.6338,-0.6297,-0.7859,-1.1833,-1.2332,-1.2302,-1.2302,-1.2311,-1.2331,-1.2318,-1.2318,-1.2318,-1.2305,-1.2305,-1.2305,-1.2305,-1.2305,-1.2425,-1.2761,-1.2761,-1.2826,-1.3093,-1.3093,-1.3093,1.9192,1.9782,2.0479,2.0157,1.952,1.9158,1.9656,1.7459,0.0,1.5389,1.3576,1.1691,1.0773,0.9887,0.918,0.8877,1.176,1.4151,1.4348,1.2211,1.0488,0.0,0.8913,0.8037,0.8024,0.797,0.0,0.0,0.797,0.8038,0.7963,0.8038,0.796,0.8038,0.7815,0.7654,0.7654,0.765,0.7209,0.6236,0.2006,0.0,0.0,0.0,0.0,0.0,0.0,0.0,0.0,0.0,0.0,0.0,0.0,0.0,0.0,0.0,0.0,0.0,-0.0269,-0.0807,-0.1789,-0.3573,-0.4641,-0.5445,-0.6713,-0.7068,-0.7139,-0.7139,-0.7139,-0.7024,-0.6907,-0.6791,-0.6751,-0.6776,-0.6569,-0.6443,-0.6458,-0.6337,-0.6329,-0.6302,-0.6278,-0.6338,-0.6338,-0.6338,-0.6338,-0.6338,-0.6338,-0.6338,-0.6338,-0.6297,-0.7859,-1.1833,-1.2322,-1.2339,-1.2339,-1.2326,-1.228,-1.2263,-1.233,-1.2304,-1.2305,-1.2305,-1.2305,-1.2305,-1.2305,-1.2325,-1.2378,-1.2378,-1.2405,-1.2458,-1.2458,-1.2458,1.9521,1.9912,2.0566,2.0566,2.0235,1.9695,1.936,0.0,0.0,1.493,1.3019,1.1364,1.1223,1.0434,0.9843,1.0134,1.0811,1.1359,1.1361,1.0903,1.1244,1.3105,1.2608,1.0605,0.6967,0.7513,0.7986,0.8026,0.7991,0.8006,0.8021,0.7963,0.7885,0.7814,0.764,0.7604,0.7604,0.7638,0.7224,0.6552,0.3942,0.215,0.1217,0.0371,0.0,0.0,0.0,0.0,0.0,0.0,0.0,0.0,0.0,0.0,0.0,0.0,0.0,0.0,0.0,-0.0359,-0.0986,-0.1522,-0.286,-0.4463,-0.5811,-0.6257,-0.6325,-0.6873,-0.7031,-0.6997,-0.6763,-0.6723,-0.6686,-0.662,-0.6441,-0.6284,-0.6297,-0.6308,-0.6338,-0.6338,-0.6338,-0.6338,-0.6338,-0.6338,-0.6338,-0.6338,-0.627,-0.6298,-0.6298,-0.6286,-0.7037,-0.9003,-0.9195,-0.9165,-0.9175,-0.9165,-0.9171,-0.9169,-1.1119,-1.2301,-1.2331,-1.2331,-1.2331,-1.2331,-1.209,-1.2006,-1.2006,-1.185,-1.1844,-1.1844,-1.1844,-1.1931,1.9697,2.0059,2.0566,2.0566,2.0566,2.0166,1.8633,1.7121,0.0,1.4625,1.2782,1.1549,1.2013,1.154,1.1191,0.0,1.0642,0.9915,0.9964,1.0723,1.2475,1.5425,1.5792,0.0,0.8159,0.8223,0.0,0.7478,0.767,0.7827,0.7919,0.7831,0.7716,0.7604,0.7567,0.755,0.755,0.7519,0.6935,0.5895,0.5344,0.4485,0.3301,0.1081,0.0,0.0,0.0,0.0,0.0,0.0,0.0,0.0,0.0,0.0,0.0,0.0,0.0,0.0,0.0,0.0,0.0,0.0,-0.1418,-0.3459,-0.4612,-0.5129,-0.5531,-0.6566,-0.6878,-0.6844,-0.6692,-0.6651,-0.6614,-0.6544,-0.6421,-0.6338,-0.6338,-0.6338,-0.6338,-0.6338,-0.6338,-0.6328,-0.6294,-0.629,-0.628,-0.6322,-0.6293,-0.6286,-0.6134,-0.6099,-0.6085,-0.6094,-0.7002,-0.7599,-0.7561,-0.7388,-0.7249,-0.7242,-1.0191,-1.195,-1.193,-1.1909,-1.197,-1.197,-1.1669,-1.1587,-1.1662,-1.1505,-1.1423,-1.1423,-1.1423,-1.155,2.0254,2.0508,2.0566,2.0566,2.0566,2.0322,1.9385,0.0,1.687,1.5576,1.4198,1.3204,1.3105,1.2871,1.2603,1.2277,0.0,1.363,1.3603,1.3675,1.426,1.5609,0.0,0.0,1.4874,1.2135,0.9034,0.591,0.6638,0.7386,0.7732,0.7628,0.7614,0.76,0.7465,0.7394,0.7394,0.7251,0.7091,0.691,0.5552,0.5466,0.656,0.2056,0.0,0.0,0.0,0.0,0.0,0.0,0.0,0.0,0.0,0.0,0.0,0.0,0.0,0.0,0.0,0.0,0.0,0.0,-0.0857,-0.2172,-0.3213,-0.4278,-0.5385,-0.6386,-0.6722,-0.6685,-0.6532,-0.6491,-0.6458,-0.6393,-0.6349,-0.6338,-0.6338,-0.6338,-0.6338,-0.6338,-0.6338,-0.6294,-0.631,-0.6286,-0.6311,-0.6313,-0.6281,-0.6118,-0.5525,-0.5512,-0.5496,-0.5477,-0.9272,-1.1762,-1.1729,-1.0832,-1.017,-1.0219,-1.0548,-1.0791,-1.0779,-1.0779,-1.0735,-1.0735,-1.1041,-1.1273,-1.143,-1.143,-1.1423,-1.1423,-1.1423,-1.1443,1.9072,1.9785,2.0566,2.0566,2.0566,2.0205,1.8828,0.0,1.6543,1.4971,1.3838,1.3132,1.3039,1.2588,1.2172,1.1867,0.0,0.0,1.1016,1.2741,1.4497,1.5689,1.58,0.0,0.0,0.0,1.1695,0.6783,0.6857,0.7204,0.7312,0.7411,0.7421,0.7326,0.7265,0.7231,0.7231,0.717,0.7139,0.7051,0.6511,0.6523,0.6996,0.5097,0.268,0.0,0.0,0.0,0.0,0.0,0.0,0.0,0.0,0.0,0.0,0.0,0.0,0.0,0.0,0.0,0.0,0.0,-0.0335,-0.1004,-0.2792,-0.3626,-0.434,-0.6094,-0.6563,-0.6529,-0.6383,-0.6346,-0.6332,-0.6274,-0.6338,-0.6338,-0.6338,-0.6266,-0.628,-0.628,-0.6279,-0.6268,-0.628,-0.5967,-0.5722,-0.5738,-0.5728,-0.5674,-0.5457,-0.5378,-0.5388,-0.5372,-0.704,-0.8141,-0.8167,-0.7715,-0.7487,-0.7451,-0.7489,-0.8388,-1.0515,-1.0627,-1.0607,-1.0607,-1.0751,-1.083,-1.0909,-1.0909,-1.0909,-1.0909,-1.0909,-1.0995,1.8477,1.9453,2.0566,2.0566,2.0371,1.9805,0.0,0.0,1.6074,1.4408,1.3564,1.3027,1.29,1.2501,1.2091,0.0,0.0,1.0593,0.9507,1.2086,1.4402,1.519,0.0,1.5455,1.5749,1.549,1.3174,0.7983,0.7272,0.7112,0.7082,0.7214,0.7238,0.7143,0.7139,0.7139,0.7139,0.7139,0.7139,0.7139,0.7139,0.7082,0.7063,0.7112,0.5313,0.2,0.0621,0.0168,0.0,0.017,0.0,0.0,0.0,0.0,0.0,0.0,0.0,0.0,0.0,0.0,0.0,0.0,0.0,-0.0323,-0.2209,-0.3038,-0.3598,-0.5468,-0.6165,-0.6386,-0.6288,-0.6338,-0.6328,-0.6283,-0.6273,-0.6336,-0.6291,-0.6271,-0.6268,-0.604,-0.6026,-0.6011,-0.604,-0.5668,-0.5432,-0.539,-0.5372,-0.5381,-0.5381,-0.5426,-0.5428,-0.5428,-0.5378,-0.5415,-0.5399,-0.6352,-0.6911,-0.6939,-0.6912,-0.8058,-1.052,-1.0571,-1.0347,-0.9843,-0.9843,-0.9843,-0.9843,-0.9843,-0.9843,-0.9843,-0.9843,-0.9943,1.9043,1.9912,2.0566,2.0566,1.9922,1.9072,1.8203,1.7002,1.5703,1.4404,1.3799,1.3379,1.2959,1.2881,1.2928,1.3155,1.2423,0.0,1.067,1.2577,1.4079,0.0,1.4135,1.4573,1.5679,1.4776,1.2604,0.902,0.7744,0.0,0.7073,0.7131,0.7095,0.7139,0.7139,0.7139,0.7139,0.7139,0.7139,0.7139,0.7139,0.7086,0.7075,0.7139,0.7111,0.6789,0.2086,0.0682,0.0,0.0508,0.0,0.0,0.0,0.0,0.0,0.0,0.0,0.0,0.0,0.0,0.0,0.0,0.0,-0.0236,-0.1255,-0.2348,-0.3359,-0.4375,-0.5473,-0.6342,-0.6338,-0.6338,-0.63,-0.6303,-0.6264,-0.6296,-0.6288,-0.6323,-0.6101,-0.5509,-0.5434,-0.539,-0.5401,-0.5378,-0.5398,-0.5389,-0.5432,-0.5428,-0.5428,-0.5428,-0.5428,-0.5428,-0.5428,-0.5432,-0.5428,-0.8573,-1.0546,-1.0539,-1.0528,-1.0549,-1.0621,-1.062,-0.9792,-0.8091,-0.8027,-0.8027,-0.8027,-0.8027,-0.8027,-0.8027,-0.8027,-0.8027,1.7471,1.8164,1.8818,1.8818,1.8613,1.8193,1.7334,1.6348,1.5332,1.4282,1.3574,1.3037,1.29,1.2881,1.3039,1.355,1.338,0.0,0.0,0.0,0.0,1.2222,1.3329,1.4233,0.0,0.0,1.3634,1.2502,1.2099,1.1864,1.1888,1.1858,1.041,0.7183,0.7122,0.7139,0.7139,0.7139,0.7139,0.7139,0.7139,0.7083,0.7068,0.5886,0.5987,0.7029,0.5535,0.0,0.0,0.0165,0.0,0.0,0.0,0.0,0.0,0.0,0.0,0.0,0.0,0.0,0.0,0.0,0.0,-0.0079,-0.0392,-0.1254,-0.2425,-0.3904,-0.5312,-0.6314,-0.6287,-0.6335,-0.6296,-0.6288,-0.595,-0.5712,-0.5663,-0.5654,-0.5657,-0.544,-0.5428,-0.5416,-0.5373,-0.5433,-0.5416,-0.5369,-0.5428,-0.5428,-0.5428,-0.5428,-0.5428,-0.5428,-0.5428,-0.5415,-0.5384,-0.6404,-0.7077,-0.7046,-0.7028,-0.7015,-0.7015,-0.7066,-0.7321,-0.7976,-0.6841,-0.7113,-0.8877,-0.8285,-0.8027,-0.8027,-0.8027,-0.8027,0.0,1.7363,1.8008,1.8008,1.7764,0.0,1.6792,1.5928,1.498,1.4223,1.3975,1.3643,1.2998,1.3271,1.3597,1.3471,1.3947,1.3783,0.0,0.0,1.1519,1.2298,1.338,0.0,0.0,1.4063,1.4068,1.4128,1.4131,1.4097,1.4064,1.413,1.2745,0.9812,0.7983,0.7122,0.7139,0.7139,0.7139,0.7139,0.7139,0.714,0.7062,0.5294,0.5457,0.7084,0.0,0.0,0.0,0.154,0.1202,0.1074,0.0317,0.0,0.0,0.0,0.0,0.0,0.0,0.0,0.0,0.0,0.0,0.0,0.0,-0.0851,-0.2241,-0.4404,-0.5603,-0.6303,-0.6282,-0.6327,-0.6211,-0.6051,-0.5651,-0.5416,-0.5431,-0.5421,-0.5433,-0.5433,-0.5426,-0.5428,-0.5428,-0.5428,-0.5428,-0.5428,-0.5428,-0.5428,-0.5428,-0.5428,-0.5428,-0.5428,-0.5428,-0.5415,-0.5387,-0.5384,-0.5377,-0.5418,-0.5418,-0.5418,-0.5418,-0.5418,-0.5883,-0.701,-0.6628,-0.6837,-0.7842,-0.7316,-0.6985,-0.6985,-0.6985,-0.6985,0.0,1.7217,1.7822,1.7822,1.7227,1.6641,1.6641,1.5674,0.0,1.4336,1.4883,1.4932,1.335,1.4082,1.4512,1.3262,1.4274,1.4547,1.2568,1.236,1.2781,1.3758,1.402,0.0,1.4068,1.4126,1.4088,1.4088,1.4088,1.4088,1.4088,1.4077,1.4123,1.413,0.9899,0.7446,0.7136,0.7139,0.7115,0.7065,0.7105,0.714,0.7069,0.5413,0.5499,0.0,0.0,0.0,0.0,0.4281,0.3346,0.3124,0.1173,0.0235,0.0,0.0,0.0,0.0,0.0,0.0,0.0,0.0,0.0,0.0,0.0,-0.0905,-0.2488,-0.5144,-0.6099,-0.6266,-0.6255,-0.6241,-0.6118,-0.5537,-0.5431,-0.5395,-0.5393,-0.5428,-0.5428,-0.5428,-0.5428,-0.5428,-0.5428,-0.5428,-0.5428,-0.5428,-0.5428,-0.5428,-0.5428,-0.5428,-0.5428,-0.5428,-0.5428,-0.5428,-0.5428,-0.5428,-0.5428,-0.5428,-0.5428,-0.5428,-0.5428,-0.5428,-0.5428,-0.5491,-0.7083,-0.7078,-0.5411,-0.5411,-0.5408,-0.5394,-0.5394,-0.5394,1.5486,0.0,1.6025,1.6025,1.5869,1.5723,0.0,1.5234,1.4941,1.5498,0.0,1.5293,1.4893,1.5615,1.5957,1.4971,1.5638,1.5888,1.4556,1.387,1.3014,1.1924,1.3154,1.4114,1.4106,1.4075,1.4088,1.4088,1.4088,1.4088,1.4088,1.4108,1.4064,1.413,1.3034,1.0707,0.7176,0.7122,0.7119,0.7102,0.7104,0.7081,0.7104,0.6257,0.6099,0.0,0.0,0.0,0.6318,0.5758,0.5584,0.5485,0.5018,0.2818,0.0,0.0,0.0,0.0,0.0,0.0,0.0,0.0,0.0,0.0,0.0,-0.022,-0.066,-0.132,-0.3803,-0.619,-0.5701,-0.5597,-0.5557,-0.5406,-0.5373,-0.543,-0.5382,-0.5376,-0.5372,-0.5428,-0.5428,-0.5428,-0.5428,-0.5428,-0.5428,-0.5428,-0.5428,-0.5428,-0.5428,-0.5428,-0.5428,-0.5428,-0.5428,-0.5428,-0.5428,-0.5428,-0.5428,-0.5428,-0.5428,-0.5428,-0.5428,-0.5428,-0.5822,-0.6675,-0.6881,-0.6416,-0.5186,-0.5186,-0.5128,-0.5023,-0.5023,-0.5023,1.5294,1.5273,1.5273,1.5869,1.5566,1.5283,1.5879,0.0,0.0,0.0,0.0,0.0,1.5195,1.5674,1.5908,1.5234,1.5527,1.5722,1.5442,1.4517,1.3369,1.1927,1.2713,1.3589,0.0,1.409,1.4088,1.4088,1.4088,1.4088,1.4088,1.4088,1.4108,1.407,1.4082,1.186,0.7111,0.7135,0.7115,0.711,0.5758,0.5643,0.6751,0.6451,0.6301,0.0,0.0,0.0,0.6321,0.6271,0.631,0.6271,0.6285,0.3754,0.0,0.0,0.0,0.0,0.0,0.0,0.0,0.0,0.0,0.0,0.0,0.0,0.0,0.0,-0.1629,-0.3356,-0.3031,-0.2947,-0.2933,-0.2889,-0.2947,-0.2945,-0.2941,-0.4223,-0.5376,-0.5369,-0.5432,-0.5428,-0.5428,-0.5428,-0.5428,-0.5428,-0.5428,-0.5428,-0.5428,-0.5367,-0.539,-0.539,-0.5132,-0.496,-0.496,-0.5091,-0.5118,-0.4984,-0.4987,-0.5026,-0.5162,-0.5159,-0.5474,-0.6042,-0.5911,-0.5612,-0.5033,-0.5033,-0.4996,-0.4918,-0.4918,-0.4918,1.5352,1.5059,1.5019,1.6387,1.5801,1.5205,1.6455,0.0,0.0,0.0,0.0,0.0,0.0,1.5742,0.0,0.0,1.5,1.5215,1.5632,1.5016,1.414,1.31,1.3155,0.0,1.4356,1.4409,1.4328,1.4328,1.4166,1.4088,1.4088,1.4041,1.3931,1.3931,1.4,1.1987,0.7966,0.7923,0.7865,0.7845,0.4392,0.3947,0.6291,0.6325,0.6291,0.6318,0.0,0.0,0.5912,0.6223,0.6295,0.6335,0.6325,0.4117,0.085,0.0227,0.0,0.0,0.0,0.0,0.0,0.0,0.0,0.0,0.0,0.0,0.0,0.0,0.0,0.0,0.0,0.0,0.0,0.0,0.0,0.0,0.0,-0.2404,-0.4761,-0.5306,-0.5369,-0.5428,-0.5428,-0.5408,-0.5394,-0.5394,-0.5377,-0.536,-0.5294,-0.5246,-0.5294,-0.5294,-0.48,-0.4482,-0.4482,-0.4732,-0.4771,-0.454,-0.4505,-0.4659,-0.4864,-0.4918,-0.4857,-0.4796,-0.4857,-0.4908,-0.4884,-0.4884,-0.487,-0.485,-0.485,-0.485,1.5225,1.4834,1.4583,1.6247,1.6016,1.5566,1.6514,0.0,0.0,0.0,0.0,0.0,0.0,1.8516,1.8799,1.5801,1.5947,1.6235,1.5753,0.0,1.6111,1.4845,0.0,1.6409,1.6086,1.5717,1.5455,1.5455,1.4566,1.4088,1.4088,1.3655,1.3346,1.3346,1.3353,1.2739,1.154,1.1502,1.1504,1.1401,0.5527,0.3997,0.6321,0.6325,0.6281,0.6335,0.0,0.541,0.4119,0.5634,0.6276,0.6325,0.6287,0.5931,0.4916,0.1326,0.0,0.0,0.0,0.0,0.0,0.0,0.0,0.0,0.0,0.0,0.0,0.0,0.0,0.0,0.0,0.0,0.0,0.0,0.0,0.0,0.0,-0.0466,-0.1731,-0.4818,-0.5428,-0.5428,-0.5428,-0.5387,-0.5428,-0.5428,-0.5387,-0.5239,-0.4732,-0.4651,-0.4636,-0.4636,-0.4555,-0.4482,-0.4482,-0.4543,-0.4562,-0.4523,-0.4632,-0.4816,-0.4921,-0.4918,-0.4918,-0.4857,-0.4918,-0.4857,-0.4724,-0.4724,-0.466,-0.4587,-0.4587,-0.4587,1.4972,1.4666,1.4834,1.6602,1.5898,1.5312,1.7598,0.0,0.0,0.0,0.0,0.0,0.0,0.0,1.7422,1.6309,1.7627,1.8484,1.7426,1.7618,1.7469,0.0,0.0,1.6796,1.6017,1.5771,1.5696,1.5696,1.4734,1.4015,1.3854,1.3536,1.3385,1.3233,1.3113,1.2893,1.2649,1.2395,1.2311,1.2211,0.7098,0.5243,0.6304,0.6279,0.6338,0.6325,0.0,0.5806,0.5126,0.5985,0.6295,0.6277,0.6279,0.6075,0.5316,0.1435,0.0,0.0,0.0,0.0,0.0,0.0,0.0,0.0,0.0,0.0,0.0,0.0,0.0,0.0,0.0,0.0,0.0,0.0,0.0,-0.0538,-0.249,-0.2887,-0.3405,-0.5088,-0.5401,-0.4767,-0.2815,-0.2458,-0.275,-0.3571,-0.3655,-0.3564,-0.3315,-0.3267,-0.3592,-0.4439,-0.401,-0.3906,-0.4436,-0.4493,-0.45,-0.451,-0.4558,-0.4674,-0.4674,-0.4674,-0.4674,-0.4674,-0.4674,-0.4636,-0.4568,-0.4568,-0.4587,-0.4519,-0.4519,-0.4294,1.458,1.4427,1.475,1.6181,0.0,1.5039,1.8506,0.0,0.0,0.0,0.0,0.0,0.0,1.6377,1.6035,1.7021,1.8828,1.9873,1.9189,1.9092,1.8821,1.8067,1.7933,1.7542,1.6865,1.6596,1.6398,1.632,1.5352,1.4413,1.3865,1.3789,1.3566,1.3106,1.2889,1.2728,1.2728,1.2418,1.2287,1.2277,0.9212,0.7471,0.6988,0.6548,0.6321,0.63,0.6226,0.619,0.6169,0.6176,0.6172,0.6113,0.6108,0.5816,0.5062,0.2297,0.075,0.0,0.0,0.0,0.0,0.0,0.0,0.0,0.0,0.0,0.0,0.0,0.0,0.0,0.0,0.0,0.0,0.0,0.0,-0.0739,-0.3556,-0.4146,-0.4167,-0.4124,-0.4152,-0.3283,-0.0493,0.0,-0.0364,-0.1517,-0.169,-0.1741,-0.1982,-0.2059,-0.255,-0.3831,-0.3286,-0.3118,-0.3901,-0.3959,-0.3946,-0.3989,-0.43,-0.4519,-0.4519,-0.4519,-0.4519,-0.4519,-0.4519,-0.4405,-0.4236,-0.4236,-0.4125,-0.3959,-0.3959,-0.3677,1.415,1.3929,1.3805,1.3935,1.4035,0.0,1.8506,1.6953,0.0,1.8662,0.0,0.0,0.0,1.748,1.6977,1.8222,1.8652,1.916,2.0273,0.0,2.041,2.0381,2.0333,2.0333,2.0227,1.9367,1.8558,1.8115,1.7136,1.5953,1.4621,1.4325,1.3777,1.2856,1.2492,1.2338,1.2338,1.2311,1.2305,1.2318,1.2,1.0893,0.905,0.7179,0.6273,0.6266,0.5979,0.5861,0.5803,0.5847,0.5714,0.5434,0.5444,0.5456,0.5343,0.5125,0.2883,0.0,0.0,0.0,0.0,0.0,0.0,0.0,0.0,0.0,0.0,0.0,0.0,0.0,0.0,0.0,0.0,0.0,0.0,-0.0067,-0.0325,-0.0386,-0.0382,-0.0371,-0.0369,-0.0307,-0.0061,0.0,-0.0059,-0.0117,-0.0172,-0.0505,-0.1402,-0.1568,-0.1733,-0.2296,-0.2289,-0.2286,-0.2343,-0.2343,-0.2345,-0.235,-0.3683,-0.4519,-0.4519,-0.4519,-0.4519,-0.4519,-0.4519,-0.4181,-0.3456,-0.34,-0.301,-0.2343,-0.2343,-0.2343,1.335,1.3302,1.3471,1.4478,1.4054,0.0,0.0,1.7168,1.6436,1.9463,1.8115,0.0,0.0,0.0,1.8008,1.8484,1.9307,2.0,2.0498,2.0566,2.0566,2.0566,2.0566,2.0566,2.0566,1.9366,1.8524,1.8294,1.703,1.5666,1.444,1.4238,1.37,1.2553,1.2365,1.2305,1.2305,1.2305,1.2318,1.2277,1.233,1.1883,1.1166,0.9958,0.8802,0.7616,0.7454,0.6725,0.5545,0.5544,0.5497,0.5367,0.5433,0.5413,0.5369,0.5376,0.4561,0.3213,0.2074,0.1673,0.1874,0.3023,0.1811,0.0,0.0,0.0,0.0,0.0,0.0,0.0,0.0,0.0,0.0,0.0,0.0,0.0,0.0,0.0,0.0,0.0,0.0,0.0,0.0,0.0,0.0,0.0,0.0,-0.0112,-0.0503,-0.0559,-0.0838,-0.1452,-0.1952,-0.2174,-0.2174,-0.2174,-0.2174,-0.2174,-0.2732,-0.3065,-0.3065,-0.3065,-0.3065,-0.3065,-0.3065,-0.2954,-0.2676,-0.2619,-0.2454,-0.2174,-0.2174,-0.1952,1.29,1.291,1.3198,0.0,0.0,0.0,1.6977,1.6691,1.6641,1.9394,1.8398,0.0,1.6133,0.0,0.0,0.0,1.9375,2.0098,2.0508,2.0566,2.0566,2.0566,2.0439,2.0361,2.0361,1.9345,1.8581,1.8377,1.7415,1.6277,1.504,1.4951,1.4402,1.3237,1.2879,1.2732,1.2732,1.2445,1.2258,1.2164,1.2151,1.2178,1.2178,1.1417,1.0292,0.8878,0.8464,0.759,0.6227,0.5927,0.5616,0.5368,0.5399,0.5428,0.5428,0.5369,0.5376,0.5243,0.3954,0.3551,0.3754,0.4982,0.3692,0.1606,0.1004,0.08,0.0597,0.0133,0.0,0.0,0.0,0.0,0.0,0.0,0.0,0.0,0.0,0.0,0.0,0.0,0.0,0.0,0.0,0.0,0.0,0.0,0.0,0.0,0.0,0.0,-0.0168,-0.0671,-0.1229,-0.1507,-0.1507,-0.1507,-0.1507,-0.1507,-0.1507,-0.173,-0.2174,-0.2174,-0.2174,-0.2174,-0.2174,-0.2063,-0.1842,-0.1842,-0.173,-0.1507,-0.1507,-0.1229,1.2878,1.2886,1.2916,0.0,0.0,0.0,1.5405,0.0,0.0,1.8193,0.0,2.0146,1.8857,1.8562,0.0,1.8562,1.8582,1.9102,2.0381,2.0566,2.0566,2.0557,2.0176,1.9912,1.9902,1.9531,1.9102,1.8592,1.8633,1.8008,1.6655,1.6636,1.6149,1.5234,1.4243,1.3673,1.3745,1.2806,1.2151,1.1942,1.1942,1.1864,1.1864,1.0838,1.0184,0.9858,0.8727,0.8228,0.814,0.7127,0.6203,0.5428,0.5428,0.5428,0.5428,0.5428,0.5369,0.5379,0.5379,0.5379,0.5379,0.5389,0.5386,0.5036,0.328,0.2494,0.1926,0.045,0.0,0.0,0.0,0.0,0.0,0.0,0.0,0.0,0.0,0.0,0.0,0.0,0.0,0.0,0.0,0.0,0.0,0.0,0.0,0.0,0.0,0.0,0.0,0.0,0.0,0.0,0.0,0.0,0.0,0.0,0.0,-0.0671,-0.212,-0.2174,-0.2174,-0.2174,-0.2174,-0.184,-0.1062,-0.1062,-0.0727,0.0,0.0,0.0,1.323,1.2905,1.2889,1.2903,0.0,0.0,0.0,0.0,0.0,0.0,1.9424,1.8818,1.7473,1.8769,0.0,1.8779,1.9404,2.0127,2.0508,2.0566,2.0449,2.0146,1.999,1.9805,1.9502,1.9082,1.8779,1.8582,1.8359,1.7703,1.6645,1.6636,1.6149,1.5234,1.4243,1.4027,1.4736,1.3513,1.287,1.2909,1.2622,1.2109,1.155,1.1064,1.0786,1.0622,1.0152,0.9509,0.8918,0.7987,0.7442,0.7181,0.6527,0.6334,0.6268,0.562,0.5428,0.5432,0.5432,0.5432,0.5348,0.5243,0.4748,0.4143,0.3554,0.282,0.2118,0.1681,0.1523,0.1546,0.1547,0.1171,0.0638,0.0119,0.0,0.0,0.0,0.0,0.0,0.0,0.0,0.0,0.0,0.0,0.0,0.0,0.0,0.0,0.0,0.0,0.0,0.0,0.0,0.0,0.0,0.0,0.0,0.0,0.0,-0.0224,-0.0615,-0.0671,-0.0671,-0.0671,-0.0671,-0.056,-0.0336,-0.0336,-0.0224,0.0,0.0,0.0,1.5103,1.3948,0.0,1.2868,1.5234,1.6976,1.4917,0.0,0.0,0.0,1.9823,1.917,1.8398,1.9521,0.0,1.9531,2.0059,2.0566,2.0566,2.042,2.0215,1.9941,1.9609,1.9307,1.9053,1.8643,1.8389,1.8389,1.8154,1.7725,1.7217,1.7139,1.6932,1.6298,1.5367,1.5018,1.5497,1.425,1.3393,1.2856,1.2928,1.2314,1.1082,1.1022,1.0929,1.0815,1.0698,1.011,0.9274,0.8748,0.8291,0.7897,0.7046,0.6719,0.6588,0.5752,0.5428,0.5418,0.5291,0.527,0.5243,0.5094,0.4665,0.421,0.4139,0.3653,0.3135,0.2835,0.271,0.2584,0.23,0.187,0.1347,0.0631,0.0227,0.0,0.0,0.0,0.0,0.0,0.0,0.0,0.0,0.0,0.0,0.0,0.0,0.0,0.0,0.0,0.0,0.0,0.028,0.0448,0.0448,0.0727,0.0895,0.0895,0.0895,0.0895,0.0895,0.0616,0.0448,0.0448,0.0727,0.0895,0.0895,0.0895,0.0895,0.0895,0.0895,0.0895,1.767,1.5611,1.329,1.3506,1.3244,0.0,1.3464,1.5232,1.75,2.019,0.0,2.043,2.0547,2.0566,2.0566,2.0566,2.0527,2.0508,2.0508,2.0127,1.9844,1.9805,1.9111,1.8623,1.8584,1.8232,1.8008,1.8008,1.8008,1.8008,1.8008,1.8008,1.8008,1.8008,1.7033,1.6401,1.6039,1.5027,1.3848,1.2444,1.3116,1.257,1.0814,1.1023,1.0873,1.0624,1.0624,1.0174,0.9402,0.9402,0.8941,0.8156,0.7307,0.6915,0.685,0.5932,0.5602,0.5581,0.529,0.5171,0.5147,0.4945,0.4897,0.4897,0.488,0.4779,0.4551,0.3851,0.354,0.3231,0.2565,0.2343,0.212,0.1452,0.0727,0.0224,0.0224,0.0224,0.0224,0.0224,0.0224,0.0168,0.0112,0.0112,0.0112,0.0112,0.0112,0.0112,0.0168,0.0224,0.0224,0.0224,0.0783,0.1174,0.1174,0.1842,0.2174,0.2174,0.2174,0.2174,0.2174,0.1563,0.1174,0.1174,0.1842,0.2174,0.2174,0.2174,0.2174,0.2174,0.2174,0.223,1.6939,1.6455,0.0,1.8427,1.5889,1.3974,1.8033,1.7812,1.7735,2.1342,2.0444,1.9365,2.0381,2.0566,2.0566,2.0566,2.0273,2.0059,2.0059,1.9687,1.9297,1.8945,1.8679,1.8506,1.8174,1.8057,1.8008,1.8008,1.8008,1.8008,1.8008,1.8008,1.8008,1.8008,1.6754,1.6407,1.7091,1.5441,1.453,0.0,1.4118,1.3501,1.2458,1.1909,1.1227,1.0624,1.0624,1.0491,1.0301,1.0301,1.0231,0.9977,0.9069,0.8748,0.8592,0.7448,0.7075,0.6917,0.6113,0.5807,0.5658,0.4963,0.4741,0.4718,0.4599,0.4594,0.4511,0.4343,0.4262,0.4181,0.407,0.3566,0.3067,0.2899,0.2286,0.173,0.173,0.173,0.173,0.173,0.173,0.1563,0.095,0.0838,0.0838,0.0838,0.0838,0.1062,0.1675,0.173,0.173,0.173,0.1842,0.1952,0.1952,0.212,0.2174,0.2174,0.2174,0.2174,0.2174,0.2063,0.1952,0.1952,0.212,0.2174,0.2174,0.2174,0.2174,0.2174,0.2174,0.2504,1.5923,0.0,0.0,1.7004,0.0,1.7816,2.2369,2.2342,2.1936,2.4028,2.228,2.0783,2.1816,2.1593,2.1237,2.1024,2.0351,1.9984,2.0209,1.9869,1.9505,1.9263,1.9051,1.8713,1.8027,1.8008,1.8008,1.8008,1.8008,1.8008,1.8008,1.8008,1.792,1.7715,1.6997,1.6683,1.6758,1.5847,1.5087,1.4581,1.4731,1.4323,1.3554,1.2757,1.1958,1.1163,1.1163,1.0989,1.0624,1.0624,1.0624,1.0485,0.9442,0.9074,0.8914,0.7737,0.7289,0.7198,0.6629,0.6443,0.629,0.536,0.5305,0.5514,0.5085,0.5222,0.5441,0.5058,0.5003,0.4893,0.457,0.4239,0.3901,0.3901,0.301,0.2174,0.2174,0.2174,0.2174,0.2174,0.2174,0.2063,0.1675,0.1619,0.1619,0.1619,0.1619,0.1786,0.2174,0.2174,0.2174,0.2174,0.2565,0.2788,0.2732,0.339,0.3776,0.3776,0.4103,0.4323,0.4323,0.4323,0.3831,0.2788,0.3121,0.345,0.3776,0.3776,0.3941,0.4323,0.4323,0.4539,1.5021,0.0,1.7662,1.4375,1.7134,0.0,2.4743,2.6033,2.648,2.6518,2.453,2.2959,2.3307,2.2646,2.1988,2.1532,2.074,2.0275,2.067,2.0286,2.0058,2.0058,1.973,1.9233,1.8529,1.8462,1.8395,1.8269,1.8202,1.8134,1.8008,1.7939,1.7744,1.7393,1.7236,1.6807,1.6135,1.6047,1.5463,1.4451,1.505,1.505,1.4392,1.3726,1.2879,1.202,1.1826,1.1406,1.0807,1.0681,1.0598,1.0392,0.9383,0.9016,0.8823,0.786,0.748,0.7443,0.7157,0.7018,0.6875,0.5977,0.6091,0.6475,0.5869,0.6091,0.6475,0.5869,0.5706,0.5542,0.4842,0.4791,0.4846,0.468,0.3785,0.295,0.2783,0.2674,0.2619,0.2728,0.2563,0.2452,0.2561,0.2397,0.2341,0.2724,0.267,0.2672,0.2947,0.2947,0.2947,0.2947,0.3561,0.395,0.3892,0.4992,0.5706,0.5706,0.6258,0.6588,0.6588,0.6588,0.5764,0.4006,0.4563,0.5113,0.5706,0.5706,0.5982,0.6588,0.6588,0.6745,1.5022,0.0,1.962,0.0,1.8388,2.0718,0.0,0.0,2.6485,0.0,2.5278,2.3948,2.2988,2.2673,2.2435,2.1948,2.138,2.1072,2.1073,2.0797,2.0497,2.0497,2.0431,2.0398,2.0268,2.0268,1.9944,1.9177,1.911,1.8787,1.8008,1.7666,1.7441,1.7383,1.6703,1.6243,1.6125,1.5693,1.541,1.5235,1.5352,1.5352,1.5235,1.5118,1.4273,1.2818,1.2074,1.1772,1.1593,1.0863,1.0408,1.0167,1.0005,0.9774,0.9525,0.906,0.8895,0.88,0.7919,0.7609,0.7495,0.6701,0.6529,0.6588,0.6475,0.6529,0.6588,0.6475,0.648,0.6312,0.5542,0.5819,0.615,0.5542,0.5706,0.5814,0.5206,0.4615,0.4343,0.4937,0.3999,0.334,0.3987,0.3056,0.2834,0.4794,0.4529,0.4594,0.5869,0.6032,0.6032,0.6032,0.6091,0.6145,0.6145,0.6367,0.648,0.648,0.6534,0.6588,0.6588,0.6588,0.648,0.6204,0.6258,0.6367,0.648,0.648,0.648,0.6588,0.6588,0.7272,1.6141,1.7166,1.7874,0.0,1.975,1.9834,1.6947,1.9885,2.3203,2.319,2.3447,2.3798,2.4181,2.3544,2.2902,2.2405,2.172,2.1284,2.1532,2.1441,2.1302,2.1302,2.1302,2.1175,2.0655,2.059,2.0462,2.0074,2.0009,1.9879,1.9497,1.8987,1.8617,1.8353,1.7286,1.6595,1.6341,1.5732,1.541,1.541,1.541,1.541,1.541,1.541,1.4756,1.3666,1.3295,1.287,1.2435,1.1829,1.1488,1.1323,1.0545,1.0377,1.0486,0.937,0.92,0.9439,0.8625,0.8315,0.8209,0.7456,0.7509,0.7777,0.7343,0.7503,0.7723,0.7343,0.7235,0.7074,0.6308,0.6367,0.6529,0.6199,0.6367,0.6642,0.6686,0.6204,0.5769,0.6041,0.5597,0.5265,0.5588,0.5093,0.498,0.5964,0.5855,0.5864,0.6529,0.6588,0.6588,0.6588,0.6588,0.6588,0.6588,0.732,0.7794,0.7794,0.8521,0.894,0.894,0.894,0.894,0.894,0.7782,0.7362,0.7794,0.8146,0.8561,0.894,0.894,0.9304,0.0,0.0,1.6004,1.8605,1.9282,1.8134,0.0,0.0,2.1257,0.0,2.2237,2.3454,2.4582,2.4094,2.3328,2.2874,2.218,2.1783,2.2185,2.2187,2.2187,2.2187,2.2187,2.1939,2.129,2.1227,2.1164,2.0974,2.091,2.079,2.0411,1.9856,1.9365,1.8885,1.7882,1.7116,1.6765,1.6036,1.569,1.569,1.5468,1.541,1.541,1.541,1.505,1.451,1.4273,1.3793,1.3092,1.2588,1.2307,1.2028,1.0934,1.0784,1.1035,0.9754,0.9614,0.9961,0.9263,0.9061,0.8949,0.8408,0.8474,0.8752,0.8362,0.8527,0.8699,0.8156,0.799,0.783,0.7074,0.702,0.7128,0.6912,0.702,0.7182,0.7402,0.7128,0.6804,0.6642,0.6588,0.6642,0.6858,0.6696,0.6799,0.7331,0.7272,0.7272,0.7635,0.7688,0.7688,0.7688,0.7688,0.7688,0.7688,0.8626,0.9252,0.9252,1.0238,1.0813,1.0813,1.0956,1.0956,1.0813,0.9717,0.9195,0.9252,0.9754,1.0367,1.1048,1.1048,1.1199,0.0,1.5242,0.0,1.5612,1.5674,0.0,0.0,0.0,2.2992,2.2961,2.301,2.3123,2.3217,2.3616,2.3779,2.3155,2.3055,2.2982,2.3017,2.3017,2.3017,2.3017,2.3017,2.3005,2.2944,2.2944,2.2628,2.1877,2.1815,2.128,1.9918,1.9365,1.8862,1.8371,1.7879,1.7545,1.7523,1.681,1.6436,1.6425,1.5748,1.541,1.541,1.541,1.5352,1.5294,1.451,1.3947,1.3491,1.2714,1.2003,1.1362,1.1276,1.1099,1.0838,1.072,1.0712,1.0661,0.9961,0.9762,0.9762,0.971,0.9309,0.8903,0.951,0.9256,0.8804,0.8752,0.8752,0.8586,0.783,0.8156,0.8533,0.783,0.8156,0.8315,0.6966,0.7182,0.745,0.675,0.6588,0.6804,0.7509,0.7074,0.7278,0.934,0.9058,0.9096,1.0399,1.0602,1.0602,1.0602,1.0602,1.0602,1.0602,1.0661,1.0712,1.0712,1.0762,1.0813,1.0813,1.1323,1.1373,1.0813,1.2493,1.2483,1.0712,1.0712,1.104,1.1653,1.1653,1.2338,0.0,0.0,0.0,1.4832,1.4079,1.3024,1.2329,1.4533,1.7972,2.2215,2.3132,2.3105,2.3106,2.3301,2.3376,2.3115,2.3078,2.3078,2.3078,2.3078,2.3078,2.3078,2.3078,2.3078,2.3078,2.3078,2.3005,2.2702,2.1338,2.0795,2.1343,1.9595,1.8955,1.983,1.8826,1.8058,1.7578,1.7357,1.7202,1.7191,1.6912,1.6585,1.6093,1.6093,1.5864,1.5391,1.4831,1.4516,1.4298,1.3747,1.3203,1.2626,1.1935,1.1858,1.2049,1.1124,1.1065,1.1366,1.0661,1.0415,1.0415,1.0415,1.0261,1.0064,0.9865,0.9909,1.0012,0.9562,0.9762,1.0005,0.974,0.9902,0.9909,0.9235,0.9599,0.9806,0.8862,0.8869,0.8974,0.8705,0.9006,0.9356,0.9629,0.9467,0.9563,1.0312,1.0195,1.0246,1.0762,1.114,1.1373,1.1373,1.1742,1.2018,1.2018,1.2435,1.2638,1.2638,1.309,1.329,1.329,1.3527,1.3517,1.329,1.3971,1.3575,1.2083,1.2908,1.3433,1.3611,1.3611,1.3856,1.3597,0.0,0.0,0.0,0.0,1.1945,1.1634,1.1888,1.4267,2.1574,2.1331,2.0474,2.2704,2.3109,2.3078,2.3078,2.3078,2.3078,2.3078,2.3078,2.3078,2.3078,2.3078,2.3078,2.3078,2.3078,2.3078,2.3078,2.1581,0.0,2.1983,2.0125,1.9447,2.0351,1.9503,1.8821,1.8328,1.8112,1.795,1.795,1.7743,1.7357,1.6866,1.6866,1.6585,1.611,1.5669,1.5129,1.4531,1.4102,1.3682,1.3212,1.2447,1.2452,1.2774,1.1841,1.1783,1.208,1.1366,1.1166,1.1166,1.1166,1.0965,1.0762,1.0517,1.0618,1.072,1.0261,1.0466,1.0813,1.0813,1.0813,1.0669,1.0269,1.0466,1.0661,1.021,1.0167,1.0167,1.0167,1.0517,1.0864,1.1048,1.1099,1.124,1.1729,1.1778,1.1828,1.2083,1.2454,1.2734,1.2734,1.3097,1.3371,1.3371,1.3778,1.4043,1.4043,1.4446,1.4698,1.4698,1.488,1.4926,1.4698,1.5107,1.4892,1.4011,1.4492,1.4789,1.5017,1.5017,1.5231,0.0,0.0,0.0,0.0,0.0,0.0,1.1227,0.0,1.2679,2.1086,1.7846,1.5472,2.1898,2.3125,2.3078,2.3078,2.3078,2.3078,2.3078,2.3078,2.3078,2.3078,2.3078,2.3078,2.3078,2.3078,2.3078,2.3078,2.256,2.2008,2.1518,2.0953,2.0388,1.9823,1.9798,1.9798,1.9798,1.9097,1.8715,1.8715,1.8004,1.7633,1.7633,1.7633,1.7633,1.7544,1.7042,1.5775,1.4155,1.3723,1.3302,1.2929,1.2929,1.2929,1.2881,1.2929,1.2929,1.2822,1.2129,1.1864,1.1864,1.1864,1.1416,1.0965,1.1616,1.1366,1.0872,1.0864,1.0864,1.0914,1.0914,1.0914,1.0914,1.0864,1.0914,1.0914,1.0864,1.0914,1.0914,1.0864,1.0914,1.1099,1.1711,1.18,1.2241,1.3554,1.3752,1.395,1.4606,1.4709,1.4744,1.4744,1.4744,1.4744,1.4744,1.4744,1.4744,1.4744,1.4744,1.4789,1.4789,1.5365,1.541,1.4789,1.5964,1.6527,1.6476,1.5309,1.5107,1.5676,1.5676,1.6275,1.0932,0.0,0.0,0.0,0.0,0.0,0.0,0.0,1.1352,1.5153,1.831,2.0917,2.2763,2.3094,2.3078,2.3078,2.3078,2.3078,2.3078,2.3078,2.3078,2.3078,2.3078,2.3078,2.3078,2.3078,2.3078,0.0,2.1099,2.0388,2.143,2.0564,1.9962,1.9811,1.9798,1.9798,1.9798,1.9592,1.9475,1.9475,1.9307,1.8927,1.8394,1.8394,1.8112,1.7522,1.6748,1.6096,1.5585,1.5049,1.4285,1.36,1.4014,1.3658,1.2978,1.3372,1.3552,1.3494,1.3341,1.3236,1.3236,1.3236,1.2822,1.2255,1.1922,1.203,1.2206,1.1665,1.2199,1.3072,1.349,1.3632,1.3385,1.2473,1.2956,1.3385,1.2425,1.2956,1.3348,1.2425,1.3004,1.3669,1.3856,1.3856,1.4007,1.4354,1.44,1.4503,1.4698,1.5096,1.5365,1.5365,1.5732,1.602,1.602,1.602,1.602,1.602,1.6373,1.6574,1.6574,1.7094,1.7341,1.7164,1.749,1.7653,1.7639,1.6899,1.6857,1.7436,1.7436,1.7558,0.0,0.0,0.0,0.0,0.0,0.0,1.1165,1.0561,1.0598,0.0,1.6763,2.1411,2.2847,2.307,2.307,2.3129,2.3103,2.307,2.3075,2.3078,2.3078,2.3078,2.3078,2.3078,2.3078,2.3078,2.3037,2.2811,2.1091,2.0263,2.0752,2.0162,1.9798,1.9798,1.9798,1.9798,1.9798,1.9798,1.9798,1.9798,1.9798,1.9579,1.915,1.915,1.8927,1.8442,1.7482,1.7046,1.6975,1.6127,1.5176,1.419,1.456,1.4247,1.3705,1.4061,1.419,1.419,1.419,1.419,1.419,1.419,1.392,1.3552,1.312,1.3331,1.3552,1.313,1.3558,1.4236,1.4606,1.4698,1.4514,1.3784,1.4168,1.4514,1.3737,1.4389,1.4767,1.3784,1.4168,1.4789,1.5005,1.5062,1.5152,1.5421,1.5433,1.5433,1.5433,1.5744,1.5964,1.5964,1.6484,1.6837,1.6837,1.7034,1.7146,1.7146,1.7463,1.7733,1.7906,1.8221,1.8478,1.8627,1.8627,1.874,1.8979,1.8064,1.7787,1.8106,1.8341,1.8559,0.0,0.0,0.0,0.0,1.2663,0.0,1.1685,1.0867,1.0462,0.0,1.4782,1.8938,2.1951,2.2257,2.1982,2.1995,2.2644,2.3095,2.3132,2.3122,2.31,2.3106,2.3122,2.3078,2.3078,2.3078,2.2899,2.2475,2.1901,2.1132,1.9952,1.9901,1.9901,1.9798,1.985,1.9901,1.9798,1.985,1.985,1.9798,1.9798,1.9798,1.9798,1.9798,1.9798,1.9748,1.8668,1.8204,1.8116,1.6986,1.5832,1.4789,1.488,1.4835,1.4698,1.4789,1.4789,1.4789,1.4789,1.4789,1.4789,1.4789,1.4744,1.4698,1.4698,1.4698,1.4698,1.4789,1.4789,1.4835,1.488,1.4892,1.488,1.4835,1.4835,1.488,1.4789,1.5276,1.5543,1.5017,1.4892,1.5062,1.5599,1.572,1.5864,1.6423,1.6552,1.6595,1.6595,1.6637,1.668,1.668,1.7118,1.7394,1.7394,1.7827,1.8106,1.8106,1.8185,1.8391,1.8867,1.8941,1.917,1.9562,1.9577,1.9802,2.0273,1.9016,1.843,1.843,1.8902,1.9346,0.0,0.0,0.0,0.0,1.1247,0.0,1.0921,1.0401,1.1483,0.0,1.7301,1.8205,1.8891,1.6863,1.512,1.5142,1.9603,2.3073,2.311,2.3103,2.3073,2.3073,2.3116,2.3078,2.3078,2.3078,2.3077,2.308,2.2631,2.1864,2.0686,2.0597,2.0359,1.9798,2.0295,2.0359,1.9811,2.0359,2.0346,1.9798,1.9798,1.9798,1.9798,1.9798,1.9798,1.9748,1.8668,1.8204,1.8116,1.6986,1.6107,1.5454,1.5964,1.5567,1.4744,1.5231,1.541,1.541,1.541,1.541,1.541,1.541,1.5096,1.4698,1.4698,1.4698,1.4789,1.5276,1.541,1.5543,1.602,1.6151,1.602,1.5543,1.5788,1.602,1.5543,1.592,1.6281,1.6151,1.6151,1.6194,1.6281,1.6337,1.638,1.6466,1.6879,1.7146,1.7146,1.7504,1.7787,1.7787,1.7867,1.7947,1.7947,1.8027,1.8106,1.8106,1.8496,1.8939,1.9411,1.9818,2.0215,2.0684,2.0684,2.0749,2.083,2.0567,2.0452,2.0452,2.0534,2.0649,0.0,0.0,0.0,0.8813,0.9838,0.0,0.0,1.0935,1.1013,1.3646,1.4165,1.4427,1.5303,1.3439,1.2067,1.302,1.5985,1.816,1.8141,1.8166,1.94,2.2693,2.3073,2.3078,2.3078,2.279,2.2495,2.2454,2.2268,2.1897,2.1259,2.1245,2.1099,2.0756,2.1051,2.1099,2.0756,2.1099,2.0917,2.0295,2.0295,2.0105,1.9798,2.0156,2.0105,1.9787,1.9287,1.8714,1.8116,1.7268,1.6727,1.6459,1.6497,1.6107,1.5656,1.592,1.6051,1.6051,1.6051,1.6051,1.6051,1.6051,1.5832,1.5644,1.5928,1.6003,1.6015,1.6039,1.6256,1.6502,1.6824,1.7118,1.7216,1.6928,1.7079,1.7216,1.6886,1.7079,1.7312,1.7312,1.7312,1.7188,1.6951,1.7105,1.7312,1.7312,1.7544,1.7706,1.7706,1.7947,1.8106,1.8106,1.8341,1.8598,1.8849,1.9059,1.9302,1.954,1.9783,2.0131,2.0569,2.0814,2.1165,2.1645,2.1786,2.184,2.184,2.2023,2.1824,2.1258,2.1258,2.1439,0.0,0.0,0.0,0.0,0.0,0.9234,0.0,0.0,0.0,1.068,1.0806,1.1223,1.2635,0.0,0.0,0.0,0.0,0.0,0.0,1.3207,0.0,2.233,2.3114,2.2789,2.1907,2.1693,2.1658,2.1796,2.1959,2.2039,2.1899,2.1899,2.1852,2.1697,2.1852,2.1852,2.1697,2.1852,2.1582,2.0979,2.0979,2.0683,2.0181,2.0733,2.0683,2.0168,1.9975,1.94,1.8452,1.7758,1.7463,1.7394,1.6752,1.6637,1.6795,1.668,1.6637,1.668,1.6752,1.6752,1.6637,1.6637,1.6637,1.671,1.7146,1.7394,1.7353,1.6909,1.7105,1.7463,1.7463,1.7787,1.8106,1.8106,1.8106,1.8106,1.8106,1.8106,1.8106,1.8106,1.8185,1.8066,1.7544,1.7827,1.8106,1.8106,1.8185,1.8288,1.8366,1.8468,1.8584,1.8646,1.9037,1.9456,1.9834,2.023,2.0583,2.0959,2.1039,2.129,2.1685,2.1816,2.2079,2.247,2.2678,2.2797,2.2797,2.3124,2.276,2.1848,2.1848,2.2167,0.0,0.0,0.0,0.0,0.8269,0.8283,0.843,0.0,0.9661,1.2108,0.0,1.2682,1.2883,0.0,0.0,0.0,0.0,0.0,1.3189,1.3177,1.5656,2.2323,2.312,2.1534,1.7624,1.911,2.0923,2.2391,2.3025,2.3143,2.2589,2.2603,2.23,2.1697,2.23,2.23,2.1697,2.23,2.2253,2.1615,2.1615,2.1568,2.1506,2.1554,2.1568,2.1452,2.0381,1.9814,1.9631,1.8481,1.8027,1.7907,1.6909,1.7076,1.7867,1.7394,1.7188,1.7271,1.7747,1.7626,1.7188,1.7188,1.7188,1.7229,1.7271,1.7626,1.7987,1.7947,1.7947,1.8027,1.8027,1.8066,1.8106,1.8106,1.8106,1.8106,1.8106,1.8106,1.8106,1.8106,1.8496,1.865,1.8106,1.8066,1.8106,1.8106,1.8496,1.8954,1.939,1.9798,2.023,2.0634,2.0715,2.0781,2.0829,2.0894,2.0926,2.0991,2.1272,2.1632,2.204,2.266,2.3045,2.3111,2.3117,2.3141,2.3141,2.3374,2.3312,2.3003,2.3003,2.3052,0.0,0.0,0.0,0.0,0.0,0.0,0.7758,0.0,0.8731,0.0,0.0,0.0,0.0,0.0,0.0,0.0,1.1451,0.0,0.0,0.0,1.2962,0.0,0.0,0.0,1.5566,1.7258,0.0,2.0274,2.1338,2.1798,2.1554,2.2598,2.3084,2.2786,2.3084,2.3084,2.2801,2.3084,2.2905,2.23,2.23,2.21,2.1697,2.21,2.2053,2.1688,2.1155,2.0528,1.9848,1.8925,1.8574,1.8496,1.7747,1.7706,1.8066,1.7867,1.7747,1.7787,1.8027,1.7947,1.7747,1.7747,1.7987,1.8185,1.7867,1.8145,1.8496,1.8185,1.8341,1.8574,1.8574,1.8962,1.939,1.939,1.9591,1.9768,1.9768,1.9768,1.9768,1.9768,1.9958,2.0043,1.9803,1.957,1.9462,1.9733,1.9958,2.0181,2.04,2.0583,2.0797,2.0959,2.0991,2.1165,2.1622,2.1652,2.184,2.2255,2.2417,2.2574,2.2737,2.3028,2.3247,2.3374,2.3584,2.3733,2.3856,2.4118,2.4207,2.4118,2.3812,2.3723,0.8657,0.0,0.0,0.0,0.0,0.0,0.0,0.0,0.0,0.0,0.0,0.0,0.0,0.0,0.0,0.0,0.0,0.9145,0.0,0.8775,0.0,0.0,0.0,0.0,0.0,1.5162,1.6759,1.8016,1.9701,2.0722,2.0722,2.2547,2.3595,2.3595,2.3595,2.3595,2.3595,2.3595,2.3377,2.2934,2.2934,2.268,2.2225,2.2725,2.2665,2.22,2.1943,2.13,2.0344,1.9589,1.9273,1.9236,1.8712,1.8598,1.8646,1.8405,1.8341,1.838,1.8622,1.8622,1.8545,1.8631,1.8873,1.9051,1.8745,1.8948,1.9236,1.8985,1.9074,1.931,1.9456,1.9989,2.0483,2.0483,2.0764,2.0991,2.0991,2.0991,2.0991,2.0991,2.0991,2.1039,2.115,2.0781,2.0616,2.0959,2.0991,2.1086,2.1274,2.1305,2.1397,2.1576,2.1606,2.1824,2.2354,2.2407,2.2686,2.33,2.3346,2.3397,2.3556,2.3556,2.3648,2.3857,2.41,2.4295,2.4441,2.4714,2.4828,2.479,2.44,2.4282,0.0,0.0,0.0,0.8684,0.0,0.0,0.0,0.0,0.7032,0.0,0.0,0.0,0.0,0.0,0.0,0.0,0.0,0.0,0.0,0.0,0.0,0.0,0.0,0.0,0.0,1.2437,1.4654,1.6253,1.9059,2.0722,2.0722,2.2547,2.3595,2.3595,2.3595,2.3595,2.3595,2.3595,2.3595,2.3551,2.3551,2.3551,2.3551,2.3551,2.3551,2.3477,2.2644,2.2041,2.1575,2.0656,2.028,2.0212,1.9803,1.9894,2.0128,1.9214,1.8855,1.8991,1.9919,1.9939,1.9606,2.0001,1.9893,1.9641,2.0016,2.0184,2.0348,2.0781,2.0583,2.0348,2.0813,2.0959,2.0959,2.0959,2.0991,2.0991,2.0991,2.0991,2.0991,2.0991,2.0991,2.1118,2.1521,2.1244,2.0991,2.0991,2.0991,2.1243,2.1984,2.2051,2.2327,2.3052,2.3141,2.3141,2.3165,2.3165,2.3305,2.3671,2.3692,2.3921,2.4425,2.4459,2.4559,2.4756,2.4775,2.479,2.4771,2.4943,2.493,2.4804,2.479,2.479,0.0,0.0,1.0601,1.0207,0.0,0.0,0.0,0.0,0.0,0.0,0.0,0.0,0.0,0.0,0.0,0.0,0.0,0.0,0.0,0.0,0.0,0.0,0.0,0.0,0.0,0.0,0.0,1.4247,1.5879,1.6802,1.6802,1.9899,2.1695,2.1695,2.2936,2.3595,2.3595,2.3595,2.3595,2.3595,2.3595,2.3595,2.3595,2.3595,2.3595,2.3563,2.2668,2.2217,2.2049,2.113,2.0748,2.0764,2.0599,2.0632,2.0682,2.0058,1.9814,1.9919,2.055,2.0649,2.0567,2.0699,2.0634,2.0567,2.0684,2.0748,2.0797,2.0975,2.0894,2.0797,2.0959,2.1366,2.1724,2.1724,2.2107,2.246,2.246,2.246,2.246,2.246,2.246,2.2513,2.2635,2.2539,2.238,2.2152,2.23,2.2539,2.2788,2.2813,2.2912,2.3165,2.3189,2.33,2.3522,2.3864,2.4174,2.4403,2.442,2.4505,2.47,2.47,2.4771,2.4943,2.4924,2.4993,2.5126,2.5182,2.5182,2.5126,2.5126,2.5,1.1228,1.1456,0.0,1.1069,1.0568,0.0,0.976,0.0,0.7915,0.0,0.0,0.0,0.0,0.0,0.0,0.0,0.0,0.0,0.0,0.7705,0.0,0.0,0.8998,1.0741,0.0,1.1787,1.1349,1.2444,1.3934,1.4797,0.0,0.0,2.0722,2.0722,2.2592,2.3595,2.3595,2.3595,2.3595,2.3595,2.3595,2.3595,2.3595,2.3595,2.3724,2.3861,2.3227,2.2795,2.252,2.1872,2.1439,2.1213,2.1071,2.1086,2.115,2.0715,2.0649,2.0797,2.1118,2.1213,2.1244,2.1415,2.1354,2.1244,2.1415,2.1354,2.126,2.1432,2.143,2.1411,2.1562,2.2051,2.2487,2.2487,2.2838,2.3189,2.3189,2.3189,2.3189,2.3189,2.3189,2.3189,2.3189,2.33,2.3259,2.2923,2.3069,2.3236,2.3369,2.3392,2.3441,2.3642,2.3663,2.3785,2.408,2.4424,2.4654,2.479,2.4804,2.4814,2.4883,2.4864,2.4943,2.5099,2.5099,2.5163,2.5303,2.5303,2.5303,2.5303,2.5303,2.5171]}]]